ftp/pub/palmer/observations_modified/2019/June/original_files/AR190619_BASE.txt
Download
Sample DateTime Unit Id WS Avg 2min WD Avg 2min WGS 10min WGD 10min Air Temp Rel Humidity Dew Point Pyranometer Quantum Air Pressure Snow Level Rainfall PW Current Visibility CBase 1 CBase 2 CBase 3 Vert Vis
2019/06/19 00:00:00 BASE 3.87 139 5.25 73 -1.7 100 -1.7 0 0 987.7 NA 0.0000 9999 3220 0 0 0
2019/06/19 00:01:00 BASE 3.55 142 5.25 73 -1.7 100 -1.7 0 0 987.7 NA 0.0000 9999 3220 0 0 0
2019/06/19 00:02:00 BASE 3.34 134 4.78 148 -1.8 100 -1.8 0 0 987.8 NA 0.0000 9999 3280 0 0 0
2019/06/19 00:03:00 BASE 3.60 125 4.78 148 -1.8 100 -1.8 0 0 987.8 NA 0.0000 9999 3180 0 0 0
2019/06/19 00:04:00 BASE 2.84 114 4.78 148 -1.9 100 -1.9 0 0 987.8 NA 0.0000 9999 3180 0 0 0
2019/06/19 00:05:00 BASE 2.34 66 4.78 148 -1.9 100 -1.9 0 0 987.8 NA 0.0000 9999 3080 0 0 0
2019/06/19 00:06:00 BASE 2.66 19 4.78 148 -1.9 100 -1.9 0 0 987.8 NA 0.0000 9999 3180 0 0 0
2019/06/19 00:07:00 BASE 2.64 15 4.78 148 -1.8 100 -1.8 0 0 987.8 NA 0.0000 9999 3120 0 0 0
2019/06/19 00:08:00 BASE 2.24 29 4.78 148 -1.8 100 -1.8 0 0 987.8 NA 0.0000 9999 3310 0 0 0
2019/06/19 00:09:00 BASE 2.77 43 4.78 148 -1.8 100 -1.8 0 0 987.8 NA 0.0000 9999 3250 0 0 0
2019/06/19 00:10:00 BASE 3.39 49 4.68 145 -1.8 100 -1.8 0 0 987.9 NA 0.0000 9999 3250 0 0 0
2019/06/19 00:11:00 BASE 3.10 55 4.68 145 -1.8 100 -1.8 0 0 987.9 NA 0.0000 9999 3280 0 0 0
2019/06/19 00:12:00 BASE 2.52 57 4.48 59 -1.8 100 -1.8 0 0 987.9 NA 0.0000 9999 3310 0 0 0
2019/06/19 00:13:00 BASE 1.92 60 4.48 59 -1.8 100 -1.8 0 0 987.9 NA 0.0000 9999 3120 0 0 0
2019/06/19 00:14:00 BASE 1.40 43 4.48 59 -1.8 100 -1.8 0 0 987.9 NA 0.0000 9999 3150 0 0 0
2019/06/19 00:15:00 BASE 1.29 7 4.48 59 -1.8 100 -1.8 0 0 987.9 NA 0.0000 9999 3150 0 0 0
2019/06/19 00:16:00 BASE 1.54 348 4.48 59 -1.7 100 -1.7 0 0 987.8 NA 0.0000 9999 3080 0 0 0
2019/06/19 00:17:00 BASE 1.61 335 4.48 59 -1.7 100 -1.7 0 0 987.8 NA 0.0000 9999 3180 0 0 0
2019/06/19 00:18:00 BASE 1.17 315 4.48 59 -1.6 100 -1.6 0 0 987.8 NA 0.0000 9999 3180 0 0 0
2019/06/19 00:19:00 BASE 0.34 294 3.86 52 -1.5 100 -1.5 0 0 987.9 NA 0.0000 9999 3120 0 0 0
2019/06/19 00:20:00 BASE 0.00 258 3.45 53 -1.5 100 -1.5 0 0 987.9 NA 0.0000 9999 3180 0 0 0
2019/06/19 00:21:00 BASE 0.00 242 2.68 45 -1.5 100 -1.5 0 0 987.9 NA 0.0000 9999 3120 0 0 0
2019/06/19 00:22:00 BASE 0.10 276 2.68 45 -1.4 100 -1.4 0 0 987.8 NA 0.0000 9999 2990 0 0 0
2019/06/19 00:23:00 BASE 0.28 290 2.21 340 -1.4 100 -1.4 0 0 987.8 NA 0.0000 9999 2200 2990 0 0
2019/06/19 00:24:00 BASE 1.12 345 2.62 31 -1.4 100 -1.4 0 0 987.9 NA 0.0000 9999 2230 2950 0 0
2019/06/19 00:25:00 BASE 2.42 20 3.24 20 -1.4 100 -1.4 0 0 987.9 NA 0.0000 9999 2760 0 0 0
2019/06/19 00:26:00 BASE 2.79 24 3.24 20 -1.5 100 -1.5 0 0 987.8 NA 0.0000 9999 1970 2790 0 0
2019/06/19 00:27:00 BASE 2.23 21 3.24 20 -1.5 100 -1.5 0 0 987.8 NA 0.0000 9999 1940 2590 0 0
2019/06/19 00:28:00 BASE 2.02 20 3.24 20 -1.5 100 -1.5 0 0 987.8 NA 0.0000 9999 2490 0 0 0
2019/06/19 00:29:00 BASE 2.52 29 3.34 42 -1.5 100 -1.5 0 0 987.8 NA 0.0000 9999 2360 3080 0 0
2019/06/19 00:30:00 BASE 3.06 44 3.65 44 -1.5 100 -1.5 0 0 987.8 NA 0.0000 9999 2300 3120 0 0
2019/06/19 00:31:00 BASE 2.77 62 3.65 44 -1.5 100 -1.5 0 0 987.8 NA 0.0000 9999 2260 3120 0 0
2019/06/19 00:32:00 BASE 1.85 84 3.65 44 -1.5 100 -1.5 0 0 987.8 NA 0.0000 9999 2230 3080 0 0
2019/06/19 00:33:00 BASE 1.51 99 3.65 44 -1.5 100 -1.5 0 0 987.8 NA 0.0000 9999 3120 0 0 0
2019/06/19 00:34:00 BASE 1.72 94 3.65 44 -1.5 100 -1.5 0 0 987.8 NA 0.0000 9999 3220 0 0 0
2019/06/19 00:35:00 BASE 2.24 93 3.65 44 -1.5 100 -1.5 0 0 987.8 NA 0.0000 9999 3350 0 0 0
2019/06/19 00:36:00 BASE 2.94 99 3.65 44 -1.5 100 -1.5 0 0 987.8 NA 0.0000 9999 3380 6790 0 0
2019/06/19 00:37:00 BASE 3.19 99 3.65 44 -1.5 100 -1.5 0 0 987.8 NA 0.0000 9999 3580 6820 0 0
2019/06/19 00:38:00 BASE 2.96 93 3.65 44 -1.5 100 -1.5 0 0 987.8 NA 0.0000 9999 5120 6790 0 0
2019/06/19 00:39:00 BASE 2.78 93 3.65 44 -1.5 100 -1.5 0 0 987.8 NA 0.0000 9999 4820 6590 0 0
2019/06/19 00:40:00 BASE 2.72 104 3.50 98 -1.5 100 -1.5 0 0 987.8 NA 0.0000 9999 6230 0 0 0
2019/06/19 00:41:00 BASE 2.51 114 3.50 98 -1.5 100 -1.5 0 0 987.8 NA 0.0000 9999 5020 0 0 0
2019/06/19 00:42:00 BASE 2.34 116 3.50 98 -1.5 100 -1.5 0 0 987.8 NA 0.0000 9999 5050 0 0 0
2019/06/19 00:43:00 BASE 2.10 108 3.50 98 -1.5 100 -1.5 0 0 987.8 NA 0.0000 9999 3250 4560 5250 0
2019/06/19 00:44:00 BASE 2.05 99 3.50 98 -1.6 100 -1.6 0 0 987.8 NA 0.0000 9999 3410 0 0 0
2019/06/19 00:45:00 BASE 2.28 94 3.50 98 -1.6 100 -1.6 0 0 987.7 NA 0.0000 9999 3250 0 0 0
2019/06/19 00:46:00 BASE 2.10 93 3.34 77 -1.6 100 -1.6 0 0 987.7 NA 0.0000 9999 3510 0 0 0
2019/06/19 00:47:00 BASE 1.67 105 3.19 96 -1.6 100 -1.6 0 0 987.7 NA 0.0000 9999 3450 6690 0 0
2019/06/19 00:48:00 BASE 1.77 125 3.04 109 -1.6 100 -1.6 0 0 987.7 NA 0.0000 9999 3480 0 0 0
2019/06/19 00:49:00 BASE 2.57 136 4.01 145 -1.6 100 -1.6 0 0 987.7 NA 0.0000 9999 3120 0 0 0
2019/06/19 00:50:00 BASE 4.07 150 6.38 164 -1.6 100 -1.6 0 0 987.6 NA 0.0000 9999 3080 0 0 0
2019/06/19 00:51:00 BASE 5.71 162 7.15 167 -1.6 100 -1.6 0 0 987.5 NA 0.0000 9999 3120 0 0 0
2019/06/19 00:52:00 BASE 6.45 161 7.15 167 -1.7 100 -1.7 0 0 987.6 NA 0.0000 9999 3180 0 0 0
2019/06/19 00:53:00 BASE 6.21 165 7.15 167 -1.7 100 -1.7 0 0 987.6 NA 0.0000 9999 3220 0 0 0
2019/06/19 00:54:00 BASE 5.52 169 7.15 167 -1.6 100 -1.6 0 0 987.6 NA 0.0000 9999 3250 0 0 0
2019/06/19 00:55:00 BASE 4.61 170 7.15 167 -1.6 100 -1.6 0 0 987.6 NA 0.0000 9999 3510 0 0 0
2019/06/19 00:56:00 BASE 3.84 160 7.15 167 -1.6 100 -1.6 0 0 987.6 NA 0.0000 9999 3250 0 0 0
2019/06/19 00:57:00 BASE 3.37 156 7.15 167 -1.6 100 -1.6 0 0 987.6 NA 0.0000 9999 3510 6630 0 0
2019/06/19 00:58:00 BASE 3.63 173 7.15 167 -1.6 100 -1.6 0 0 987.5 NA 0.0000 9999 3640 6860 0 0
2019/06/19 00:59:00 BASE 3.55 195 7.15 167 -1.7 100 -1.7 0 0 987.4 NA 0.0000 9999 3810 0 0 0
2019/06/19 01:00:00 BASE 3.08 187 7.15 167 -1.7 100 -1.7 0 0 987.4 NA 0.0000 9999 3870 0 0 0
2019/06/19 01:01:00 BASE 3.87 164 7.00 166 -1.8 100 -1.8 0 0 987.5 NA 0.0000 9999 3050 0 0 0
2019/06/19 01:02:00 BASE 4.13 155 6.48 159 -1.8 100 -1.8 0 0 987.5 NA 0.0000 9999 3020 0 0 0
2019/06/19 01:03:00 BASE 3.18 143 5.92 176 -1.8 100 -1.8 0 0 987.6 NA 0.0000 9999 3020 0 0 0
2019/06/19 01:04:00 BASE 2.15 110 5.45 178 -1.9 100 -1.9 0 0 987.5 NA 0.0000 9999 3180 0 0 0
2019/06/19 01:05:00 BASE 1.89 62 5.45 178 -1.9 100 -1.9 0 0 987.5 NA 0.0000 9999 3020 0 0 0
2019/06/19 01:06:00 BASE 2.64 41 5.45 178 -1.9 100 -1.9 0 0 987.5 NA 0.0000 9999 3020 0 0 0
2019/06/19 01:07:00 BASE 2.37 47 5.45 178 -1.8 100 -1.8 0 0 987.4 NA 0.0000 9999 3080 0 0 0
2019/06/19 01:08:00 BASE 1.40 63 5.45 178 -1.8 100 -1.8 0 0 987.4 NA 0.0000 9999 3150 0 0 0
2019/06/19 01:09:00 BASE 1.83 67 5.45 178 -1.7 100 -1.7 0 0 987.4 NA 0.0000 9999 3050 0 0 0
2019/06/19 01:10:00 BASE 3.22 74 5.45 178 -1.7 100 -1.7 0 0 987.4 NA 0.0000 9999 3250 3900 0 0
2019/06/19 01:11:00 BASE 4.16 88 4.63 109 -1.6 100 -1.6 0 0 987.4 NA 0.0000 9999 3310 0 0 0
2019/06/19 01:12:00 BASE 4.10 103 4.63 109 -1.6 100 -1.6 0 0 987.5 NA 0.0000 9999 3280 0 0 0
2019/06/19 01:13:00 BASE 3.09 114 4.63 109 -1.5 100 -1.5 0 0 987.4 NA 0.0000 9999 3580 0 0 0
2019/06/19 01:14:00 BASE 2.09 127 4.63 109 -1.5 100 -1.5 0 0 987.4 NA 0.0000 9999 3610 0 0 0
2019/06/19 01:15:00 BASE 1.48 153 4.63 109 -1.6 100 -1.6 0 0 987.4 NA 0.0000 9999 3640 0 0 0
2019/06/19 01:16:00 BASE 0.78 168 4.63 109 -1.6 100 -1.6 0 0 987.4 NA 0.0000 9999 3810 4990 0 0
2019/06/19 01:17:00 BASE 0.71 166 4.63 109 -1.6 100 -1.6 0 0 987.3 NA 0.0000 9999 5610 6630 0 0
2019/06/19 01:18:00 BASE 1.54 146 4.63 109 -1.6 100 -1.6 0 0 987.3 NA 0.0000 9999 5410 6630 0 0
2019/06/19 01:19:00 BASE 2.90 121 4.63 109 -1.6 100 -1.6 0 0 987.3 NA 0.0000 9999 5640 0 0 0
2019/06/19 01:20:00 BASE 3.73 107 4.63 109 -1.6 100 -1.6 0 0 987.3 NA 0.0000 9999 2790 0 0 0
2019/06/19 01:21:00 BASE 3.00 101 4.53 115 -1.4 100 -1.4 0 0 987.3 NA 0.0000 9999 2760 0 0 0
2019/06/19 01:22:00 BASE 2.00 90 4.32 91 -1.3 100 -1.3 0 0 987.3 NA 0.0000 9999 2760 0 0 0
2019/06/19 01:23:00 BASE 3.77 83 7.10 107 -1.2 100 -1.2 0 0 987.4 NA 0.0000 9999 2790 0 0 0
2019/06/19 01:24:00 BASE 5.50 86 7.10 107 -1.1 100 -1.1 0 0 987.3 NA 0.0000 9999 2760 0 0 0
2019/06/19 01:25:00 BASE 5.66 73 7.10 107 -1.0 100 -1.0 0 0 987.3 NA 0.0000 9999 2760 0 0 0
2019/06/19 01:26:00 BASE 5.09 34 7.10 107 -0.9 100 -0.9 0 0 987.3 NA 0.0000 9999 2690 0 0 0
2019/06/19 01:27:00 BASE 3.70 354 7.10 107 -0.8 99 -0.9 0 0 987.3 NA 0.0000 9999 2760 0 0 0
2019/06/19 01:28:00 BASE 2.58 330 7.10 107 -0.6 99 -0.8 0 0 987.3 NA 0.0000 9999 2720 0 0 0
2019/06/19 01:29:00 BASE 1.02 338 7.10 107 -0.5 98 -0.8 0 0 987.3 NA 0.0000 9999 2760 0 0 0
2019/06/19 01:30:00 BASE 0.37 349 7.10 107 -0.4 97 -0.8 0 0 987.4 NA 0.0000 9999 2790 0 0 0
2019/06/19 01:31:00 BASE 1.57 329 7.10 107 -0.3 96 -1.0 0 0 987.3 NA 0.0000 9999 2890 0 0 0
2019/06/19 01:32:00 BASE 3.58 338 7.10 107 -0.4 94 -1.2 0 0 987.3 NA 0.0000 9999 2430 0 0 0
2019/06/19 01:33:00 BASE 4.71 1 6.84 35 -0.5 94 -1.4 0 0 987.3 NA 0.0000 9999 2300 0 0 0
2019/06/19 01:34:00 BASE 4.78 5 6.84 35 -0.6 93 -1.6 0 0 987.3 NA 0.0000 9999 2360 2850 0 0
2019/06/19 01:35:00 BASE 4.65 6 6.17 7 -0.8 93 -1.7 0 0 987.4 NA 0.0000 9999 2850 0 0 0
2019/06/19 01:36:00 BASE 4.17 13 5.35 10 -0.9 93 -1.8 0 0 987.4 NA 0.0000 9999 2890 0 0 0
2019/06/19 01:37:00 BASE 3.48 13 5.35 10 -0.9 94 -1.8 0 0 987.4 NA 0.0000 9999 2950 0 0 0
2019/06/19 01:38:00 BASE 3.23 22 5.35 10 -1.0 94 -1.8 0 0 987.3 NA 0.0000 9999 0 0 0 4000
2019/06/19 01:39:00 BASE 2.97 38 5.35 10 -1.0 95 -1.8 0 0 987.3 NA 0.0000 9999 0 0 0 2260
2019/06/19 01:40:00 BASE 3.05 43 5.35 10 -1.1 95 -1.7 0 0 987.3 NA 0.0000 -SN 9000 0 0 0 1510
2019/06/19 01:41:00 BASE 2.96 51 5.35 10 -1.1 96 -1.6 0 0 987.3 NA 0.0000 -SN 4700 0 0 0 1840
2019/06/19 01:42:00 BASE 2.38 72 5.35 10 -1.1 97 -1.6 0 0 987.3 NA 0.0000 -SN BR 3100 0 0 0 1840
2019/06/19 01:43:00 BASE 1.41 98 5.14 12 -1.1 97 -1.4 0 0 987.3 NA 0.0000 -SN BR 3000 0 0 0 1670
2019/06/19 01:44:00 BASE 0.57 73 5.14 12 -1.0 98 -1.3 0 0 987.4 NA 0.0000 -SN BR 2600 360 0 0 0
2019/06/19 01:45:00 BASE 0.53 31 4.37 20 -0.9 98 -1.2 0 0 987.3 NA 0.0000 -SN BR 2900 330 0 0 0
2019/06/19 01:46:00 BASE 0.27 4 3.91 50 -0.9 98 -1.2 0 0 987.3 NA 0.0000 -SN BR 1900 0 0 0 1050
2019/06/19 01:47:00 BASE 0.00 318 3.91 50 -0.9 98 -1.2 0 0 987.3 NA 0.0000 -SN BR 1100 0 0 0 1050
2019/06/19 01:48:00 BASE 0.00 302 3.91 50 -0.9 97 -1.2 0 0 987.3 NA 0.0000 -SN BR 1000 0 0 0 1180
2019/06/19 01:49:00 BASE 0.00 303 3.91 50 -0.9 97 -1.2 0 0 987.3 NA 0.0000 -SN BR 1100 0 0 0 1570
2019/06/19 01:50:00 BASE 0.59 289 3.19 50 -0.9 97 -1.3 0 0 987.3 NA 0.0000 -SN BR 1800 0 0 0 1670
2019/06/19 01:51:00 BASE 1.57 264 2.98 92 -1.0 98 -1.3 0 0 987.3 NA 0.0000 -SN BR 2400 0 0 0 1870
2019/06/19 01:52:00 BASE 2.88 224 4.42 186 -1.0 98 -1.3 0 0 987.3 NA 0.0000 -SN BR 1900 0 0 0 2330
2019/06/19 01:53:00 BASE 4.34 195 5.20 185 -1.1 99 -1.3 0 0 987.2 NA 0.0000 -SN BR 2000 0 0 0 3220
2019/06/19 01:54:00 BASE 5.25 189 5.81 186 -1.2 99 -1.4 0 0 987.2 NA 0.0000 -SN BR 2000 0 0 0 3450
2019/06/19 01:55:00 BASE 5.64 187 5.97 188 -1.4 99 -1.4 0 0 987.2 NA 0.0000 -SN BR 1900 0 0 0 3610
2019/06/19 01:56:00 BASE 5.84 186 6.17 187 -1.5 100 -1.5 0 0 987.2 NA 0.0000 -SN BR 3100 0 0 0 3840
2019/06/19 01:57:00 BASE 5.55 186 6.17 187 -1.5 100 -1.5 0 0 987.2 NA 0.0000 -SN BR 3600 1670 0 0 0
2019/06/19 01:58:00 BASE 5.16 183 6.17 187 -1.6 100 -1.6 0 0 987.2 NA 0.0000 -SN BR 3600 2760 0 0 0
2019/06/19 01:59:00 BASE 5.37 176 6.17 187 -1.6 100 -1.6 0 0 987.2 NA 0.0000 -SN BR 4700 2890 0 0 0
2019/06/19 02:00:00 BASE 5.50 167 6.17 187 -1.6 100 -1.6 0 0 987.2 NA 0.0000 -SN BR 9000 2790 0 0 0
2019/06/19 02:01:00 BASE 5.37 169 6.17 187 -1.6 100 -1.6 0 0 987.1 NA 0.0000 -SN BR 9999 2850 0 0 0
2019/06/19 02:02:00 BASE 5.17 171 6.17 187 -1.6 100 -1.6 0 0 987.1 NA 0.0000 -SN BR 9999 3020 0 0 0
2019/06/19 02:03:00 BASE 4.43 153 6.17 187 -1.6 100 -1.6 0 0 987.2 NA 0.0000 -SN BR 9000 2920 0 0 0
2019/06/19 02:04:00 BASE 3.51 130 6.17 187 -1.6 100 -1.6 0 0 987.2 NA 0.0000 -SN BR 9999 2820 0 0 0
2019/06/19 02:05:00 BASE 3.13 123 6.17 187 -1.6 100 -1.6 0 0 987.2 NA 0.0000 -SN BR 9999 2850 0 0 0
2019/06/19 02:06:00 BASE 3.00 115 5.92 184 -1.6 100 -1.6 0 0 987.2 NA 0.0000 -SN BR 9999 2620 0 0 0
2019/06/19 02:07:00 BASE 3.02 97 5.86 160 -1.7 100 -1.7 0 0 987.2 NA 0.0000 -SN BR 9999 2490 0 0 0
2019/06/19 02:08:00 BASE 3.02 96 5.86 160 -1.7 100 -1.7 0 0 987.3 NA 0.0000 -SN 9999 2400 0 0 0
2019/06/19 02:09:00 BASE 2.77 125 5.86 160 -1.7 100 -1.7 0 0 987.2 NA 0.0000 -SN 9999 2400 0 0 0
2019/06/19 02:10:00 BASE 2.83 146 5.81 175 -1.7 100 -1.7 0 0 987.2 NA 0.0000 -SN 9999 2100 0 0 0
2019/06/19 02:11:00 BASE 2.74 147 5.61 163 -1.6 100 -1.6 0 0 987.2 NA 0.0000 -SN 9999 2070 0 0 0
2019/06/19 02:12:00 BASE 2.37 156 4.58 147 -1.6 100 -1.6 0 0 987.2 NA 0.0000 -SN 6000 980 0 0 0
2019/06/19 02:13:00 BASE 1.92 180 3.76 127 -1.6 100 -1.6 0 0 987.2 NA 0.0000 -SN 5000 620 0 0 0
2019/06/19 02:14:00 BASE 1.97 198 3.34 188 -1.6 100 -1.6 0 0 987.2 NA 0.0000 -SN 9000 590 0 0 0
2019/06/19 02:15:00 BASE 2.42 194 3.34 188 -1.6 100 -1.6 0 0 987.2 NA 0.0000 -SN 9999 490 0 0 0
2019/06/19 02:16:00 BASE 1.29 187 3.34 188 -1.5 100 -1.5 0 0 987.3 NA 0.0000 -SN BR 2600 300 0 0 0
2019/06/19 02:17:00 BASE 1.00 180 4.37 163 -1.5 100 -1.5 0 0 987.2 NA 0.0000 -SN BR 1100 0 0 0 950
2019/06/19 02:18:00 BASE 2.21 209 4.37 186 -1.5 100 -1.5 0 0 987.2 NA 0.0000 -SN BR 0900 0 0 0 1120
2019/06/19 02:19:00 BASE 2.71 236 4.37 186 -1.5 100 -1.5 0 0 987.1 NA 0.0000 -SN BR 1000 0 0 0 1280
2019/06/19 02:20:00 BASE 3.60 230 5.45 248 -1.5 100 -1.5 0 0 987.1 NA 0.0000 -SN BR 1300 0 0 0 1150
2019/06/19 02:21:00 BASE 5.16 253 9.77 289 -1.5 100 -1.5 0 0 987.0 NA 0.0000 -SN BR 1900 0 0 0 1570
2019/06/19 02:22:00 BASE 3.72 275 9.77 289 -1.4 100 -1.4 0 0 987.0 NA 0.0000 -SN BR 3200 0 0 0 2330
2019/06/19 02:23:00 BASE 2.41 262 9.77 289 -1.3 100 -1.3 0 0 987.1 NA 0.0000 -SN BR 3700 0 0 0 2170
2019/06/19 02:24:00 BASE 4.25 223 9.77 289 -1.2 100 -1.2 0 0 987.0 NA 0.0000 -SN BR 3700 0 0 0 2400
2019/06/19 02:25:00 BASE 5.04 191 9.77 289 -1.1 100 -1.1 0 0 987.0 NA 0.0000 -SN BR 2600 0 0 0 2850
2019/06/19 02:26:00 BASE 4.35 210 9.77 289 -1.1 100 -1.1 0 0 987.1 NA 0.0000 -SN BR 2400 360 0 0 0
2019/06/19 02:27:00 BASE 3.87 235 9.77 289 -1.0 100 -1.0 0 0 987.1 NA 0.0000 -SN BR 2900 430 2200 0 0
2019/06/19 02:28:00 BASE 3.59 241 9.77 289 -1.1 100 -1.1 0 0 987.1 NA 0.0000 -SN BR 3500 360 0 0 0
2019/06/19 02:29:00 BASE 2.82 301 9.77 289 -1.2 100 -1.2 0 0 987.1 NA 0.0000 -SN BR 3700 2760 0 0 0
2019/06/19 02:30:00 BASE 2.25 319 9.77 289 -1.2 100 -1.2 0 0 987.1 NA 0.0000 -SN BR 3400 2890 0 0 0
2019/06/19 02:31:00 BASE 2.84 245 6.43 158 -1.3 100 -1.3 0 0 987.1 NA 0.0000 -SN BR 3800 2820 0 0 0
2019/06/19 02:32:00 BASE 3.02 255 6.43 158 -1.3 100 -1.3 0 0 987.0 NA 0.0000 -SN BR 4500 3640 0 0 0
2019/06/19 02:33:00 BASE 2.12 260 6.43 158 -1.3 100 -1.3 0 0 987.0 NA 0.0000 -SN BR 8000 2620 0 0 0
2019/06/19 02:34:00 BASE 1.46 280 5.92 160 -1.3 100 -1.3 0 0 987.0 NA 0.0000 -SN BR 9999 3740 0 0 0
2019/06/19 02:35:00 BASE 1.41 355 5.45 208 -1.3 100 -1.3 0 0 987.1 NA 0.0000 -SN BR 9999 3810 0 0 0
2019/06/19 02:36:00 BASE 2.71 42 4.99 45 -1.3 100 -1.3 0 0 987.1 NA 0.0000 -SN BR 9999 3970 0 0 0
2019/06/19 02:37:00 BASE 3.27 45 4.99 45 -1.3 100 -1.3 0 0 987.1 NA 0.0000 -SN BR 9999 790 0 0 0
2019/06/19 02:38:00 BASE 2.38 52 4.99 45 -1.4 100 -1.4 0 0 987.1 NA 0.0000 -SN BR 9999 560 0 0 0
2019/06/19 02:39:00 BASE 1.86 67 4.99 45 -1.4 100 -1.4 0 0 987.1 NA 0.0000 -SN BR 6000 460 2890 0 0
2019/06/19 02:40:00 BASE 1.11 87 4.99 45 -1.5 100 -1.5 0 0 987.1 NA 0.0000 -SN BR 3100 2790 0 0 0
2019/06/19 02:41:00 BASE 0.21 119 4.99 45 -1.5 100 -1.5 0 0 987.1 NA 0.0000 -SN BR 1900 2590 0 0 0
2019/06/19 02:42:00 BASE 0.14 133 4.99 45 -1.5 100 -1.5 0 0 987.1 NA 0.0000 -SN BR 2000 2720 0 0 0
2019/06/19 02:43:00 BASE 0.20 143 4.99 45 -1.5 100 -1.5 0 0 987.1 NA 0.0000 -SN BR 3500 2720 0 0 0
2019/06/19 02:44:00 BASE 0.92 172 4.99 45 -1.5 100 -1.5 0 0 987.0 NA 0.0000 -SN BR 5000 2660 0 0 0
2019/06/19 02:45:00 BASE 1.96 170 4.99 45 -1.5 100 -1.5 0 0 987.0 NA 0.0000 -SN BR 9000 2590 0 0 0
2019/06/19 02:46:00 BASE 2.44 162 3.34 56 -1.5 100 -1.5 0 0 987.0 NA 0.0000 -SN BR 6000 2300 0 0 0
2019/06/19 02:47:00 BASE 3.25 155 4.99 134 -1.5 100 -1.5 0 0 987.0 NA 0.0000 -SN BR 5000 2560 0 0 0
2019/06/19 02:48:00 BASE 4.22 142 4.99 141 -1.5 100 -1.5 0 0 987.1 NA 0.0000 -SN BR 5000 2620 0 0 0
2019/06/19 02:49:00 BASE 4.81 145 6.43 159 -1.5 100 -1.5 0 0 987.1 NA 0.0000 -SN BR 3900 2790 0 0 0
2019/06/19 02:50:00 BASE 4.94 160 6.43 159 -1.6 100 -1.6 0 0 987.1 NA 0.0000 -SN BR 4500 2720 0 0 0
2019/06/19 02:51:00 BASE 4.60 166 6.43 159 -1.6 100 -1.6 0 0 987.1 NA 0.0000 -SN BR 9000 2720 0 0 0
2019/06/19 02:52:00 BASE 4.80 163 6.43 159 -1.6 100 -1.6 0 0 987.0 NA 0.0000 -SN BR 9000 2820 0 0 0
2019/06/19 02:53:00 BASE 5.12 169 6.43 159 -1.7 100 -1.7 0 0 987.0 NA 0.0000 -SN BR 8000 2720 0 0 0
2019/06/19 02:54:00 BASE 5.31 175 6.43 159 -1.7 100 -1.7 0 0 987.0 NA 0.0000 -SN BR 9999 2690 0 0 0
2019/06/19 02:55:00 BASE 5.76 177 6.43 173 -1.7 100 -1.7 0 0 987.0 NA 0.0000 -SN BR 9999 2620 0 0 0
2019/06/19 02:56:00 BASE 5.48 175 6.43 173 -1.8 100 -1.8 0 0 987.0 NA 0.0000 -SN BR 9999 2490 3280 0 0
2019/06/19 02:57:00 BASE 4.92 172 6.43 173 -1.8 100 -1.8 0 0 987.0 NA 0.0000 -SN BR 9999 2660 0 0 0
2019/06/19 02:58:00 BASE 4.89 172 6.43 173 -1.8 100 -1.8 0 0 987.0 NA 0.0000 -SN BR 9999 2890 0 0 0
2019/06/19 02:59:00 BASE 5.27 175 6.43 173 -1.8 100 -1.8 0 0 987.0 NA 0.0000 -SN 9999 2820 0 0 0
2019/06/19 03:00:00 BASE 5.23 177 6.43 173 -1.8 100 -1.8 0 0 987.0 NA 0.0000 -SN 9999 3020 0 0 0
2019/06/19 03:01:00 BASE 4.24 173 6.43 173 -1.8 100 -1.8 0 0 987.0 NA 0.0000 -SN 9999 3080 0 0 0
2019/06/19 03:02:00 BASE 3.69 160 6.43 173 -1.8 100 -1.8 0 0 987.0 NA 0.0000 -SN 9999 3280 0 0 0
2019/06/19 03:03:00 BASE 3.91 156 6.43 173 -1.8 100 -1.8 0 0 987.0 NA 0.0000 -SN 9999 3250 0 0 0
2019/06/19 03:04:00 BASE 3.86 158 6.43 173 -1.8 100 -1.8 0 0 987.0 NA 0.0000 -SN 9000 2990 0 0 0
2019/06/19 03:05:00 BASE 3.65 157 5.92 178 -1.8 100 -1.8 0 0 986.9 NA 0.0000 -SN 8000 3410 0 0 0
2019/06/19 03:06:00 BASE 3.47 159 5.76 178 -1.8 100 -1.8 0 0 986.9 NA 0.0000 -SN 9000 0 0 0 1020
2019/06/19 03:07:00 BASE 3.80 170 5.76 178 -1.8 100 -1.8 0 0 986.8 NA 0.0000 -SN 6000 2820 0 0 0
2019/06/19 03:08:00 BASE 4.71 175 5.92 179 -1.8 100 -1.8 0 0 986.8 NA 0.0000 -SN BR 5000 2760 3280 0 0
2019/06/19 03:09:00 BASE 4.90 170 6.79 178 -1.8 100 -1.8 0 0 986.8 NA 0.0000 -SN BR 7000 2690 0 0 0
2019/06/19 03:10:00 BASE 3.27 167 6.79 178 -1.7 100 -1.7 0 0 986.8 NA 0.0000 -SN BR 6000 2690 0 0 0
2019/06/19 03:11:00 BASE 1.88 153 6.79 178 -1.6 100 -1.6 0 0 986.8 NA 0.0000 -SN BR 9000 2590 0 0 0
2019/06/19 03:12:00 BASE 2.46 140 6.79 178 -1.6 100 -1.6 0 0 986.8 NA 0.0000 -SN BR 9999 2720 0 0 0
2019/06/19 03:13:00 BASE 3.58 152 6.79 178 -1.5 100 -1.5 0 0 986.8 NA 0.0000 -SN BR 9999 2820 0 0 0
2019/06/19 03:14:00 BASE 4.10 164 6.79 178 -1.6 100 -1.6 0 0 986.8 NA 0.0000 -SN BR 8000 2720 0 0 0
2019/06/19 03:15:00 BASE 3.69 171 6.79 178 -1.6 100 -1.6 0 0 986.8 NA 0.0000 -SN BR 7000 2620 0 0 0
2019/06/19 03:16:00 BASE 3.84 193 6.79 178 -1.7 100 -1.7 0 0 986.8 NA 0.0000 -SN BR 9999 2850 0 0 0
2019/06/19 03:17:00 BASE 4.54 223 6.79 178 -1.8 100 -1.8 0 0 986.7 NA 0.0000 -SN BR 9999 2690 0 0 0
2019/06/19 03:18:00 BASE 4.74 258 6.79 178 -1.8 100 -1.8 0 0 986.8 NA 0.0000 -SN BR 9999 2850 0 0 0
2019/06/19 03:19:00 BASE 2.88 273 6.22 287 -1.7 100 -1.7 0 0 986.8 NA 0.0000 -SN 9999 2660 0 0 0
2019/06/19 03:20:00 BASE 0.85 336 6.22 287 -1.6 100 -1.6 0 0 986.8 NA 0.0000 -SN 9999 2760 0 0 0
2019/06/19 03:21:00 BASE 1.54 112 6.22 287 -1.6 100 -1.6 0 0 986.8 NA 0.0000 -SN 9999 1670 2590 0 0
2019/06/19 03:22:00 BASE 1.91 145 6.22 287 -1.6 100 -1.6 0 0 986.8 NA 0.0000 -SN 9999 2720 0 0 0
2019/06/19 03:23:00 BASE 2.30 150 6.22 287 -1.6 100 -1.6 0 0 986.8 NA 0.0000 -SN 9999 2690 0 0 0
2019/06/19 03:24:00 BASE 3.46 152 6.22 287 -1.7 100 -1.7 0 0 986.8 NA 0.0000 -SN 9999 2400 0 0 0
2019/06/19 03:25:00 BASE 3.93 157 6.22 287 -1.8 100 -1.8 0 0 986.8 NA 0.0000 -SN 9999 2620 0 0 0
2019/06/19 03:26:00 BASE 3.81 159 6.22 287 -1.8 100 -1.8 0 0 986.8 NA 0.0000 9999 1540 2760 0 0
2019/06/19 03:27:00 BASE 3.65 175 6.22 287 -1.9 100 -1.9 0 0 986.8 NA 0.0000 -SN 9999 1510 0 0 0
2019/06/19 03:28:00 BASE 3.48 174 4.78 169 -1.8 100 -1.8 0 0 986.8 NA 0.0000 -SN 9999 1570 2590 0 0
2019/06/19 03:29:00 BASE 3.02 136 4.78 169 -1.8 100 -1.8 0 0 986.8 NA 0.0000 -SN 9999 2620 0 0 0
2019/06/19 03:30:00 BASE 2.95 111 4.78 169 -1.7 100 -1.7 0 0 986.8 NA 0.0000 -SN 9999 2590 0 0 0
2019/06/19 03:31:00 BASE 3.00 110 4.78 169 -1.7 100 -1.7 0 0 986.8 NA 0.0000 -SN 9999 1710 2620 0 0
2019/06/19 03:32:00 BASE 2.55 109 4.78 169 -1.6 100 -1.6 0 0 986.8 NA 0.0000 -SN 9999 1540 2030 2720 0
2019/06/19 03:33:00 BASE 1.90 78 4.78 169 -1.5 100 -1.5 0 0 986.8 NA 0.0000 -SN 9999 1710 2560 0 0
2019/06/19 03:34:00 BASE 1.07 12 4.78 169 -1.4 100 -1.4 0 0 986.8 NA 0.0000 -SN 9999 2660 0 0 0
2019/06/19 03:35:00 BASE 0.97 270 4.78 169 -1.3 100 -1.3 0 0 986.7 NA 0.0000 -SN 9999 3050 0 0 0
2019/06/19 03:36:00 BASE 2.31 275 4.78 169 -1.2 100 -1.2 0 0 986.7 NA 0.0000 -SN 9999 6140 0 0 0
2019/06/19 03:37:00 BASE 4.24 332 7.05 354 -1.1 100 -1.1 0 0 986.7 NA 0.0000 -SN 9999 2990 5810 0 0
2019/06/19 03:38:00 BASE 5.83 346 7.92 354 -1.0 100 -1.0 0 0 986.7 NA 0.0000 -SN 9999 5740 0 0 0
2019/06/19 03:39:00 BASE 6.93 351 8.23 350 -1.0 100 -1.0 0 0 986.7 NA 0.0000 -SN 9999 6300 0 0 0
2019/06/19 03:40:00 BASE 6.07 351 8.23 350 -1.0 100 -1.0 0 0 986.7 NA 0.0000 -SN 9999 6170 0 0 0
2019/06/19 03:41:00 BASE 6.21 338 13.27 331 -0.9 100 -0.9 0 0 986.7 NA 0.0000 9999 6070 0 0 0
2019/06/19 03:42:00 BASE 7.09 328 13.27 331 -0.8 100 -0.8 0 0 986.7 NA 0.0000 9999 2760 4760 0 0
2019/06/19 03:43:00 BASE 5.87 328 13.27 331 -0.8 100 -0.8 0 0 986.7 NA 0.0000 9999 2490 4820 0 0
2019/06/19 03:44:00 BASE 5.11 332 13.27 331 -0.7 100 -0.7 0 0 986.7 NA 0.0000 9999 2530 0 0 0
2019/06/19 03:45:00 BASE 4.60 5 13.27 331 -0.7 100 -0.7 0 0 986.7 NA 0.0000 9999 2530 0 0 0
2019/06/19 03:46:00 BASE 4.94 11 13.27 331 -0.7 100 -0.7 0 0 986.7 NA 0.0000 9999 2620 0 0 0
2019/06/19 03:47:00 BASE 5.98 342 13.27 331 -0.7 100 -0.7 0 0 986.7 NA 0.0000 9999 2760 0 0 0
2019/06/19 03:48:00 BASE 5.54 351 13.27 331 -0.6 100 -0.6 0 0 986.7 NA 0.0000 9999 2760 0 0 0
2019/06/19 03:49:00 BASE 4.61 358 13.27 331 -0.6 100 -0.6 0 0 986.7 NA 0.0000 9999 2760 0 0 0
2019/06/19 03:50:00 BASE 6.32 359 13.27 331 -0.6 100 -0.6 0 0 986.7 NA 0.0000 9999 2990 6270 0 0
2019/06/19 03:51:00 BASE 5.60 356 10.03 3 -0.5 100 -0.5 0 0 986.7 NA 0.0000 9999 3050 0 0 0
2019/06/19 03:52:00 BASE 2.66 337 10.03 3 -0.5 100 -0.5 0 0 986.7 NA 0.0000 9999 2920 0 0 0
2019/06/19 03:53:00 BASE 3.45 326 10.03 3 -0.4 100 -0.4 0 0 986.7 NA 0.0000 9999 3020 0 0 0
2019/06/19 03:54:00 BASE 5.14 322 10.03 3 -0.4 100 -0.4 0 0 986.7 NA 0.0000 9999 3770 7250 0 0
2019/06/19 03:55:00 BASE 6.07 316 10.03 3 -0.4 100 -0.4 0 0 986.7 NA 0.0000 9999 7190 0 0 0
2019/06/19 03:56:00 BASE 5.08 277 10.03 3 -0.4 99 -0.4 0 0 986.7 NA 0.0000 9999 1610 2590 0 0
2019/06/19 03:57:00 BASE 2.77 232 10.03 3 -0.3 99 -0.5 0 0 986.7 NA 0.0000 9999 2720 0 0 0
2019/06/19 03:58:00 BASE 3.22 246 10.03 3 -0.3 98 -0.6 0 0 986.7 NA 0.0000 9999 2720 4000 0 0
2019/06/19 03:59:00 BASE 5.11 319 10.03 3 -0.3 97 -0.8 0 0 986.7 NA 0.0000 9999 0 0 0 0
2019/06/19 04:00:00 BASE 5.34 360 8.13 323 -0.4 96 -0.9 0 0 986.8 NA 0.0000 9999 0 0 0 0
2019/06/19 04:01:00 BASE 4.86 335 8.13 323 -0.5 96 -1.1 0 0 986.7 NA 0.0000 9999 2890 0 0 0
2019/06/19 04:02:00 BASE 4.14 299 8.13 323 -0.5 96 -1.1 0 0 986.7 NA 0.0000 9999 1440 2920 0 0
2019/06/19 04:03:00 BASE 3.97 277 8.13 323 -0.5 96 -1.1 0 0 986.7 NA 0.0000 9999 1770 3020 0 0
2019/06/19 04:04:00 BASE 4.07 300 8.13 323 -0.5 96 -1.2 0 0 986.8 NA 0.0000 9999 1840 3020 0 0
2019/06/19 04:06:00 BASE 1.87 25 6.94 7 -0.6 96 -1.2 0 0 986.8 NA 0.0000 9999 2990 0 0 0
2019/06/19 04:07:00 BASE 0.47 35 6.94 7 -0.6 96 -1.2 0 0 986.7 NA 0.0000 9999 1740 3020 0 0
2019/06/19 04:08:00 BASE 0.00 45 6.94 7 -0.7 96 -1.3 0 0 986.7 NA 0.0000 9999 3150 0 0 0
2019/06/19 04:09:00 BASE 0.40 29 6.94 7 -0.8 96 -1.4 0 0 986.7 NA 0.0000 9999 3380 0 0 0
2019/06/19 04:10:00 BASE 0.40 359 6.17 309 -0.9 96 -1.4 0 0 986.7 NA 0.0000 9999 3870 0 0 0
2019/06/19 04:11:00 BASE 0.00 360 5.14 263 -0.8 96 -1.3 0 0 986.7 NA 0.0000 9999 4040 0 0 0
2019/06/19 04:12:00 BASE 0.00 127 5.14 263 -0.8 97 -1.3 0 0 986.7 NA 0.0000 9999 4170 0 0 0
2019/06/19 04:13:00 BASE 0.00 160 5.14 263 -0.8 97 -1.3 0 0 986.7 NA 0.0000 9999 1870 3450 0 0
2019/06/19 04:14:00 BASE 0.35 168 3.91 2 -0.8 97 -1.3 0 0 986.8 NA 0.0000 9999 3380 0 0 0
2019/06/19 04:15:00 BASE 1.51 163 2.88 144 -0.8 96 -1.3 0 0 986.8 NA 0.0000 9999 3670 0 0 0
2019/06/19 04:16:00 BASE 2.75 155 4.12 140 -0.9 96 -1.4 0 0 986.7 NA 0.0000 9999 3710 0 0 0
2019/06/19 04:17:00 BASE 3.35 149 4.12 140 -1.0 96 -1.6 0 0 986.7 NA 0.0000 9999 3540 0 0 0
2019/06/19 04:18:00 BASE 3.70 152 5.14 145 -1.1 96 -1.7 0 0 986.7 NA 0.0000 9999 3710 0 0 0
2019/06/19 04:19:00 BASE 4.23 154 5.14 145 -1.2 96 -1.8 0 0 986.7 NA 0.0000 9999 3350 0 0 0
2019/06/19 04:20:00 BASE 5.19 157 7.00 152 -1.3 96 -1.9 0 0 986.7 NA 0.2540 9999 3310 0 0 0
2019/06/19 04:21:00 BASE 5.76 153 7.00 152 -1.5 96 -2.0 0 0 986.7 NA 0.0000 9999 3280 0 0 0
2019/06/19 04:22:00 BASE 5.39 123 8.28 109 -1.5 96 -2.0 0 0 986.7 NA 0.0000 9999 3310 4070 0 0
2019/06/19 04:23:00 BASE 6.90 107 9.36 123 -1.6 97 -2.0 0 0 986.8 NA 0.0000 9999 3310 0 0 0
2019/06/19 04:24:00 BASE 8.24 123 9.36 123 -1.7 97 -2.0 0 0 986.8 NA 0.0000 9999 3350 0 0 0
2019/06/19 04:25:00 BASE 7.20 131 9.36 123 -1.7 98 -2.0 0 0 986.8 NA 0.0000 9999 3480 0 0 0
2019/06/19 04:26:00 BASE 6.48 131 9.36 123 -1.8 98 -2.0 0 0 986.8 NA 0.0000 9999 3740 0 0 0
2019/06/19 04:27:00 BASE 5.92 132 9.36 123 -1.8 98 -2.0 0 0 986.7 NA 0.0000 9999 4130 0 0 0
2019/06/19 04:28:00 BASE 5.42 130 9.36 123 -1.8 99 -2.0 0 0 986.8 NA 0.0000 9999 3710 0 0 0
2019/06/19 04:29:00 BASE 5.39 118 9.36 123 -1.8 99 -2.0 0 0 986.8 NA 0.0000 9999 3310 0 0 0
2019/06/19 04:30:00 BASE 4.79 117 9.36 123 -1.8 99 -1.9 0 0 986.8 NA 0.0000 9999 4820 0 0 0
2019/06/19 04:31:00 BASE 4.69 137 9.36 123 -1.8 99 -1.9 0 0 986.7 NA 0.0000 9999 4100 0 0 0
2019/06/19 04:32:00 BASE 5.95 153 9.36 123 -1.9 100 -1.9 0 0 986.8 NA 0.0000 9999 4100 0 0 0
2019/06/19 04:33:00 BASE 6.70 157 8.69 124 -1.9 100 -1.9 0 0 986.7 NA 0.0000 9999 4070 0 0 0
2019/06/19 04:34:00 BASE 5.45 154 7.61 152 -1.9 100 -1.9 0 0 986.7 NA 0.0000 9999 4040 0 0 0
2019/06/19 04:35:00 BASE 4.22 148 7.61 152 -1.9 100 -1.9 0 0 986.7 NA 0.0000 9999 3770 0 0 0
2019/06/19 04:36:00 BASE 4.31 149 7.61 152 -1.8 100 -1.8 0 0 986.8 NA 0.0000 9999 1940 4200 5640 0
2019/06/19 04:37:00 BASE 4.38 160 7.61 152 -1.8 100 -1.8 0 0 986.7 NA 0.0000 9999 3940 5380 0 0
2019/06/19 04:38:00 BASE 3.75 166 7.61 152 -1.7 100 -1.7 0 0 986.7 NA 0.0000 9999 1970 4070 0 0
2019/06/19 04:39:00 BASE 4.69 142 8.08 125 -1.7 100 -1.7 0 0 986.7 NA 0.0000 9999 1970 4170 0 0
2019/06/19 04:40:00 BASE 6.70 139 8.08 125 -1.8 100 -1.8 0 0 986.7 NA 0.0000 9999 4000 0 0 0
2019/06/19 04:41:00 BASE 6.21 140 8.08 125 -1.8 100 -1.8 0 0 986.7 NA 0.0000 9999 4040 0 0 0
2019/06/19 04:42:00 BASE 5.79 111 8.08 125 -1.8 100 -1.8 0 0 986.7 NA 0.0000 9999 4130 0 0 0
2019/06/19 04:43:00 BASE 5.44 120 8.08 125 -1.8 100 -1.8 0 0 986.6 NA 0.0000 9999 4230 0 0 0
2019/06/19 04:44:00 BASE 6.32 149 9.05 155 -1.8 100 -1.8 0 0 986.6 NA 0.0000 9999 4360 0 0 0
2019/06/19 04:45:00 BASE 7.53 150 9.05 155 -1.9 100 -1.9 0 0 986.6 NA 0.0000 9999 4460 0 0 0
2019/06/19 04:46:00 BASE 6.49 140 9.05 155 -1.9 100 -1.9 0 0 986.6 NA 0.0000 9999 4560 0 0 0
2019/06/19 04:47:00 BASE 5.13 113 9.05 155 -1.9 100 -1.9 0 0 986.6 NA 0.0000 9999 4630 0 0 0
2019/06/19 04:48:00 BASE 4.60 79 9.05 155 -1.9 100 -1.9 0 0 986.6 NA 0.0000 9999 4630 0 0 0
2019/06/19 04:49:00 BASE 5.46 60 9.05 155 -1.9 100 -1.9 0 0 986.6 NA 0.0000 9999 4630 0 0 0
2019/06/19 04:50:00 BASE 5.31 54 9.05 155 -1.9 100 -1.9 0 0 986.6 NA 0.0000 9999 4690 0 0 0
2019/06/19 04:51:00 BASE 3.78 57 9.05 155 -1.8 100 -1.8 0 0 986.6 NA 0.0000 9999 4690 0 0 0
2019/06/19 04:52:00 BASE 2.16 58 9.05 155 -1.8 100 -1.8 0 0 986.6 NA 0.0000 9999 4630 0 0 0
2019/06/19 04:53:00 BASE 0.92 76 9.05 155 -1.7 100 -1.7 0 0 986.6 NA 0.0000 9999 4560 0 0 0
2019/06/19 04:54:00 BASE 2.29 132 8.03 113 -1.6 100 -1.6 0 0 986.6 NA 0.0000 9999 4490 0 0 0
2019/06/19 04:55:00 BASE 4.55 168 8.03 113 -1.6 100 -1.6 0 0 986.6 NA 0.0000 9999 4430 0 0 0
2019/06/19 04:56:00 BASE 5.58 174 6.58 62 -1.6 100 -1.6 0 0 986.6 NA 0.0000 9999 4360 0 0 0
2019/06/19 04:57:00 BASE 5.99 173 6.58 62 -1.6 100 -1.6 0 0 986.6 NA 0.0000 9999 4330 0 0 0
2019/06/19 04:58:00 BASE 5.53 171 6.58 62 -1.7 100 -1.7 0 0 986.6 NA 0.0000 9999 4270 0 0 0
2019/06/19 04:59:00 BASE 5.01 162 6.48 165 -1.8 100 -1.8 0 0 986.6 NA 0.0000 9999 4270 0 0 0
2019/06/19 05:00:00 BASE 4.48 156 6.48 165 -1.8 100 -1.8 0 0 986.6 NA 0.0000 9999 4270 0 0 0
2019/06/19 05:01:00 BASE 4.16 148 6.48 165 -1.8 100 -1.8 0 0 986.6 NA 0.0000 9999 4330 0 0 0
2019/06/19 05:02:00 BASE 5.01 124 7.25 121 -1.8 100 -1.8 0 0 986.6 NA 0.0000 9999 4560 6140 0 0
2019/06/19 05:03:00 BASE 4.88 108 7.25 121 -1.9 100 -1.9 0 0 986.6 NA 0.0000 9999 5910 0 0 0
2019/06/19 05:04:00 BASE 4.51 124 7.25 121 -1.9 100 -1.9 0 0 986.6 NA 0.0000 9999 4200 0 0 0
2019/06/19 05:05:00 BASE 6.13 148 8.39 152 -1.9 100 -1.9 0 0 986.5 NA 0.0000 9999 4360 0 0 0
2019/06/19 05:06:00 BASE 6.90 160 8.39 152 -2.0 100 -2.0 0 0 986.5 NA 0.0000 9999 4270 6000 0 0
2019/06/19 05:07:00 BASE 6.68 159 8.39 152 -2.0 100 -2.0 0 0 986.5 NA 0.0000 9999 4070 6000 0 0
2019/06/19 05:08:00 BASE 6.09 158 8.39 152 -1.9 100 -1.9 0 0 986.4 NA 0.0000 9999 4040 0 0 0
2019/06/19 05:09:00 BASE 5.64 152 8.39 152 -1.9 100 -1.9 0 0 986.5 NA 0.0000 9999 4170 6040 0 0
2019/06/19 05:10:00 BASE 5.40 127 8.39 152 -1.8 100 -1.8 0 0 986.5 NA 0.0000 9999 4100 0 0 0
2019/06/19 05:11:00 BASE 5.83 119 8.44 128 -1.8 100 -1.8 0 0 986.4 NA 0.0000 9999 4330 6070 0 0
2019/06/19 05:12:00 BASE 7.58 124 9.26 128 -1.8 100 -1.8 0 0 986.5 NA 0.0000 9999 6070 0 0 0
2019/06/19 05:13:00 BASE 8.28 120 9.26 128 -1.9 100 -1.9 0 0 986.5 NA 0.0000 9999 6070 0 0 0
2019/06/19 05:14:00 BASE 7.18 113 9.26 128 -1.9 100 -1.9 0 0 986.5 NA 0.0000 9999 6070 0 0 0
2019/06/19 05:15:00 BASE 6.32 108 9.26 128 -2.0 100 -2.0 0 0 986.4 NA 0.0000 9999 6000 0 0 0
2019/06/19 05:16:00 BASE 7.30 112 9.26 128 -2.0 100 -2.0 0 0 986.4 NA 0.0000 9999 5970 0 0 0
2019/06/19 05:17:00 BASE 7.77 124 9.26 128 -2.1 100 -2.1 0 0 986.4 NA 0.0000 9999 6040 0 0 0
2019/06/19 05:18:00 BASE 7.34 127 9.26 128 -2.1 100 -2.1 0 0 986.4 NA 0.0000 9999 6140 0 0 0
2019/06/19 05:19:00 BASE 7.54 117 9.47 107 -2.1 100 -2.1 0 0 986.4 NA 0.0000 9999 5640 0 0 0
2019/06/19 05:20:00 BASE 7.22 119 9.62 113 -2.1 100 -2.1 0 0 986.3 NA 0.0000 9999 5940 0 0 0
2019/06/19 05:21:00 BASE 8.29 107 13.48 59 -2.0 100 -2.0 0 0 986.3 NA 0.0000 9999 5970 0 0 0
2019/06/19 05:22:00 BASE 10.32 97 13.48 59 -2.0 100 -2.0 0 0 986.3 NA 0.0000 9999 6230 6990 0 0
2019/06/19 05:23:00 BASE 9.58 93 13.48 59 -1.9 100 -1.9 0 0 986.2 NA 0.0000 9999 6300 6960 0 0
2019/06/19 05:24:00 BASE 9.61 85 13.94 46 -1.8 100 -1.8 0 0 986.4 NA 0.0000 9999 6270 6920 0 0
2019/06/19 05:25:00 BASE 9.97 94 13.94 46 -1.7 100 -1.7 0 0 986.4 NA 0.0000 9999 6400 6990 0 0
2019/06/19 05:26:00 BASE 7.12 98 13.94 46 -1.5 100 -1.6 0 0 986.2 NA 0.0000 9999 6370 0 0 0
2019/06/19 05:27:00 BASE 5.95 137 13.94 46 -1.4 99 -1.5 0 0 986.2 NA 0.0000 9999 5050 6370 0 0
2019/06/19 05:28:00 BASE 6.40 134 13.94 46 -1.3 98 -1.5 0 0 986.3 NA 0.0000 9999 6300 0 0 0
2019/06/19 05:29:00 BASE 6.52 97 13.94 46 -1.2 97 -1.6 0 0 986.2 NA 0.0000 9999 6370 0 0 0
2019/06/19 05:30:00 BASE 7.92 91 13.94 46 -1.2 97 -1.7 0 0 986.3 NA 0.0000 9999 6330 0 0 0
2019/06/19 05:31:00 BASE 8.43 86 13.94 46 -1.2 96 -1.7 0 0 986.2 NA 0.0000 9999 5280 6300 0 0
2019/06/19 05:32:00 BASE 6.63 105 13.94 46 -1.1 95 -1.8 0 0 986.3 NA 0.0000 9999 5150 0 0 0
2019/06/19 05:33:00 BASE 4.82 131 13.94 46 -1.1 95 -1.8 0 0 986.3 NA 0.0000 9999 5580 6140 0 0
2019/06/19 05:34:00 BASE 4.87 117 12.86 66 -1.0 94 -1.9 0 0 986.3 NA 0.0000 9999 5580 0 0 0
2019/06/19 05:35:00 BASE 4.71 89 12.86 66 -1.0 94 -1.9 0 0 986.2 NA 0.0000 9999 5220 0 0 0
2019/06/19 05:36:00 BASE 5.11 96 12.86 66 -0.9 93 -1.9 0 0 986.3 NA 0.0000 9999 5120 5870 0 0
2019/06/19 05:37:00 BASE 4.43 138 12.86 66 -0.9 93 -1.9 0 0 986.2 NA 0.0000 9999 5380 6000 0 0
2019/06/19 05:38:00 BASE 3.29 109 12.86 66 -0.8 92 -1.9 0 0 986.3 NA 0.0000 9999 5220 0 0 0
2019/06/19 05:39:00 BASE 5.35 112 12.86 66 -0.7 92 -1.9 0 0 986.3 NA 0.0000 9999 5220 0 0 0
2019/06/19 05:40:00 BASE 6.15 115 12.86 66 -0.8 91 -2.0 0 0 986.3 NA 0.0000 9999 5180 0 0 0
2019/06/19 05:41:00 BASE 5.09 115 9.83 120 -0.8 91 -2.1 0 0 986.3 NA 0.0000 9999 5150 0 0 0
2019/06/19 05:42:00 BASE 4.55 137 9.83 120 -0.8 90 -2.2 0 0 986.2 NA 0.0000 9999 5090 0 0 0
2019/06/19 05:43:00 BASE 5.09 117 9.83 120 -0.9 90 -2.3 0 0 986.3 NA 0.0000 9999 5020 0 0 0
2019/06/19 05:44:00 BASE 4.30 110 9.83 120 -0.9 90 -2.3 0 0 986.2 NA 0.0000 9999 5150 0 0 0
2019/06/19 05:45:00 BASE 4.61 117 9.83 120 -0.8 90 -2.3 0 0 986.3 NA 0.0000 9999 5120 0 0 0
2019/06/19 05:46:00 BASE 6.08 115 8.85 117 -0.8 89 -2.3 0 0 986.3 NA 0.0000 9999 5220 0 0 0
2019/06/19 05:47:00 BASE 5.83 64 8.85 117 -0.7 89 -2.3 0 0 986.1 NA 0.0000 9999 5220 0 0 0
2019/06/19 05:48:00 BASE 5.19 18 8.85 117 -0.7 88 -2.4 0 0 986.1 NA 0.0000 9999 5180 0 0 0
2019/06/19 05:49:00 BASE 3.96 50 8.85 117 -0.6 88 -2.4 0 0 986.1 NA 0.0000 9999 5280 0 0 0
2019/06/19 05:50:00 BASE 5.19 124 8.85 117 -0.6 87 -2.5 0 0 986.1 NA 0.0000 9999 5180 0 0 0
2019/06/19 05:51:00 BASE 6.26 163 8.85 117 -0.7 87 -2.6 0 0 986.1 NA 0.0000 9999 5120 0 0 0
2019/06/19 05:52:00 BASE 5.80 184 8.85 117 -0.8 87 -2.7 0 0 986.1 NA 0.0000 9999 5150 0 0 0
2019/06/19 05:53:00 BASE 5.84 192 8.85 117 -0.9 87 -2.7 0 0 986.1 NA 0.0000 9999 5020 0 0 0
2019/06/19 05:54:00 BASE 5.45 189 8.85 117 -0.9 88 -2.7 0 0 986.0 NA 0.0000 9999 2720 5120 0 0
2019/06/19 05:55:00 BASE 5.34 202 8.75 321 -1.0 89 -2.6 0 0 986.0 NA 0.0000 9999 5280 0 0 0
2019/06/19 05:56:00 BASE 4.86 205 8.75 321 -0.9 90 -2.4 0 0 986.0 NA 0.0000 9999 5250 0 0 0
2019/06/19 05:57:00 BASE 4.36 189 7.77 144 -0.9 90 -2.3 0 0 986.0 NA 0.0000 9999 5250 0 0 0
2019/06/19 05:58:00 BASE 4.39 178 7.77 144 -0.8 90 -2.2 0 0 986.0 NA 0.0000 9999 5120 0 0 0
2019/06/19 05:59:00 BASE 4.29 162 7.77 144 -0.8 90 -2.2 0 0 986.1 NA 0.0000 9999 5320 0 0 0
2019/06/19 06:00:00 BASE 4.07 152 7.05 223 -0.9 90 -2.3 0 0 986.1 NA 0.0000 9999 3450 5250 0 0
2019/06/19 06:01:00 BASE 3.96 154 7.05 223 -1.0 90 -2.4 0 0 986.2 NA 0.0000 9999 3410 5320 0 0
2019/06/19 06:02:00 BASE 4.67 158 7.05 223 -1.1 91 -2.4 0 0 986.1 NA 0.0000 9999 3480 5480 0 0
2019/06/19 06:03:00 BASE 5.36 157 7.05 223 -1.1 92 -2.3 0 0 986.0 NA 0.0000 9999 3540 5480 0 0
2019/06/19 06:04:00 BASE 5.03 150 7.05 223 -1.2 93 -2.2 0 0 986.1 NA 0.0000 9999 2760 5640 0 0
2019/06/19 06:05:00 BASE 4.78 142 6.28 163 -1.2 94 -2.1 0 0 986.1 NA 0.0000 9999 2660 0 0 0
2019/06/19 06:06:00 BASE 4.53 136 6.28 163 -1.2 95 -1.9 0 0 986.1 NA 0.0000 9999 2790 0 0 0
2019/06/19 06:07:00 BASE 4.22 139 6.28 163 -1.2 95 -1.9 0 0 986.1 NA 0.0000 9999 3410 0 0 0
2019/06/19 06:08:00 BASE 4.88 148 6.43 150 -1.3 96 -1.9 0 0 986.1 NA 0.0000 9999 2790 3540 0 0
2019/06/19 06:09:00 BASE 6.22 153 7.41 156 -1.4 96 -1.9 0 0 986.0 NA 0.0000 9999 3540 6040 0 0
2019/06/19 06:10:00 BASE 6.63 152 7.41 156 -1.4 97 -1.8 0 0 986.0 NA 0.0000 9999 5910 0 0 0
2019/06/19 06:11:00 BASE 5.75 147 7.41 156 -1.5 97 -1.8 0 0 986.1 NA 0.0000 9999 3670 5940 0 0
2019/06/19 06:12:00 BASE 4.92 137 7.41 156 -1.5 98 -1.8 0 0 986.1 NA 0.0000 9999 2760 5320 0 0
2019/06/19 06:13:00 BASE 4.40 128 7.41 156 -1.6 98 -1.8 0 0 986.0 NA 0.0000 9999 2790 0 0 0
2019/06/19 06:14:00 BASE 3.97 131 7.41 156 -1.6 99 -1.8 0 0 986.0 NA 0.0000 9999 2890 5740 0 0
2019/06/19 06:15:00 BASE 3.40 133 7.41 156 -1.6 99 -1.7 0 0 986.0 NA 0.0000 9999 3610 0 0 0
2019/06/19 06:16:00 BASE 2.90 123 7.41 156 -1.6 99 -1.7 0 0 986.0 NA 0.0000 9999 4760 5280 0 0
2019/06/19 06:17:00 BASE 2.53 117 7.41 156 -1.6 100 -1.6 0 0 986.0 NA 0.0000 9999 2760 4820 0 0
2019/06/19 06:18:00 BASE 2.51 112 7.41 156 -1.6 100 -1.6 0 0 986.0 NA 0.0000 9999 2820 3710 0 0
2019/06/19 06:19:00 BASE 2.70 100 6.79 150 -1.6 100 -1.6 0 0 986.0 NA 0.0000 9999 2790 3670 0 0
2019/06/19 06:20:00 BASE 3.06 90 6.02 146 -1.6 100 -1.6 0 0 986.0 NA 0.0000 9999 2720 3670 0 0
2019/06/19 06:21:00 BASE 3.41 90 5.04 130 -1.6 100 -1.6 0 0 986.0 NA 0.0000 9999 3640 0 0 0
2019/06/19 06:22:00 BASE 2.90 91 5.04 130 -1.6 100 -1.6 0 0 986.0 NA 0.0000 9999 2820 3710 5940 0
2019/06/19 06:23:00 BASE 3.07 85 4.89 115 -1.6 100 -1.6 0 0 986.0 NA 0.0000 9999 5770 0 0 0
2019/06/19 06:24:00 BASE 3.94 86 4.99 95 -1.6 100 -1.6 0 0 986.0 NA 0.0000 9999 2820 5770 0 0
2019/06/19 06:25:00 BASE 5.14 93 6.94 92 -1.6 99 -1.7 0 0 986.0 NA 0.0000 9999 2850 5870 0 0
2019/06/19 06:26:00 BASE 6.45 95 7.25 96 -1.6 99 -1.8 0 0 986.0 NA 0.0000 9999 2490 0 0 0
2019/06/19 06:27:00 BASE 6.42 100 7.25 96 -1.7 99 -1.9 0 0 986.0 NA 0.0000 9999 2850 0 0 0
2019/06/19 06:28:00 BASE 5.36 104 7.25 96 -1.7 99 -1.9 0 0 986.0 NA 0.0000 9999 3610 5910 0 0
2019/06/19 06:29:00 BASE 4.32 102 7.25 96 -1.7 99 -1.9 0 0 986.0 NA 0.0000 9999 2790 5910 0 0
2019/06/19 06:30:00 BASE 3.48 99 7.25 96 -1.6 99 -1.7 0 0 986.0 NA 0.0000 9999 2850 0 0 0
2019/06/19 06:31:00 BASE 2.45 95 7.25 96 -1.5 99 -1.7 0 0 986.0 NA 0.0000 9999 2850 0 0 0
2019/06/19 06:32:00 BASE 2.00 84 7.25 96 -1.4 98 -1.6 0 0 986.0 NA 0.0000 9999 2790 0 0 0
2019/06/19 06:33:00 BASE 2.39 75 7.25 96 -1.3 98 -1.6 0 0 986.0 NA 0.0000 9999 2850 3770 6140 0
2019/06/19 06:34:00 BASE 3.07 73 7.25 96 -1.3 97 -1.7 0 0 986.0 NA 0.0000 9999 2790 6170 0 0
2019/06/19 06:35:00 BASE 3.64 76 7.25 96 -1.3 96 -1.9 0 0 985.9 NA 0.0000 9999 2890 0 0 0
2019/06/19 06:36:00 BASE 3.51 79 6.28 105 -1.3 95 -2.0 0 0 985.9 NA 0.0000 9999 2950 3610 6230 0
2019/06/19 06:37:00 BASE 3.17 81 6.12 109 -1.3 95 -2.1 0 0 985.9 NA 0.0000 9999 6300 0 0 0
2019/06/19 06:38:00 BASE 3.39 89 4.48 104 -1.3 94 -2.2 0 0 985.9 NA 0.0000 9999 2950 6500 0 0
2019/06/19 06:39:00 BASE 3.49 91 4.22 101 -1.4 94 -2.3 0 0 985.9 NA 0.0000 9999 2990 6500 0 0
2019/06/19 06:40:00 BASE 2.99 86 4.22 101 -1.4 93 -2.3 0 0 985.9 NA 0.0000 9999 6500 0 0 0
2019/06/19 06:41:00 BASE 2.11 81 4.22 101 -1.4 93 -2.4 0 0 985.9 NA 0.0000 9999 2950 6500 0 0
2019/06/19 06:42:00 BASE 1.28 77 4.22 101 -1.5 93 -2.4 0 0 985.9 NA 0.0000 9999 3050 6500 0 0
2019/06/19 06:43:00 BASE 0.48 71 4.22 101 -1.4 93 -2.4 0 0 985.9 NA 0.0000 9999 6170 0 0 0
2019/06/19 06:44:00 BASE 0.32 100 4.22 101 -1.4 93 -2.4 0 0 986.0 NA 0.0000 9999 6330 0 0 0
2019/06/19 06:45:00 BASE 0.99 203 4.22 101 -1.4 93 -2.4 0 0 986.0 NA 0.0000 9999 3020 6400 0 0
2019/06/19 06:46:00 BASE 1.32 207 4.22 101 -1.4 92 -2.4 0 0 986.0 NA 0.0000 9999 2920 0 0 0
2019/06/19 06:47:00 BASE 1.41 178 4.22 101 -1.4 92 -2.5 0 0 986.0 NA 0.0000 9999 6200 0 0 0
2019/06/19 06:48:00 BASE 0.88 160 3.55 90 -1.5 92 -2.6 0 0 986.0 NA 0.0000 9999 6270 0 0 0
2019/06/19 06:49:00 BASE 0.12 158 3.24 88 -1.5 92 -2.6 0 0 986.0 NA 0.0000 9999 6400 0 0 0
2019/06/19 06:50:00 BASE 0.00 189 2.06 77 -1.5 92 -2.6 0 0 986.0 NA 0.0000 9999 6430 0 0 0
2019/06/19 06:51:00 BASE 0.00 232 1.85 152 -1.5 92 -2.6 0 0 986.0 NA 0.0000 9999 6270 0 0 0
2019/06/19 06:52:00 BASE 0.33 215 1.85 152 -1.5 92 -2.6 0 0 986.0 NA 0.0000 9999 6140 0 0 0
2019/06/19 06:53:00 BASE 1.06 236 1.85 152 -1.5 92 -2.6 0 0 985.9 NA 0.0000 9999 6200 0 0 0
2019/06/19 06:54:00 BASE 1.73 286 2.68 333 -1.5 92 -2.6 0 0 986.0 NA 0.0000 9999 6270 0 0 0
2019/06/19 06:55:00 BASE 1.68 314 2.68 333 -1.5 92 -2.6 0 0 986.0 NA 0.0000 9999 2950 6230 0 0
2019/06/19 06:56:00 BASE 0.68 310 2.68 333 -1.4 92 -2.6 0 0 985.9 NA 0.0000 9999 6200 0 0 0
2019/06/19 06:57:00 BASE 0.00 275 2.68 333 -1.4 91 -2.6 0 0 985.9 NA 0.0000 9999 2820 0 0 0
2019/06/19 06:58:00 BASE 0.21 207 2.68 333 -1.3 91 -2.6 0 0 986.0 NA 0.0000 9999 2950 6330 0 0
2019/06/19 06:59:00 BASE 1.76 151 5.50 125 -1.3 90 -2.7 0 0 986.0 NA 0.0000 9999 3050 0 0 0
2019/06/19 07:00:00 BASE 3.95 137 6.38 104 -1.3 90 -2.8 0 0 986.0 NA 0.0000 9999 2890 0 0 0
2019/06/19 07:01:00 BASE 5.16 121 7.41 101 -1.3 89 -2.9 0 0 986.0 NA 0.0000 9999 6230 0 0 0
2019/06/19 07:02:00 BASE 5.09 85 7.41 101 -1.4 89 -3.0 0 0 985.9 NA 0.0000 9999 2990 6270 0 0
2019/06/19 07:03:00 BASE 4.50 53 7.41 101 -1.4 88 -3.2 0 0 985.9 NA 0.0000 9999 6300 0 0 0
2019/06/19 07:04:00 BASE 5.03 68 8.39 90 -1.5 87 -3.3 0 0 986.0 NA 0.0000 9999 6270 0 0 0
2019/06/19 07:05:00 BASE 6.28 101 8.39 90 -1.5 87 -3.4 0 0 985.9 NA 0.0000 9999 6200 0 0 0
2019/06/19 07:06:00 BASE 6.89 106 8.39 90 -1.5 86 -3.5 0 0 985.9 NA 0.0000 9999 2720 6230 0 0
2019/06/19 07:07:00 BASE 5.81 96 8.39 90 -1.4 86 -3.5 0 0 985.9 NA 0.0000 9999 2790 0 0 0
2019/06/19 07:08:00 BASE 3.70 83 8.39 90 -1.3 85 -3.4 0 0 985.9 NA 0.0000 9999 6230 0 0 0
2019/06/19 07:09:00 BASE 4.25 78 8.39 90 -1.2 85 -3.5 0 0 985.9 NA 0.0000 9999 6170 0 0 0
2019/06/19 07:10:00 BASE 5.52 73 8.39 90 -1.2 84 -3.7 0 0 985.9 NA 0.0000 9999 6170 0 0 0
2019/06/19 07:11:00 BASE 4.47 63 8.39 90 -1.3 83 -3.9 0 0 985.9 NA 0.0000 9999 6140 0 0 0
2019/06/19 07:12:00 BASE 3.27 58 8.39 90 -1.4 82 -4.1 0 0 985.9 NA 0.0000 9999 6200 0 0 0
2019/06/19 07:13:00 BASE 4.01 61 8.39 90 -1.6 81 -4.4 0 0 985.9 NA 0.0000 9999 6230 0 0 0
2019/06/19 07:14:00 BASE 5.64 66 7.97 96 -1.7 81 -4.5 0 0 985.9 NA 0.0000 9999 6140 0 0 0
2019/06/19 07:15:00 BASE 6.33 77 7.97 91 -1.7 82 -4.4 0 0 985.9 NA 0.0000 9999 6270 0 0 0
2019/06/19 07:16:00 BASE 4.69 91 7.97 91 -1.6 82 -4.3 0 0 985.8 NA 0.0000 9999 6270 0 0 0
2019/06/19 07:17:00 BASE 2.00 101 7.97 91 -1.5 82 -4.1 0 0 985.8 NA 0.0000 9999 6000 0 0 0
2019/06/19 07:18:00 BASE 2.31 106 7.97 91 -1.3 82 -3.9 0 0 985.9 NA 0.0000 9999 6070 0 0 0
2019/06/19 07:19:00 BASE 2.92 114 7.97 91 -1.2 82 -3.9 0 0 985.9 NA 0.0000 9999 6270 0 0 0
2019/06/19 07:20:00 BASE 2.27 139 7.97 91 -1.1 81 -4.0 0 0 985.8 NA 0.0000 9999 6200 0 0 0
2019/06/19 07:21:00 BASE 2.55 158 7.97 91 -1.1 81 -4.0 0 0 985.8 NA 0.0000 9999 6230 0 0 0
2019/06/19 07:22:00 BASE 2.45 141 7.97 91 -1.1 80 -4.0 0 0 985.9 NA 0.0000 9999 6230 0 0 0
2019/06/19 07:23:00 BASE 2.45 161 7.97 91 -1.0 80 -4.0 0 0 985.8 NA 0.0000 9999 6230 0 0 0
2019/06/19 07:24:00 BASE 3.26 203 7.97 91 -0.9 80 -4.0 0 0 985.8 NA 0.0000 9999 6170 0 0 0
2019/06/19 07:25:00 BASE 4.11 208 6.43 210 -0.8 79 -3.9 0 0 985.8 NA 0.0000 9999 6070 0 0 0
2019/06/19 07:26:00 BASE 4.14 217 6.43 210 -0.7 79 -3.9 0 0 985.8 NA 0.0000 9999 6040 0 0 0
2019/06/19 07:27:00 BASE 3.53 212 6.43 210 -0.6 78 -3.9 0 0 985.8 NA 0.0000 9999 6040 0 0 0
2019/06/19 07:28:00 BASE 3.35 174 6.43 210 -0.7 78 -4.0 0 0 985.8 NA 0.0000 9999 6000 0 0 0
2019/06/19 07:29:00 BASE 3.14 134 6.43 210 -0.8 78 -4.1 0 0 985.8 NA 0.0000 9999 5940 0 0 0
2019/06/19 07:30:00 BASE 3.41 93 6.43 210 -1.0 79 -4.2 0 0 985.8 NA 0.0000 9999 5940 0 0 0
2019/06/19 07:31:00 BASE 4.07 56 6.43 210 -1.2 79 -4.3 0 0 985.8 NA 0.0000 9999 5910 0 0 0
2019/06/19 07:32:00 BASE 3.25 59 6.43 210 -1.4 80 -4.5 0 0 985.8 NA 0.0000 9999 5910 0 0 0
2019/06/19 07:33:00 BASE 2.41 78 6.43 210 -1.6 80 -4.5 0 0 985.9 NA 0.0000 9999 5910 0 0 0
2019/06/19 07:34:00 BASE 3.23 71 6.43 210 -1.6 81 -4.5 0 0 985.8 NA 0.0000 9999 5910 0 0 0
2019/06/19 07:35:00 BASE 3.41 74 5.56 40 -1.7 82 -4.4 0 0 985.8 NA 0.0000 9999 5910 0 0 0
2019/06/19 07:36:00 BASE 2.96 86 5.56 40 -1.7 82 -4.3 0 0 985.8 NA 0.0000 9999 5770 6270 0 0
2019/06/19 07:37:00 BASE 4.34 85 6.89 84 -1.8 83 -4.3 0 0 985.8 NA 0.0000 9999 5770 6300 0 0
2019/06/19 07:38:00 BASE 5.16 90 6.89 84 -1.8 83 -4.3 0 0 985.8 NA 0.0000 9999 5840 0 0 0
2019/06/19 07:39:00 BASE 4.73 98 6.89 84 -1.9 83 -4.3 0 0 985.8 NA 0.0000 9999 5710 0 0 0
2019/06/19 07:40:00 BASE 5.40 101 6.89 84 -2.0 83 -4.4 0 0 985.8 NA 0.0000 9999 5910 0 0 0
2019/06/19 07:41:00 BASE 5.84 95 6.89 84 -2.1 83 -4.5 0 0 985.8 NA 0.0000 9999 6070 0 0 0
2019/06/19 07:42:00 BASE 4.90 101 6.89 84 -2.2 84 -4.6 0 0 985.8 NA 0.0000 9999 5710 0 0 0
2019/06/19 07:43:00 BASE 3.83 111 6.89 84 -2.2 84 -4.6 0 0 985.8 NA 0.0000 9999 5480 0 0 0
2019/06/19 07:44:00 BASE 4.10 105 6.89 84 -2.3 84 -4.7 0 0 985.8 NA 0.0000 9999 6230 0 0 0
2019/06/19 07:45:00 BASE 4.81 92 6.89 84 -2.3 84 -4.7 0 0 985.8 NA 0.0000 9999 6230 0 0 0
2019/06/19 07:46:00 BASE 4.94 94 6.89 84 -2.2 84 -4.5 0 0 985.7 NA 0.0000 9999 5810 6400 0 0
2019/06/19 07:47:00 BASE 5.72 104 8.08 98 -2.2 84 -4.5 0 0 985.7 NA 0.0000 9999 6070 0 0 0
2019/06/19 07:48:00 BASE 7.09 103 9.77 107 -2.1 84 -4.4 0 0 985.8 NA 0.0000 9999 6200 0 0 0
2019/06/19 07:49:00 BASE 7.54 107 9.77 107 -2.0 85 -4.2 0 0 985.8 NA 0.0000 9999 6270 0 0 0
2019/06/19 07:50:00 BASE 6.25 126 9.77 107 -1.8 85 -4.0 0 0 985.7 NA 0.0000 9999 6040 0 0 0
2019/06/19 07:51:00 BASE 3.93 151 9.77 107 -1.7 85 -3.8 0 0 985.7 NA 0.0000 9999 6040 0 0 0
2019/06/19 07:52:00 BASE 1.82 178 9.77 107 -1.5 86 -3.6 0 0 985.7 NA 0.0000 9999 5970 0 0 0
2019/06/19 07:53:00 BASE 1.83 183 9.77 107 -1.4 85 -3.5 0 0 985.7 NA 0.0000 9999 5970 0 0 0
2019/06/19 07:54:01 BASE 2.99 152 9.77 107 -1.3 85 -3.5 0 0 985.7 NA 0.0000 9999 6070 0 0 0
2019/06/19 07:55:01 BASE 3.01 110 9.77 107 -1.2 85 -3.5 0 0 985.7 NA 0.0000 9999 6100 0 0 0
2019/06/19 07:56:01 BASE 5.45 85 10.24 71 -1.2 84 -3.6 0 0 985.7 NA 0.0000 9999 6100 0 0 0
2019/06/19 07:57:01 BASE 7.51 86 10.24 71 -1.3 84 -3.6 0 0 985.7 NA 0.0000 9999 6100 0 0 0
2019/06/19 07:58:01 BASE 6.88 99 11.68 106 -1.3 84 -3.6 0 0 985.6 NA 0.0000 9999 6070 0 0 0
2019/06/19 07:59:01 BASE 5.09 110 11.68 106 -1.2 84 -3.6 0 0 985.6 NA 0.0000 9999 6140 0 0 0
2019/06/19 08:00:01 BASE 3.45 119 11.68 106 -1.2 84 -3.6 0 0 985.7 NA 0.0000 9999 6230 0 0 0
2019/06/19 08:01:01 BASE 3.42 107 11.68 106 -1.2 84 -3.6 0 0 985.6 NA 0.0000 9999 6300 0 0 0
2019/06/19 08:02:01 BASE 3.77 111 11.68 106 -1.2 83 -3.6 0 0 985.6 NA 0.0000 9999 6270 0 0 0
2019/06/19 08:03:01 BASE 5.56 121 11.68 106 -1.2 83 -3.7 0 0 985.6 NA 0.0000 9999 6230 0 0 0
2019/06/19 08:04:01 BASE 7.05 129 11.68 106 -1.2 83 -3.7 0 0 985.6 NA 0.0000 9999 6200 0 0 0
2019/06/19 08:05:01 BASE 6.51 142 11.68 106 -1.3 83 -3.8 0 0 985.6 NA 0.0000 9999 6140 0 0 0
2019/06/19 08:06:01 BASE 6.46 134 11.68 106 -1.3 83 -3.8 0 0 985.6 NA 0.0000 9999 6100 0 0 0
2019/06/19 08:07:01 BASE 6.33 112 11.68 106 -1.3 83 -3.8 0 0 985.6 NA 0.0000 9999 6230 0 0 0
2019/06/19 08:08:01 BASE 6.49 113 9.62 145 -1.3 83 -3.8 0 0 985.6 NA 0.0000 9999 6200 0 0 0
2019/06/19 08:09:01 BASE 7.07 118 9.62 145 -1.2 83 -3.7 0 0 985.6 NA 0.0000 9999 6230 0 0 0
2019/06/19 08:10:01 BASE 7.07 115 9.62 145 -1.1 83 -3.7 0 0 985.7 NA 0.0000 9999 6200 0 0 0
2019/06/19 08:11:01 BASE 8.36 121 10.60 119 -1.1 82 -3.7 0 0 985.7 NA 0.0000 9999 6200 0 0 0
2019/06/19 08:12:01 BASE 8.08 117 10.60 119 -1.1 82 -3.8 0 0 985.6 NA 0.0000 9999 6170 0 0 0
2019/06/19 08:13:00 BASE 6.51 81 10.60 119 -1.1 82 -3.9 0 0 985.6 NA 0.0000 9999 6140 0 0 0
2019/06/19 08:14:00 BASE 5.50 79 10.60 119 -1.2 81 -4.0 0 0 985.6 NA 0.0000 9999 5870 0 0 0
2019/06/19 08:15:00 BASE 6.02 122 10.60 119 -1.3 81 -4.1 0 0 985.7 NA 0.0000 9999 5970 0 0 0
2019/06/19 08:16:00 BASE 7.21 115 10.60 119 -1.3 81 -4.1 0 0 985.7 NA 0.0000 9999 5870 0 0 0
2019/06/19 08:17:00 BASE 6.34 99 10.60 119 -1.3 81 -4.1 0 0 985.6 NA 0.0000 9999 5940 0 0 0
2019/06/19 08:18:00 BASE 5.01 74 10.60 119 -1.2 81 -4.0 0 0 985.5 NA 0.0000 9999 5870 0 0 0
2019/06/19 08:19:00 BASE 3.50 69 10.60 119 -1.1 81 -3.9 0 0 985.5 NA 0.0000 9999 5810 0 0 0
2019/06/19 08:20:00 BASE 3.12 94 10.60 119 -1.0 81 -3.8 0 0 985.6 NA 0.0000 9999 5770 0 0 0
2019/06/19 08:21:00 BASE 3.86 116 8.33 82 -1.0 81 -3.9 0 0 985.6 NA 0.0000 9999 5810 0 0 0
2019/06/19 08:22:01 BASE 4.08 125 8.33 82 -1.0 80 -4.0 0 0 985.6 NA 0.0000 9999 5810 0 0 0
2019/06/19 08:23:01 BASE 4.68 123 8.28 124 -1.1 80 -4.1 0 0 985.6 NA 0.0000 9999 5710 0 0 0
2019/06/19 08:24:01 BASE 6.22 113 9.26 103 -1.2 80 -4.2 0 0 985.5 NA 0.0000 9999 5840 0 0 0
2019/06/19 08:25:01 BASE 8.69 106 13.12 109 -1.2 80 -4.2 0 0 985.5 NA 0.0000 9999 5870 0 0 0
2019/06/19 08:26:01 BASE 9.04 99 13.22 110 -1.2 80 -4.2 0 0 985.4 NA 0.0000 9999 5710 0 0 0
2019/06/19 08:27:01 BASE 6.73 102 13.22 110 -1.1 80 -4.1 0 0 985.4 NA 0.0000 9999 5740 0 0 0
2019/06/19 08:28:01 BASE 6.54 99 13.22 110 -1.1 80 -4.0 0 0 985.4 NA 0.0000 9999 5710 0 0 0
2019/06/19 08:29:01 BASE 9.08 98 14.30 106 -1.0 80 -4.0 0 0 985.4 NA 0.0000 9999 5870 0 0 0
2019/06/19 08:30:01 BASE 10.11 101 14.30 106 -1.0 81 -3.9 0 0 985.4 NA 0.0000 9999 5940 0 0 0
2019/06/19 08:31:01 BASE 10.56 97 16.15 86 -1.1 81 -4.0 0 0 985.4 NA 0.0000 9999 5870 0 0 0
2019/06/19 08:32:01 BASE 11.63 97 16.15 86 -1.1 81 -4.0 0 0 985.4 NA 0.0000 9999 5870 0 0 0
2019/06/19 08:33:01 BASE 12.84 94 16.77 106 -1.2 81 -4.0 0 0 985.4 NA 0.0000 9999 5870 0 0 0
2019/06/19 08:34:01 BASE 13.00 89 16.77 106 -1.1 82 -3.8 0 0 985.3 NA 0.0000 9999 5840 0 0 0
2019/06/19 08:35:01 BASE 13.60 90 18.42 88 -1.1 82 -3.7 0 0 985.3 NA 0.0000 9999 5870 0 0 0
2019/06/19 08:36:01 BASE 12.42 99 18.42 88 -1.0 83 -3.6 0 0 985.3 NA 0.0000 9999 5870 0 0 0
2019/06/19 08:37:01 BASE 10.23 105 18.42 88 -1.0 83 -3.5 0 0 985.3 NA 0.0000 9999 5910 0 0 0
2019/06/19 08:38:01 BASE 11.46 99 18.42 88 -0.9 83 -3.5 0 0 985.2 NA 0.0000 9999 5910 0 0 0
2019/06/19 08:39:01 BASE 11.48 101 18.42 88 -0.9 82 -3.5 0 0 985.3 NA 0.0000 9999 5940 0 0 0
2019/06/19 08:40:01 BASE 9.87 104 18.42 88 -0.9 82 -3.6 0 0 985.3 NA 0.0000 9999 5910 0 0 0
2019/06/19 08:41:01 BASE 9.08 109 18.42 88 -1.0 82 -3.6 0 0 985.3 NA 0.0000 9999 5940 0 0 0
2019/06/19 08:42:01 BASE 8.14 134 18.42 88 -1.0 82 -3.7 0 0 985.2 NA 0.0000 9999 5940 0 0 0
2019/06/19 08:43:01 BASE 9.00 119 18.42 88 -1.1 82 -3.9 0 0 985.2 NA 0.0000 9999 6000 0 0 0
2019/06/19 08:44:01 BASE 11.78 83 18.42 88 -1.1 82 -3.9 0 0 985.1 NA 0.0000 9999 6000 0 0 0
2019/06/19 08:45:01 BASE 10.82 97 17.90 62 -1.1 81 -3.9 0 0 985.3 NA 0.0000 9999 6000 0 0 0
2019/06/19 08:46:01 BASE 8.04 125 17.90 62 -1.2 81 -4.0 0 0 985.2 NA 0.0000 9999 6000 0 0 0
2019/06/19 08:47:01 BASE 5.08 123 17.90 62 -1.2 81 -4.0 0 0 985.2 NA 0.0000 9999 6000 0 0 0
2019/06/19 08:48:01 BASE 2.04 145 16.77 102 -1.1 81 -3.9 0 0 985.1 NA 0.0000 9999 6040 0 0 0
2019/06/19 08:49:01 BASE 3.26 158 16.51 66 -1.2 81 -4.0 0 0 985.3 NA 0.0000 9999 6040 0 0 0
2019/06/19 08:50:01 BASE 5.26 139 16.51 66 -1.2 81 -4.1 0 0 985.3 NA 0.0000 9999 2920 6100 0 0
2019/06/19 08:51:01 BASE 4.39 134 16.51 66 -1.3 81 -4.1 0 0 985.2 NA 0.0000 9999 2920 0 0 0
2019/06/19 08:52:01 BASE 4.77 85 16.51 66 -1.3 82 -4.0 0 0 985.2 NA 0.0000 9999 2790 0 0 0
2019/06/19 08:53:01 BASE 5.71 79 14.51 102 -1.3 82 -4.0 0 0 985.2 NA 0.0000 9999 3020 0 0 0
2019/06/19 08:54:01 BASE 4.42 81 14.51 102 -1.2 82 -3.9 0 0 985.1 NA 0.0000 9999 2990 0 0 0
2019/06/19 08:55:01 BASE 3.52 100 8.64 145 -1.0 81 -3.8 0 0 985.1 NA 0.0000 9999 3510 4330 0 0
2019/06/19 08:56:01 BASE 6.15 142 9.05 140 -0.9 81 -3.8 0 0 985.1 NA 0.0000 9999 4170 4790 0 0
2019/06/19 08:57:01 BASE 8.74 141 10.08 141 -0.9 80 -3.9 0 0 985.1 NA 0.0000 9999 6000 0 0 0
2019/06/19 08:58:01 BASE 9.58 140 10.55 136 -1.0 80 -4.0 0 0 985.1 NA 0.0000 9999 6040 0 0 0
2019/06/19 08:59:01 BASE 9.84 137 10.55 136 -1.0 80 -4.1 0 0 985.1 NA 0.0000 9999 6100 0 0 0
2019/06/19 09:00:01 BASE 8.96 135 10.55 136 -1.1 80 -4.2 0 0 985.1 NA 0.0000 9999 2950 6140 0 0
2019/06/19 09:01:01 BASE 8.43 127 10.55 136 -1.1 80 -4.2 0 0 985.1 NA 0.0000 9999 3050 6200 0 0
2019/06/19 09:02:01 BASE 7.79 124 10.55 136 -1.1 80 -4.2 0 0 985.1 NA 0.0000 9999 6200 0 0 0
2019/06/19 09:03:01 BASE 7.27 131 10.55 136 -1.0 79 -4.2 0 0 985.1 NA 0.0000 9999 6170 0 0 0
2019/06/19 09:04:01 BASE 6.65 133 10.55 136 -1.0 79 -4.2 0 0 985.1 NA 0.0000 9999 6140 0 0 0
2019/06/19 09:05:01 BASE 6.19 126 10.55 136 -1.0 78 -4.3 0 0 985.1 NA 0.0000 9999 3250 6270 0 0
2019/06/19 09:06:01 BASE 6.21 120 10.55 136 -1.0 78 -4.4 0 0 985.2 NA 0.0000 9999 2690 0 0 0
2019/06/19 09:07:01 BASE 6.06 120 10.55 136 -1.0 77 -4.5 0 0 985.1 NA 0.0000 9999 2890 0 0 0
2019/06/19 09:08:01 BASE 6.38 117 10.34 136 -1.1 77 -4.6 0 0 985.1 NA 0.0000 9999 2850 0 0 0
2019/06/19 09:09:01 BASE 6.04 112 9.52 113 -1.2 77 -4.7 0 0 985.1 NA 0.0000 9999 2920 0 0 0
2019/06/19 09:10:01 BASE 5.29 106 9.52 113 -1.3 77 -4.8 0 0 985.1 NA 0.0000 9999 2790 0 0 0
2019/06/19 09:11:01 BASE 6.16 105 8.85 137 -1.4 77 -4.9 0 0 985.1 NA 0.0000 9999 2850 0 0 0
2019/06/19 09:12:01 BASE 6.87 109 8.85 137 -1.5 78 -4.9 0 0 985.1 NA 0.0000 9999 2890 0 0 0
2019/06/19 09:13:01 BASE 6.35 111 8.39 108 -1.5 78 -4.9 0 0 985.1 NA 0.0000 9999 3080 6230 0 0
2019/06/19 09:14:01 BASE 7.09 107 8.54 100 -1.6 78 -4.9 0 0 985.1 NA 0.0000 9999 2820 0 0 0
2019/06/19 09:15:01 BASE 8.18 102 8.85 99 -1.6 78 -4.9 0 0 985.1 NA 0.0000 9999 3020 0 0 0
2019/06/19 09:16:01 BASE 8.51 97 8.95 85 -1.6 79 -4.9 0 0 985.0 NA 0.0000 9999 2990 6270 0 0
2019/06/19 09:17:01 BASE 8.46 94 8.95 85 -1.7 79 -4.9 0 0 985.0 NA 0.0000 9999 2990 0 0 0
2019/06/19 09:18:01 BASE 8.18 96 8.95 85 -1.7 79 -4.9 0 0 985.0 NA 0.0000 9999 2950 0 0 0
2019/06/19 09:19:01 BASE 8.08 104 8.95 110 -1.8 80 -4.9 0 0 985.0 NA 0.0000 9999 2820 0 0 0
2019/06/19 09:20:01 BASE 8.12 112 9.11 117 -1.8 80 -4.8 0 0 984.9 NA 0.0000 9999 3150 6230 0 0
2019/06/19 09:21:01 BASE 7.83 115 9.11 117 -1.8 80 -4.7 0 0 984.9 NA 0.0000 9999 6200 0 0 0
2019/06/19 09:22:01 BASE 7.44 118 9.11 117 -1.7 81 -4.6 0 0 984.9 NA 0.0000 9999 6040 0 0 0
2019/06/19 09:23:01 BASE 7.13 122 9.11 117 -1.6 81 -4.5 0 0 984.9 NA 0.0000 9999 3120 6100 0 0
2019/06/19 09:24:01 BASE 6.87 119 9.11 117 -1.5 81 -4.4 0 0 984.9 NA 0.0000 9999 3350 6170 0 0
2019/06/19 09:25:01 BASE 7.94 107 9.98 100 -1.4 80 -4.3 0 0 984.9 NA 0.0000 9999 3180 0 0 0
2019/06/19 09:26:01 BASE 9.04 99 9.98 100 -1.4 80 -4.5 0 0 984.9 NA 0.0000 9999 3350 6100 0 0
2019/06/19 09:27:01 BASE 8.69 100 9.98 100 -1.5 79 -4.6 0 0 984.9 NA 0.0000 9999 3310 0 0 0
2019/06/19 09:28:01 BASE 8.59 98 9.98 100 -1.6 79 -4.7 0 0 984.9 NA 0.0000 9999 3220 6430 0 0
2019/06/19 09:29:01 BASE 9.13 97 9.98 100 -1.7 79 -4.8 0 0 984.9 NA 0.0000 9999 3250 0 0 0
2019/06/19 09:30:01 BASE 9.11 102 9.98 100 -1.8 80 -4.9 0 0 984.9 NA 0.0000 9999 3250 0 0 0
2019/06/19 09:31:01 BASE 8.76 104 10.03 101 -1.9 80 -4.8 0 0 984.9 NA 0.0000 9999 3350 6430 0 0
2019/06/19 09:32:01 BASE 8.76 102 10.03 101 -1.9 81 -4.8 0 0 984.9 NA 0.0000 9999 3250 6590 0 0
2019/06/19 09:33:01 BASE 8.06 103 10.03 101 -2.0 81 -4.8 0 0 984.9 NA 0.0000 9999 3250 6530 0 0
2019/06/19 09:34:01 BASE 7.44 107 10.03 101 -2.0 81 -4.8 0 0 984.9 NA 0.0000 9999 3480 6070 0 0
2019/06/19 09:35:01 BASE 8.87 106 11.11 104 -1.9 81 -4.8 0 0 985.0 NA 0.0000 9999 3410 6070 0 0
2019/06/19 09:36:01 BASE 9.35 105 11.11 104 -1.8 80 -4.8 0 0 985.0 NA 0.0000 9999 3220 6270 0 0
2019/06/19 09:37:01 BASE 7.36 107 11.11 104 -1.8 80 -4.7 0 0 984.9 NA 0.0000 9999 3380 0 0 0
2019/06/19 09:38:01 BASE 7.59 114 11.11 104 -1.7 80 -4.7 0 0 984.9 NA 0.0000 9999 3410 0 0 0
2019/06/19 09:39:01 BASE 7.88 119 11.11 104 -1.6 80 -4.7 0 0 984.9 NA 0.0000 9999 3450 6100 0 0
2019/06/19 09:40:01 BASE 7.35 120 11.11 104 -1.6 79 -4.7 0 0 984.9 NA 0.0000 9999 3250 6200 0 0
2019/06/19 09:41:01 BASE 8.11 119 11.11 104 -1.5 79 -4.7 0 0 985.0 NA 0.0000 9999 3180 0 0 0
2019/06/19 09:42:01 BASE 7.94 114 11.11 104 -1.5 78 -4.9 0 0 984.9 NA 0.0000 9999 3350 0 0 0
2019/06/19 09:43:01 BASE 8.08 116 11.11 104 -1.4 77 -5.0 0 0 984.9 NA 0.0000 9999 3350 6170 0 0
2019/06/19 09:44:01 BASE 8.80 115 11.11 104 -1.3 75 -5.1 0 0 984.9 NA 0.0000 9999 3580 0 0 0
2019/06/19 09:45:01 BASE 8.89 109 11.01 101 -1.3 74 -5.3 0 0 984.9 NA 0.0000 9999 3450 0 0 0
2019/06/19 09:46:01 BASE 8.64 109 10.03 107 -1.3 74 -5.4 0 0 984.9 NA 0.0000 9999 3670 6140 0 0
2019/06/19 09:47:01 BASE 7.26 102 10.03 107 -1.2 73 -5.4 0 0 984.8 NA 0.0000 9999 3450 6270 0 0
2019/06/19 09:48:01 BASE 5.84 97 10.03 107 -1.2 72 -5.5 0 0 984.8 NA 0.0000 9999 3450 6500 0 0
2019/06/19 09:49:01 BASE 7.02 101 10.24 99 -1.2 72 -5.6 0 0 984.8 NA 0.0000 9999 6370 0 0 0
2019/06/19 09:50:01 BASE 9.47 103 11.78 99 -1.2 71 -5.7 0 0 984.8 NA 0.0000 9999 3450 0 0 0
2019/06/19 09:51:01 BASE 11.27 98 12.55 92 -1.4 71 -5.9 0 0 984.8 NA 0.0000 9999 3450 0 0 0
2019/06/19 09:52:01 BASE 11.72 94 12.55 92 -1.6 72 -6.0 0 0 984.8 NA 0.0000 9999 3450 0 0 0
2019/06/19 09:53:01 BASE 11.01 91 12.55 92 -1.8 73 -6.0 0 0 984.8 NA 0.0000 9999 3710 5970 0 0
2019/06/19 09:54:01 BASE 9.98 90 12.55 92 -1.9 74 -5.8 0 0 984.8 NA 0.0000 9999 5970 0 0 0
2019/06/19 09:55:01 BASE 8.87 89 12.55 92 -1.9 75 -5.6 0 0 984.8 NA 0.0000 9999 3670 5970 0 0
2019/06/19 09:56:01 BASE 7.84 88 12.55 92 -1.7 76 -5.4 0 0 984.8 NA 0.0000 9999 5970 0 0 0
2019/06/19 09:57:01 BASE 7.69 95 12.55 92 -1.5 75 -5.3 0 0 984.8 NA 0.0000 9999 6000 0 0 0
2019/06/19 09:58:01 BASE 7.70 101 12.55 92 -1.4 74 -5.3 0 0 984.8 NA 0.0000 9999 5910 0 0 0
2019/06/19 09:59:01 BASE 7.10 100 12.55 92 -1.3 74 -5.4 0 0 984.8 NA 0.0000 9999 5870 0 0 0
2019/06/19 10:00:01 BASE 6.76 98 12.55 92 -1.4 73 -5.6 0 0 984.8 NA 0.0000 9999 5870 0 0 0
2019/06/19 10:01:01 BASE 7.16 96 12.24 95 -1.4 73 -5.7 0 0 984.8 NA 0.0000 9999 5840 0 0 0
2019/06/19 10:02:01 BASE 7.36 94 11.68 88 -1.5 73 -5.8 0 0 984.8 NA 0.0000 9999 3840 5810 0 0
2019/06/19 10:03:01 BASE 6.87 89 10.24 102 -1.6 73 -5.8 0 0 984.8 NA 0.0000 9999 3770 5770 0 0
2019/06/19 10:04:01 BASE 6.79 88 9.21 83 -1.7 74 -5.8 0 0 984.8 NA 0.0000 9999 3670 5740 0 0
2019/06/19 10:05:01 BASE 6.92 88 8.80 94 -1.8 74 -5.8 0 0 984.8 NA 0.0000 9999 3900 0 0 0
2019/06/19 10:06:01 BASE 6.56 82 8.80 94 -1.9 75 -5.8 0 0 984.8 NA 0.0000 9999 3810 0 0 0
2019/06/19 10:07:01 BASE 6.13 81 8.13 99 -2.0 75 -5.7 0 0 984.8 NA 0.0000 9999 3870 0 0 0
2019/06/19 10:08:01 BASE 6.09 85 7.97 98 -2.0 76 -5.7 0 0 984.8 NA 0.0000 9999 3670 0 0 0
2019/06/19 10:09:01 BASE 6.33 86 7.97 98 -2.1 76 -5.7 0 0 984.8 NA 0.0000 9999 3580 0 0 0
2019/06/19 10:10:01 BASE 6.67 88 7.97 98 -2.1 77 -5.6 0 0 984.8 NA 0.0000 9999 3640 0 0 0
2019/06/19 10:11:01 BASE 7.06 93 7.82 93 -2.1 77 -5.6 0 0 984.8 NA 0.0000 9999 3740 0 0 0
2019/06/19 10:12:01 BASE 7.30 99 7.82 107 -2.1 77 -5.6 0 0 984.8 NA 0.0000 9999 3940 0 0 0
2019/06/19 10:13:01 BASE 7.33 106 7.97 107 -2.1 77 -5.6 0 0 984.8 NA 0.0000 9999 3810 0 0 0
2019/06/19 10:14:01 BASE 7.04 112 7.97 107 -2.1 77 -5.6 0 0 984.8 NA 0.0000 9999 3870 0 0 0
2019/06/19 10:15:01 BASE 6.57 115 7.97 107 -2.1 77 -5.6 0 0 984.8 NA 0.0000 9999 6230 0 0 0
2019/06/19 10:16:01 BASE 6.47 115 7.97 107 -2.0 77 -5.6 0 0 984.7 NA 0.0000 9999 6170 0 0 0
2019/06/19 10:17:01 BASE 7.20 116 8.39 107 -1.9 76 -5.6 0 0 984.7 NA 0.0000 9999 6100 0 0 0
2019/06/19 10:18:01 BASE 7.78 117 8.54 123 -1.8 76 -5.5 0 0 984.8 NA 0.0000 9999 6070 0 0 0
2019/06/19 10:19:01 BASE 8.23 117 9.67 114 -1.7 75 -5.5 0 0 984.7 NA 0.0000 9999 3810 6140 0 0
2019/06/19 10:20:01 BASE 9.07 116 10.13 120 -1.6 74 -5.5 0 0 984.7 NA 0.0000 9999 6070 0 0 0
2019/06/19 10:21:01 BASE 8.73 118 10.13 120 -1.5 74 -5.6 0 0 984.7 NA 0.0000 9999 3710 5940 0 0
2019/06/19 10:22:01 BASE 8.17 120 10.13 120 -1.5 73 -5.7 0 0 984.7 NA 0.0000 9999 5940 6630 0 0
2019/06/19 10:23:01 BASE 7.78 128 10.13 120 -1.5 72 -5.8 0 0 984.7 NA 0.0000 9999 3770 5910 0 0
2019/06/19 10:24:01 BASE 7.99 133 10.13 120 -1.4 72 -5.8 0 0 984.7 NA 0.0000 9999 3540 5970 0 0
2019/06/19 10:25:01 BASE 8.30 137 10.13 120 -1.3 72 -5.8 0 0 984.7 NA 0.0000 9999 3670 0 0 0
2019/06/19 10:26:01 BASE 6.88 141 10.13 120 -1.2 71 -5.7 0 0 984.6 NA 0.0000 9999 3740 0 0 0
2019/06/19 10:27:01 BASE 5.39 140 10.13 120 -1.0 70 -5.7 0 0 984.7 NA 0.0000 9999 3810 0 0 0
2019/06/19 10:28:01 BASE 5.15 142 10.13 120 -0.8 69 -5.7 0 0 984.7 NA 0.0000 9999 3770 6040 0 0
2019/06/19 10:29:01 BASE 4.80 151 10.13 120 -0.7 69 -5.8 0 0 984.6 NA 0.0000 9999 3870 6000 0 0
2019/06/19 10:30:01 BASE 4.24 148 9.72 137 -0.7 68 -5.9 0 0 984.7 NA 0.0000 9999 3940 0 0 0
2019/06/19 10:31:01 BASE 4.18 130 9.72 137 -0.8 67 -6.1 0 0 984.7 NA 0.0000 9999 3900 6070 0 0
2019/06/19 10:32:01 BASE 4.69 106 9.72 137 -1.0 68 -6.2 0 0 984.7 NA 0.0000 9999 3900 0 0 0
2019/06/19 10:33:01 BASE 4.94 91 9.72 137 -1.1 68 -6.2 0 0 984.7 NA 0.0000 9999 3740 0 0 0
2019/06/19 10:34:01 BASE 4.56 85 9.72 137 -1.2 68 -6.3 0 0 984.7 NA 0.0000 9999 3510 0 0 0
2019/06/19 10:35:01 BASE 4.16 76 6.43 140 -1.4 69 -6.4 0 0 984.7 NA 0.0000 9999 3670 0 0 0
2019/06/19 10:36:01 BASE 3.80 67 5.71 143 -1.4 69 -6.4 0 0 984.7 NA 0.0000 9999 3900 0 0 0
2019/06/19 10:37:01 BASE 3.34 60 5.71 143 -1.5 69 -6.4 0 0 984.7 NA 0.0000 9999 3900 0 0 0
2019/06/19 10:38:01 BASE 3.55 54 5.56 93 -1.6 69 -6.4 0 0 984.7 NA 0.0000 9999 3870 6690 0 0
2019/06/19 10:39:01 BASE 3.84 55 5.56 93 -1.6 70 -6.3 0 0 984.7 NA 0.0000 9999 3840 5970 0 0
2019/06/19 10:40:01 BASE 3.83 61 5.56 93 -1.5 70 -6.3 0 0 984.7 NA 0.0000 9999 5910 0 0 0
2019/06/19 10:41:01 BASE 4.39 68 5.56 93 -1.6 70 -6.3 0 0 984.7 NA 0.0000 9999 5940 0 0 0
2019/06/19 10:42:01 BASE 4.34 74 5.35 63 -1.6 71 -6.2 0 0 984.7 NA 0.0000 9999 5910 6370 0 0
2019/06/19 10:43:01 BASE 3.58 79 5.35 63 -1.7 71 -6.2 0 0 984.7 NA 0.0000 9999 5910 0 0 0
2019/06/19 10:44:01 BASE 3.24 85 5.35 63 -1.8 72 -6.2 0 0 984.6 NA 0.0000 9999 6040 0 0 0
2019/06/19 10:45:01 BASE 4.08 86 5.45 84 -1.9 72 -6.2 0 0 984.6 NA 0.0000 9999 6400 0 0 0
2019/06/19 10:46:01 BASE 4.70 84 5.45 84 -2.0 73 -6.2 0 0 984.6 NA 0.0000 9999 6530 0 0 0
2019/06/19 10:47:01 BASE 4.27 84 5.45 84 -2.1 74 -6.2 0 0 984.5 NA 0.0000 9999 6370 0 0 0
2019/06/19 10:48:01 BASE 3.66 88 5.45 84 -2.2 75 -6.1 0 0 984.5 NA 0.0000 9999 6070 0 0 0
2019/06/19 10:49:01 BASE 3.15 95 5.45 84 -2.2 75 -6.1 0 0 984.4 NA 0.0000 9999 6140 0 0 0
2019/06/19 10:50:01 BASE 3.17 94 5.45 84 -2.2 75 -6.0 0 0 984.5 NA 0.0000 9999 6230 0 0 0
2019/06/19 10:51:01 BASE 3.66 81 5.45 84 -2.1 75 -5.9 0 0 984.4 NA 0.0000 9999 6170 0 0 0
2019/06/19 10:52:01 BASE 4.17 72 5.45 84 -2.0 75 -5.9 0 0 984.5 NA 0.0000 9999 6100 0 0 0
2019/06/19 10:53:01 BASE 4.34 74 5.45 84 -1.9 74 -5.9 0 0 984.5 NA 0.0000 9999 6170 0 0 0
2019/06/19 10:54:01 BASE 4.26 77 5.45 84 -1.8 74 -5.9 0 0 984.5 NA 0.0000 9999 6270 0 0 0
2019/06/19 10:55:01 BASE 4.03 76 5.25 87 -1.8 74 -5.9 0 0 984.5 NA 0.0000 9999 6400 0 0 0
2019/06/19 10:56:01 BASE 3.71 74 5.20 72 -1.7 73 -6.0 0 0 984.4 NA 0.0000 9999 6460 0 0 0
2019/06/19 10:57:01 BASE 3.33 71 5.20 72 -1.8 73 -6.0 0 0 984.3 NA 0.0000 9999 6270 0 0 0
2019/06/19 10:58:01 BASE 2.55 64 5.20 72 -1.8 73 -6.0 0 0 984.3 NA 0.0000 9999 3770 6300 0 0
2019/06/19 10:59:01 BASE 2.90 50 5.20 72 -1.8 73 -6.0 0 0 984.3 NA 0.0000 9999 3770 0 0 0
2019/06/19 11:00:01 BASE 4.11 38 5.25 42 -1.7 73 -6.0 0 0 984.3 NA 0.0000 9999 6430 0 0 0
2019/06/19 11:01:01 BASE 4.37 34 5.25 42 -1.7 73 -5.9 0 0 984.3 NA 0.0000 9999 6630 0 0 0
2019/06/19 11:02:01 BASE 3.53 33 5.25 42 -1.5 73 -5.8 0 0 984.3 NA 0.0000 9999 6820 0 0 0
2019/06/19 11:03:01 BASE 3.41 29 5.25 42 -1.4 73 -5.7 0 0 984.3 NA 0.0000 9999 6430 0 0 0
2019/06/19 11:04:01 BASE 3.63 13 5.25 42 -1.4 73 -5.6 0 0 984.3 NA 0.0000 9999 6370 0 0 0
2019/06/19 11:05:01 BASE 3.42 1 5.25 42 -1.3 73 -5.5 0 0 984.3 NA 0.0000 9999 6430 0 0 0
2019/06/19 11:06:01 BASE 3.89 351 5.66 330 -1.2 73 -5.5 0 0 984.3 NA 0.0000 9999 6500 0 0 0
2019/06/19 11:07:00 BASE 4.86 331 6.07 318 -1.3 73 -5.5 0 0 984.2 NA 0.0000 9999 6590 0 0 0
2019/06/19 11:08:01 BASE 5.11 314 6.07 318 -1.3 73 -5.5 0 0 984.2 NA 0.0000 9999 6330 0 0 0
2019/06/19 11:09:01 BASE 4.16 307 6.07 318 -1.3 74 -5.5 0 0 984.2 NA 0.0000 9999 6430 0 0 0
2019/06/19 11:10:01 BASE 3.42 300 6.07 318 -1.4 74 -5.4 0 0 984.2 NA 0.0000 9999 6630 0 0 0
2019/06/19 11:11:01 BASE 2.90 290 6.07 318 -1.4 75 -5.3 0 0 984.2 NA 0.0000 9999 6660 0 0 0
2019/06/19 11:12:00 BASE 2.85 276 6.07 318 -1.4 75 -5.2 0 0 984.1 NA 0.0000 9999 6590 0 0 0
2019/06/19 11:13:00 BASE 3.45 260 6.07 318 -1.4 75 -5.3 0 0 984.1 NA 0.0000 9999 6790 0 0 0
2019/06/19 11:14:00 BASE 3.31 249 6.07 318 -1.4 75 -5.3 0 0 984.1 NA 0.0000 9999 6690 0 0 0
2019/06/19 11:15:01 BASE 2.79 231 6.07 318 -1.4 74 -5.4 0 0 984.1 NA 0.0000 9999 6530 0 0 0
2019/06/19 11:16:00 BASE 2.45 223 6.07 318 -1.5 74 -5.4 0 0 984.1 NA 0.0000 9999 6530 0 0 0
2019/06/19 11:17:00 BASE 2.28 224 5.04 312 -1.4 75 -5.4 0 0 984.1 NA 0.0000 9999 6730 0 0 0
2019/06/19 11:18:00 BASE 3.06 212 4.48 256 -1.5 75 -5.4 0 0 984.1 NA 0.0000 9999 6860 0 0 0
2019/06/19 11:19:00 BASE 4.15 200 4.89 192 -1.5 75 -5.3 0 0 984.1 NA 0.0000 9999 6920 0 0 0
2019/06/19 11:20:01 BASE 4.57 194 4.89 193 -1.5 75 -5.3 0 0 984.1 NA 0.0000 9999 6920 0 0 0
2019/06/19 11:21:00 BASE 4.41 191 4.89 193 -1.6 76 -5.2 0 0 984.1 NA 0.0000 9999 6630 0 0 0
2019/06/19 11:22:01 BASE 3.97 194 4.89 193 -1.6 77 -5.2 0 0 984.1 NA 0.0000 9999 6790 0 0 0
2019/06/19 11:23:00 BASE 3.92 196 4.89 193 -1.7 78 -5.1 0 0 984.1 NA 0.0000 9999 6920 0 0 0
2019/06/19 11:24:01 BASE 3.80 193 4.89 193 -1.8 79 -5.0 0 0 984.1 NA 0.0000 9999 7020 0 0 0
2019/06/19 11:25:01 BASE 3.22 194 4.89 193 -1.8 79 -4.9 0 0 984.1 NA 0.0000 9999 6960 0 0 0
2019/06/19 11:26:00 BASE 2.82 194 4.89 193 -1.8 80 -4.8 0 0 984.1 NA 0.0000 9999 7120 0 0 0
2019/06/19 11:27:00 BASE 2.75 190 4.89 193 -1.8 80 -4.7 0 0 984.1 NA 0.0000 9999 7020 0 0 0
2019/06/19 11:28:00 BASE 2.78 186 4.89 193 -1.8 81 -4.7 0 0 984.1 NA 0.0000 9999 7280 0 0 0
2019/06/19 11:29:00 BASE 2.46 180 4.89 193 -1.8 81 -4.6 0 0 984.0 NA 0.0000 9999 6920 0 0 0
2019/06/19 11:30:01 BASE 2.09 176 4.42 191 -1.7 80 -4.6 0 0 984.0 NA 0.0000 9999 7150 0 0 0
2019/06/19 11:31:00 BASE 1.82 170 4.37 196 -1.7 80 -4.7 0 0 984.0 NA 0.0000 9999 6860 0 0 0
2019/06/19 11:32:00 BASE 1.51 161 4.37 196 -1.6 80 -4.7 0 0 984.0 NA 0.0000 9999 6960 0 0 0
2019/06/19 11:33:00 BASE 1.16 147 3.91 189 -1.6 79 -4.8 0 0 984.0 NA 0.0000 9999 7090 0 0 0
2019/06/19 11:34:00 BASE 1.23 135 3.40 194 -1.6 79 -4.8 0 0 984.0 NA 0.0000 9999 7350 0 0 0
2019/06/19 11:35:01 BASE 1.48 137 3.40 194 -1.7 79 -4.8 0 0 984.0 NA 0.0000 9999 6990 0 0 0
2019/06/19 11:36:00 BASE 1.55 149 3.40 194 -1.6 79 -4.8 0 0 984.0 NA 0.0000 9999 6660 0 0 0
2019/06/19 11:37:00 BASE 1.99 162 3.19 189 -1.6 79 -4.8 0 0 984.0 NA 0.0000 9999 6790 0 0 0
2019/06/19 11:38:01 BASE 2.46 172 3.09 177 -1.7 79 -4.8 0 0 984.0 NA 0.0000 9999 7510 0 0 0
2019/06/19 11:39:01 BASE 2.28 176 3.04 176 -1.7 79 -4.9 0 0 984.0 NA 0.0000 9999 0 0 0 0
2019/06/19 11:40:01 BASE 1.99 173 3.04 176 -1.7 78 -4.9 0 0 984.0 NA 0.0000 9999 0 0 0 0
2019/06/19 11:41:01 BASE 1.96 170 3.04 176 -1.7 78 -5.0 0 0 984.0 NA 0.0000 9999 7280 0 0 0
2019/06/19 11:42:01 BASE 1.97 166 3.04 176 -1.7 78 -5.0 0 0 983.9 NA 0.0000 9999 6630 0 0 0
2019/06/19 11:43:01 BASE 2.21 167 3.04 176 -1.7 78 -5.1 0 0 983.9 NA 0.0000 9999 6730 7420 0 0
2019/06/19 11:44:01 BASE 2.51 172 3.04 176 -1.7 78 -5.1 0 0 983.9 NA 0.0000 9999 6820 0 0 0
2019/06/19 11:45:01 BASE 2.56 177 3.04 176 -1.6 77 -5.1 0 0 983.9 NA 0.0000 9999 7350 0 0 0
2019/06/19 11:46:01 BASE 2.25 183 3.04 176 -1.6 77 -5.1 0 0 983.9 NA 0.0000 9999 6630 0 0 0
2019/06/19 11:47:01 BASE 1.77 182 3.04 176 -1.6 77 -5.1 0 0 983.9 NA 0.0000 9999 6690 0 0 0
2019/06/19 11:48:01 BASE 1.70 183 2.78 174 -1.6 77 -5.1 0 0 983.9 NA 0.0000 9999 6660 0 0 0
2019/06/19 11:49:01 BASE 2.24 184 2.83 182 -1.6 76 -5.2 0 0 983.9 NA 0.0000 9999 6560 0 0 0
2019/06/19 11:50:01 BASE 2.36 177 2.83 182 -1.7 76 -5.3 0 0 983.9 NA 0.0000 9999 6660 0 0 0
2019/06/19 11:51:01 BASE 2.06 179 2.83 182 -1.7 77 -5.3 0 0 983.8 NA 0.0000 9999 6690 0 0 0
2019/06/19 11:52:01 BASE 2.38 189 3.34 197 -1.8 77 -5.3 0 0 983.7 NA 0.0000 9999 3280 6660 0 0
2019/06/19 11:53:01 BASE 2.61 192 3.34 197 -1.8 77 -5.3 0 0 983.7 NA 0.0000 9999 6690 0 0 0
2019/06/19 11:54:01 BASE 2.31 185 3.34 197 -1.9 77 -5.3 0 0 983.7 NA 0.0000 9999 6690 0 0 0
2019/06/19 11:55:01 BASE 1.29 172 3.34 197 -1.9 78 -5.3 0 0 983.7 NA 0.0000 9999 6760 0 0 0
2019/06/19 11:56:01 BASE 0.21 164 3.34 197 -1.9 78 -5.3 0 0 983.7 NA 0.0000 9999 6730 0 0 0
2019/06/19 11:57:01 BASE 0.00 123 3.34 197 -1.9 78 -5.3 0 0 983.7 NA 0.0000 9999 6730 0 0 0
2019/06/19 11:58:00 BASE 0.00 84 3.34 197 -2.0 78 -5.3 0 0 983.7 NA 0.0000 9999 6690 0 0 0
2019/06/19 11:59:01 BASE 0.00 71 3.34 197 -2.0 78 -5.3 0 0 983.7 NA 0.0000 9999 6630 0 0 0
2019/06/19 12:00:01 BASE 0.09 65 3.34 197 -2.0 78 -5.3 0 0 983.7 NA 0.0000 9999 6590 0 0 0
2019/06/19 12:01:01 BASE 0.45 54 3.34 197 -2.0 78 -5.3 0 0 983.7 NA 0.0000 9999 6820 0 0 0
2019/06/19 12:02:00 BASE 0.41 30 2.88 193 -2.0 78 -5.3 0 0 983.8 NA 0.0000 9999 6630 0 0 0
2019/06/19 12:03:01 BASE 0.05 15 2.68 194 -2.0 78 -5.3 0 0 983.9 NA 0.0000 9999 6730 0 0 0
2019/06/19 12:04:01 BASE 0.62 81 2.52 149 -2.0 78 -5.3 0 0 983.9 NA 0.0000 9999 6890 0 0 0
2019/06/19 12:05:00 BASE 1.14 158 2.52 149 -2.0 79 -5.2 0 0 983.8 NA 0.0000 9999 6660 0 0 0
2019/06/19 12:06:01 BASE 0.80 169 2.52 149 -1.9 79 -5.1 0 0 983.8 NA 0.0000 9999 6500 0 0 0
2019/06/19 12:07:00 BASE 0.62 180 2.52 149 -1.8 79 -5.1 0 0 983.8 NA 0.0000 9999 6370 0 0 0
2019/06/19 12:08:01 BASE 1.00 167 2.52 149 -1.8 78 -5.1 0 0 983.7 NA 0.0000 9999 6270 0 0 0
2019/06/19 12:09:00 BASE 1.35 159 2.52 149 -1.8 78 -5.2 0 0 983.7 NA 0.0000 9999 6370 0 0 0
2019/06/19 12:10:01 BASE 1.38 150 2.52 149 -1.8 77 -5.3 0 0 983.7 NA 0.0000 9999 6660 0 0 0
2019/06/19 12:11:00 BASE 1.40 130 2.52 149 -1.9 77 -5.4 0 0 983.7 NA 0.0000 9999 6760 0 0 0
2019/06/19 12:12:00 BASE 1.20 99 2.52 149 -2.0 77 -5.4 0 0 983.7 NA 0.0000 9999 6500 0 0 0
2019/06/19 12:13:00 BASE 1.70 67 2.93 45 -2.1 78 -5.5 0 0 983.7 NA 0.0000 9999 6500 0 0 0
2019/06/19 12:14:00 BASE 2.23 52 2.93 45 -2.1 78 -5.4 0 0 983.7 NA 0.0000 9999 6860 0 0 0
2019/06/19 12:15:01 BASE 1.96 41 2.93 45 -2.1 79 -5.3 0 0 983.7 NA 0.0000 9999 6660 0 0 0
2019/06/19 12:16:00 BASE 1.91 27 2.93 45 -2.0 79 -5.1 0 0 983.7 NA 0.0000 9999 6690 0 0 0
2019/06/19 12:17:00 BASE 1.66 23 2.93 45 -2.0 80 -5.0 0 0 983.7 NA 0.0000 9999 6730 0 0 0
2019/06/19 12:18:00 BASE 1.34 44 2.93 45 -1.9 80 -4.9 0 0 983.7 NA 0.0000 9999 6790 0 0 0
2019/06/19 12:19:00 BASE 0.94 57 2.93 45 -1.9 80 -4.8 0 0 983.7 NA 0.0000 9999 6920 0 0 0
2019/06/19 12:20:01 BASE 0.30 47 2.93 45 -1.9 81 -4.8 0 0 983.7 NA 0.0000 9999 7020 0 0 0
2019/06/19 12:21:00 BASE 0.00 33 2.93 45 -1.8 81 -4.7 0 0 983.7 NA 0.0000 9999 6960 0 0 0
2019/06/19 12:22:00 BASE 0.51 351 2.93 45 -1.8 81 -4.7 0 0 983.7 NA 0.0000 9999 7120 0 0 0
2019/06/19 12:23:00 BASE 1.85 333 3.19 345 -1.7 81 -4.6 0 0 983.7 NA 0.0000 9999 7380 0 0 0
2019/06/19 12:24:01 BASE 2.98 347 3.91 355 -1.7 80 -4.6 0 0 983.7 NA 0.0000 9999 6890 0 0 0
2019/06/19 12:25:00 BASE 3.13 348 3.91 355 -1.7 80 -4.7 0 0 983.7 NA 0.0000 9999 7120 0 0 0
2019/06/19 12:26:01 BASE 2.65 347 3.91 355 -1.7 80 -4.7 0 0 983.7 NA 0.0000 9999 7020 0 0 0
2019/06/19 12:27:00 BASE 1.98 355 3.91 355 -1.8 81 -4.7 0 0 983.7 NA 0.0000 9999 7090 0 0 0
2019/06/19 12:28:01 BASE 1.32 26 3.91 355 -1.8 81 -4.7 0 0 983.7 NA 0.0000 9999 6960 0 0 0
2019/06/19 12:29:01 BASE 1.23 47 3.91 355 -1.9 82 -4.6 0 0 983.6 NA 0.0000 9999 6920 0 0 0
2019/06/19 12:30:00 BASE 1.57 36 3.91 355 -1.9 82 -4.5 0 0 983.6 NA 0.0000 9999 6960 0 0 0
2019/06/19 12:31:00 BASE 1.69 12 3.91 355 -1.9 83 -4.5 0 0 983.5 NA 0.0000 9999 6960 0 0 0
2019/06/19 12:32:00 BASE 1.13 1 3.91 355 -1.9 83 -4.4 0 0 983.5 NA 0.0000 9999 6920 0 0 0
2019/06/19 12:33:00 BASE 0.95 43 3.91 355 -1.9 83 -4.3 0 0 983.5 NA 0.0000 9999 6860 0 0 0
2019/06/19 12:34:00 BASE 1.83 100 3.50 1 -1.9 83 -4.4 0 0 983.5 NA 0.0000 9999 6920 0 0 0
2019/06/19 12:35:00 BASE 2.45 122 3.50 1 -2.0 83 -4.4 0 0 983.5 NA 0.0000 9999 6990 0 0 0
2019/06/19 12:36:00 BASE 2.65 133 3.24 137 -2.0 83 -4.5 0 0 983.5 NA 0.0000 9999 6960 0 0 0
2019/06/19 12:37:12 BASE 2.38 130 3.24 137 -2.1 83 -4.6 0 0 983.6 NA 0.0000 9999 7020 0 0 0
2019/06/19 12:38:00 BASE 2.75 118 3.91 113 -2.1 82 -4.8 0 0 983.5 NA 0.0000 9999 7020 0 0 0
2019/06/19 12:39:00 BASE 3.24 118 3.91 113 -2.2 81 -5.0 0 0 983.5 NA 0.0000 9999 7050 0 0 0
2019/06/19 12:40:00 BASE 2.69 119 3.91 113 -2.3 81 -5.2 0 0 983.5 NA 0.0000 9999 7020 0 0 0
2019/06/19 12:41:00 BASE 2.21 112 3.91 113 -2.3 80 -5.3 0 0 983.5 NA 0.0000 9999 7050 0 0 0
2019/06/19 12:42:00 BASE 2.14 104 3.91 113 -2.2 79 -5.3 0 0 983.5 NA 0.0000 9999 7020 0 0 0
2019/06/19 12:43:00 BASE 2.27 101 3.91 113 -2.1 78 -5.4 0 0 983.5 NA 0.0000 9999 7020 0 0 0
2019/06/19 12:44:00 BASE 2.69 98 3.91 113 -2.0 77 -5.5 0 0 983.5 NA 0.0000 9999 6990 0 0 0
2019/06/19 12:45:00 BASE 2.86 96 3.91 113 -1.9 76 -5.6 0 0 983.5 NA 0.0000 9999 6990 0 0 0
2019/06/19 12:46:00 BASE 2.61 99 3.91 113 -1.9 75 -5.7 0 0 983.5 NA 0.0000 9999 6990 0 0 0
2019/06/19 12:47:00 BASE 2.60 100 3.91 113 -1.8 74 -5.8 0 0 983.5 NA 0.0000 9999 7020 0 0 0
2019/06/19 12:48:01 BASE 2.41 104 3.50 119 -1.9 74 -6.0 0 0 983.4 NA 0.0000 9999 6960 0 0 0
2019/06/19 12:49:00 BASE 1.49 104 3.34 99 -1.9 73 -6.0 0 0 983.4 NA 0.0000 9999 7020 0 0 0
2019/06/19 12:50:01 BASE 0.85 102 3.34 99 -1.8 73 -6.0 0 0 983.4 NA 0.0000 9999 6990 0 0 0
2019/06/19 12:51:01 BASE 1.36 119 3.34 99 -1.8 73 -6.0 0 0 983.4 NA 0.0000 9999 6960 0 0 0
2019/06/19 12:52:00 BASE 1.72 134 3.34 99 -1.9 73 -6.1 0 0 983.3 NA 0.0000 9999 6990 0 0 0
2019/06/19 12:53:01 BASE 1.70 136 3.34 99 -1.9 73 -6.1 0 0 983.3 NA 0.0000 9999 6960 0 0 0
2019/06/19 12:54:00 BASE 1.53 131 3.04 101 -1.9 73 -6.1 0 0 983.3 NA 0.0000 9999 7020 0 0 0
2019/06/19 12:55:00 BASE 0.64 116 3.04 101 -2.0 74 -6.0 0 0 983.3 NA 0.0000 9999 6990 0 0 0
2019/06/19 12:56:00 BASE 0.00 94 3.04 101 -2.0 74 -6.0 0 0 983.3 NA 0.0000 9999 6990 0 0 0
2019/06/19 12:57:00 BASE 0.00 84 2.78 99 -1.9 74 -5.9 0 0 983.2 NA 0.0000 9999 6990 0 0 0
2019/06/19 12:58:01 BASE 0.00 121 2.11 130 -1.8 75 -5.8 0 0 983.2 NA 0.0000 9999 6960 0 0 0
2019/06/19 12:59:00 BASE 0.43 171 2.11 130 -1.8 74 -5.7 0 0 983.2 NA 0.0000 9999 6960 0 0 0
2019/06/19 13:00:00 BASE 1.15 174 2.11 130 -1.7 74 -5.7 0 0 983.2 NA 0.0000 9999 6960 0 0 0
2019/06/19 13:01:00 BASE 0.92 167 1.95 135 -1.7 74 -5.8 0 0 983.2 NA 0.0000 9999 6990 0 0 0
2019/06/19 13:02:01 BASE 0.20 161 1.95 135 -1.7 73 -5.8 0 0 983.2 NA 0.0000 9999 7020 0 0 0
2019/06/19 13:03:00 BASE 0.15 173 1.65 126 -1.7 73 -5.9 0 0 983.2 NA 0.0000 9999 7050 0 0 0
2019/06/19 13:04:01 BASE 1.11 197 2.06 209 -1.8 74 -5.9 0 0 983.2 NA 0.0000 9999 7120 0 0 0
2019/06/19 13:05:00 BASE 2.02 207 2.37 209 -1.8 74 -5.9 0 0 983.2 NA 0.0000 9999 7120 0 0 0
2019/06/19 13:06:00 BASE 2.16 207 2.37 209 -1.9 74 -5.9 0 0 983.2 NA 0.0000 9999 7050 0 0 0
2019/06/19 13:07:00 BASE 2.11 200 2.37 209 -2.0 74 -6.0 0 0 983.2 NA 0.0000 9999 7090 0 0 0
2019/06/19 13:08:00 BASE 1.67 192 2.37 209 -2.1 74 -6.1 0 0 983.2 NA 0.0000 9999 7050 0 0 0
2019/06/19 13:09:00 BASE 0.65 182 2.37 209 -2.3 75 -6.1 0 0 983.2 NA 0.0000 9999 7020 0 0 0
2019/06/19 13:10:00 BASE 0.00 157 2.37 209 -2.3 76 -6.0 0 0 983.2 NA 0.0000 9999 7020 0 0 0
2019/06/19 13:11:00 BASE 0.00 140 2.37 209 -2.4 77 -5.9 0 0 983.2 NA 0.0000 9999 7020 0 0 0
2019/06/19 13:12:00 BASE 0.00 138 2.37 209 -2.3 77 -5.8 0 0 983.1 NA 0.0000 9999 7050 0 0 0
2019/06/19 13:13:00 BASE 0.00 138 2.37 209 -2.3 78 -5.6 0 0 983.2 NA 0.0000 9999 7050 0 0 0
2019/06/19 13:14:00 BASE 0.00 141 2.37 209 -2.2 78 -5.5 0 0 983.2 NA 0.0000 9999 7020 0 0 0
2019/06/19 13:15:01 BASE 0.70 328 2.31 212 -2.2 78 -5.5 0 0 983.2 NA 0.0000 9999 7090 0 0 0
2019/06/19 13:16:00 BASE 1.71 329 2.21 333 -2.2 78 -5.5 0 0 983.1 NA 0.0000 9999 7090 0 0 0
2019/06/19 13:17:00 BASE 2.07 331 2.26 335 -2.1 78 -5.5 0 0 983.1 NA 0.0000 9999 7090 0 0 0
2019/06/19 13:18:00 BASE 2.01 327 2.26 335 -2.1 78 -5.4 0 0 983.1 NA 0.0000 9999 7090 0 0 0
2019/06/19 13:19:00 BASE 1.65 322 2.26 335 -2.1 78 -5.3 0 0 983.1 NA 0.0000 9999 7120 0 0 0
2019/06/19 13:20:00 BASE 1.38 320 2.26 335 -2.1 79 -5.3 0 0 983.1 NA 0.0000 9999 7120 0 0 0
2019/06/19 13:21:00 BASE 1.47 313 2.26 335 -2.1 79 -5.3 0 0 983.1 NA 0.0000 9999 7190 0 0 0
2019/06/19 13:22:00 BASE 1.92 308 2.52 306 -2.0 79 -5.2 0 0 983.1 NA 0.0000 9999 7190 0 0 0
2019/06/19 13:23:00 BASE 2.46 311 3.34 311 -2.0 79 -5.2 0 0 983.1 NA 0.0000 9999 7150 0 0 0
2019/06/19 13:24:00 BASE 2.63 315 3.34 311 -2.1 79 -5.2 0 0 983.1 NA 0.0000 9999 7150 0 0 0
2019/06/19 13:25:00 BASE 2.56 313 3.34 311 -2.1 80 -5.1 0 0 983.1 NA 0.0000 9999 7190 0 0 0
2019/06/19 13:26:01 BASE 2.53 305 3.34 311 -2.1 80 -5.1 0 0 983.0 NA 0.0000 9999 7220 0 0 0
2019/06/19 13:27:00 BASE 2.45 305 3.34 311 -2.1 81 -5.0 0 0 983.0 NA 0.0000 9999 7220 0 0 0
2019/06/19 13:28:00 BASE 2.29 308 3.34 311 -2.1 81 -4.8 0 0 983.0 NA 0.0000 9999 7220 0 0 0
2019/06/19 13:29:00 BASE 2.07 313 3.34 311 -2.0 82 -4.7 0 0 983.1 NA 0.0000 9999 7220 0 0 0
2019/06/19 13:30:00 BASE 1.87 310 3.34 311 -2.0 82 -4.6 0 0 983.0 NA 0.0000 9999 7220 0 0 0
2019/06/19 13:31:00 BASE 2.25 295 3.34 311 -2.0 83 -4.5 0 0 982.9 NA 0.0000 9999 7190 0 0 0
2019/06/19 13:32:00 BASE 3.24 288 4.94 290 -2.0 83 -4.4 0 0 982.9 NA 0.0000 9999 7190 0 0 0
2019/06/19 13:33:00 BASE 4.34 297 5.14 311 -2.0 84 -4.4 0 0 982.9 NA 0.0000 9999 7220 0 0 0
2019/06/19 13:34:00 BASE 5.11 313 6.02 331 -2.1 84 -4.4 0 0 982.9 NA 0.0000 9999 7250 0 0 0
2019/06/19 13:35:00 BASE 5.60 331 6.12 348 -2.1 84 -4.4 0 0 982.9 NA 0.0000 9999 7250 0 0 0
2019/06/19 13:36:00 BASE 5.99 345 6.38 348 -2.1 85 -4.3 0 0 982.9 NA 0.0000 9999 7250 0 0 0
2019/06/19 13:37:00 BASE 5.64 348 6.38 348 -2.1 85 -4.3 0 0 982.9 NA 0.0000 9999 7250 0 0 0
2019/06/19 13:38:00 BASE 4.37 336 6.38 348 -2.1 86 -4.2 0 0 982.9 NA 0.0000 9999 7250 0 0 0
2019/06/19 13:39:00 BASE 3.46 308 6.38 348 -2.1 86 -4.2 0 0 982.9 NA 0.0000 9999 7220 0 0 0
2019/06/19 13:40:00 BASE 3.74 280 6.38 348 -2.1 86 -4.1 0 0 982.8 NA 0.0000 9999 7220 0 0 0
2019/06/19 13:41:00 BASE 4.09 272 6.38 348 -2.1 86 -4.1 0 0 982.8 NA 0.0000 9999 7220 0 0 0
2019/06/19 13:42:00 BASE 3.49 283 6.38 348 -2.1 87 -4.1 0 0 982.8 NA 0.0000 9999 7280 0 0 0
2019/06/19 13:43:00 BASE 2.66 307 6.38 348 -2.1 87 -4.0 0 0 982.9 NA 0.0000 9999 7280 0 0 0
2019/06/19 13:44:00 BASE 2.84 336 6.38 348 -2.1 87 -4.0 0 0 982.9 NA 0.0000 9999 7320 0 0 0
2019/06/19 13:45:00 BASE 3.55 352 6.38 348 -2.1 87 -3.9 1 0 982.9 NA 0.0000 9999 7280 0 0 0
2019/06/19 13:46:01 BASE 3.80 360 5.92 353 -2.1 88 -3.9 1 0 982.9 NA 0.0000 9999 7250 0 0 0
2019/06/19 13:47:00 BASE 3.69 360 4.78 269 -2.2 88 -3.9 1 0 982.9 NA 0.0000 9999 7250 0 0 0
2019/06/19 13:48:01 BASE 3.42 353 4.78 269 -2.2 89 -3.8 1 0 982.9 NA 0.0000 9999 7220 0 0 0
2019/06/19 13:49:00 BASE 3.22 347 4.78 269 -2.2 89 -3.8 1 0 982.8 NA 0.0000 9999 7250 0 0 0
2019/06/19 13:50:00 BASE 3.24 353 4.58 277 -2.2 89 -3.7 1 0 982.8 NA 0.0000 9999 7280 0 0 0
2019/06/19 13:51:00 BASE 3.50 5 4.27 2 -2.2 89 -3.7 1 0 982.8 NA 0.0000 9999 7320 0 0 0
2019/06/19 13:52:00 BASE 3.74 18 4.27 2 -2.2 90 -3.7 1 0 982.8 NA 0.0000 9999 7320 0 0 0
2019/06/19 13:53:00 BASE 3.28 28 4.27 2 -2.2 90 -3.7 1 0 982.8 NA 0.0000 9999 7280 0 0 0
2019/06/19 13:54:00 BASE 2.69 47 4.27 2 -2.2 90 -3.7 1 0 982.8 NA 0.0000 9999 7280 0 0 0
2019/06/19 13:55:00 BASE 2.44 65 4.27 2 -2.3 90 -3.7 1 0 982.8 NA 0.0000 9999 7350 0 0 0
2019/06/19 13:56:00 BASE 2.20 71 4.22 20 -2.3 90 -3.7 1 0 982.8 NA 0.0000 9999 7740 0 0 0
2019/06/19 13:57:00 BASE 1.88 62 4.22 20 -2.4 90 -3.8 1 0 982.8 NA 0.0000 9999 7710 0 0 0
2019/06/19 13:58:00 BASE 1.52 40 4.22 20 -2.4 90 -3.8 1 0 982.7 NA 0.0000 9999 7970 0 0 0
2019/06/19 13:59:00 BASE 1.74 24 4.22 20 -2.4 90 -3.8 1 0 982.8 NA 0.0000 9999 8040 0 0 0
2019/06/19 14:00:00 BASE 2.01 17 4.22 20 -2.4 90 -3.8 1 0 982.8 NA 0.0000 9999 8040 0 0 0
2019/06/19 14:01:01 BASE 2.16 9 4.22 20 -2.3 90 -3.8 1 0 982.8 NA 0.0000 9999 7510 0 0 0
2019/06/19 14:02:00 BASE 2.69 4 3.50 26 -2.3 90 -3.8 1 0 982.8 NA 0.0000 9999 7550 0 0 0
2019/06/19 14:03:00 BASE 3.19 6 3.91 2 -2.3 90 -3.7 1 0 982.8 NA 0.0000 9999 7380 0 0 0
2019/06/19 14:04:00 BASE 3.44 4 3.91 2 -2.3 90 -3.7 1 0 982.8 NA 0.0000 9999 7350 0 0 0
2019/06/19 14:05:00 BASE 3.20 357 3.91 2 -2.2 90 -3.6 1 0 982.8 NA 0.0000 9999 7320 0 0 0
2019/06/19 14:06:00 BASE 2.63 342 3.91 2 -2.2 91 -3.6 2 0 982.8 NA 0.0000 9999 7350 0 0 0
2019/06/19 14:07:00 BASE 2.48 321 3.91 2 -2.2 91 -3.5 2 0 982.7 NA 0.0000 9999 7320 0 0 0
2019/06/19 14:08:00 BASE 2.98 308 4.32 306 -2.2 91 -3.5 2 0 982.7 NA 0.0000 9999 7250 0 0 0
2019/06/19 14:09:01 BASE 3.95 309 5.25 304 -2.2 91 -3.5 2 0 982.7 NA 0.0000 9999 7320 0 0 0
2019/06/19 14:10:00 BASE 4.87 310 5.92 310 -2.2 91 -3.5 2 0 982.7 NA 0.0000 9999 7320 0 0 0
2019/06/19 14:11:00 BASE 5.20 309 5.92 310 -2.2 91 -3.5 2 0 982.7 NA 0.0000 9999 7280 0 0 0
2019/06/19 14:12:00 BASE 4.82 309 5.92 310 -2.2 91 -3.6 2 0 982.8 NA 0.0000 9999 7280 0 0 0
2019/06/19 14:13:00 BASE 4.25 312 5.92 310 -2.2 90 -3.6 2 0 982.8 NA 0.0000 9999 7280 0 0 0
2019/06/19 14:14:00 BASE 4.18 315 5.92 310 -2.2 90 -3.6 2 0 982.8 NA 0.0000 9999 7350 0 0 0
2019/06/19 14:15:00 BASE 4.17 316 5.92 310 -2.2 90 -3.7 2 0 982.8 NA 0.0000 9999 7250 0 0 0
2019/06/19 14:16:00 BASE 3.96 316 5.92 310 -2.3 90 -3.7 2 0 982.7 NA 0.0000 9999 7250 0 0 0
2019/06/19 14:17:00 BASE 3.93 322 5.92 310 -2.3 90 -3.7 2 0 982.7 NA 0.0000 9999 7220 0 0 0
2019/06/19 14:18:00 BASE 3.82 331 5.92 310 -2.3 90 -3.6 2 0 982.7 NA 0.0000 9999 7450 0 0 0
2019/06/19 14:19:00 BASE 3.49 339 5.92 310 -2.3 91 -3.6 2 0 982.7 NA 0.0000 9999 0 0 0 0
2019/06/19 14:20:00 BASE 3.14 345 5.92 310 -2.3 91 -3.6 2 0 982.7 NA 0.0000 9999 0 0 0 0
2019/06/19 14:21:00 BASE 2.51 341 4.99 310 -2.3 91 -3.6 2 0 982.6 NA 0.0000 9999 0 0 0 0
2019/06/19 14:22:00 BASE 1.84 327 4.58 325 -2.3 91 -3.6 2 0 982.6 NA 0.0000 9999 0 0 0 0
2019/06/19 14:23:00 BASE 1.58 324 4.58 325 -2.3 91 -3.6 3 0 982.6 NA 0.0000 9999 0 0 0 0
2019/06/19 14:24:00 BASE 2.02 341 4.42 314 -2.3 91 -3.6 3 0 982.6 NA 0.0000 9999 0 0 0 0
2019/06/19 14:25:00 BASE 2.71 348 4.22 331 -2.3 91 -3.5 3 0 982.6 NA 0.0000 9999 0 0 0 0
2019/06/19 14:26:00 BASE 3.28 345 4.22 331 -2.3 91 -3.5 3 0 982.6 NA 0.0000 9999 0 0 0 0
2019/06/19 14:27:00 BASE 3.72 343 4.37 334 -2.3 92 -3.5 3 0 982.5 NA 0.0000 9999 0 0 0 0
2019/06/19 14:28:00 BASE 3.61 336 4.37 334 -2.4 92 -3.5 3 0 982.4 NA 0.0000 9999 0 0 0 0
2019/06/19 14:29:00 BASE 2.96 333 4.37 334 -2.4 92 -3.5 3 0 982.4 NA 0.0000 9999 0 0 0 0
2019/06/19 14:30:00 BASE 2.23 330 4.37 334 -2.4 92 -3.6 3 0 982.4 NA 0.0000 9999 0 0 0 0
2019/06/19 14:31:00 BASE 1.74 320 4.37 334 -2.4 92 -3.5 3 0 982.4 NA 0.0000 9999 0 0 0 0
2019/06/19 14:32:00 BASE 1.00 310 4.37 334 -2.4 92 -3.5 3 0 982.4 NA 0.0000 9999 0 0 0 0
2019/06/19 14:33:00 BASE 0.26 340 4.37 334 -2.4 92 -3.5 3 0 982.4 NA 0.0000 9999 0 0 0 0
2019/06/19 14:34:00 BASE 0.29 3 4.37 334 -2.3 92 -3.4 4 0 982.4 NA 0.0000 9999 0 0 0 0
2019/06/19 14:35:00 BASE 0.59 357 4.37 334 -2.3 92 -3.4 4 0 982.4 NA 0.0000 9999 0 0 0 0
2019/06/19 14:36:00 BASE 0.46 349 4.37 334 -2.3 92 -3.4 4 0 982.4 NA 0.0000 9999 0 0 0 0
2019/06/19 14:37:00 BASE 0.12 326 3.96 344 -2.3 92 -3.4 4 0 982.4 NA 0.0000 9999 0 0 0 0
2019/06/19 14:38:00 BASE 0.00 309 2.78 332 -2.3 92 -3.4 4 0 982.3 NA 0.0000 9999 0 0 0 0
2019/06/19 14:39:00 BASE 0.22 321 2.21 312 -2.3 92 -3.3 5 0 982.3 NA 0.0000 9999 0 0 0 0
2019/06/19 14:40:00 BASE 0.91 348 2.21 312 -2.3 93 -3.3 5 0 982.3 NA 0.0000 9999 0 0 0 0
2019/06/19 14:41:00 BASE 1.29 2 1.85 351 -2.2 93 -3.2 5 0 982.3 NA 0.0000 9999 0 0 0 0
2019/06/19 14:42:00 BASE 0.65 31 1.85 351 -2.2 93 -3.2 5 0 982.3 NA 0.0000 9999 0 0 0 0
2019/06/19 14:43:00 BASE 0.09 53 1.85 351 -2.2 93 -3.2 6 0 982.3 NA 0.0000 9999 0 0 0 0
2019/06/19 14:44:00 BASE 0.05 58 1.85 351 -2.3 93 -3.2 6 0 982.3 NA 0.0000 9999 0 0 0 0
2019/06/19 14:45:00 BASE 0.00 42 1.85 351 -2.3 93 -3.3 6 0 982.2 NA 0.0000 9999 0 0 0 0
2019/06/19 14:46:00 BASE 0.15 26 1.85 351 -2.3 93 -3.3 6 0 982.3 NA 0.0000 9999 0 0 0 0
2019/06/19 14:47:00 BASE 1.27 38 2.93 46 -2.3 93 -3.3 7 0 982.3 NA 0.0000 9999 0 0 0 0
2019/06/19 14:48:00 BASE 2.73 48 3.40 44 -2.4 93 -3.4 7 0 982.3 NA 0.0000 9999 0 0 0 0
2019/06/19 14:49:00 BASE 3.41 47 3.81 52 -2.4 93 -3.4 7 0 982.3 NA 0.0000 9999 0 0 0 0
2019/06/19 14:50:00 BASE 3.42 48 3.81 52 -2.5 92 -3.5 7 0 982.3 NA 0.0000 9999 0 0 0 0
2019/06/19 14:51:00 BASE 3.22 49 3.81 52 -2.5 92 -3.6 7 0 982.2 NA 0.0000 9999 0 0 0 0
2019/06/19 14:52:00 BASE 2.95 45 3.81 52 -2.6 92 -3.6 8 0 982.2 NA 0.0000 9999 0 0 0 0
2019/06/19 14:53:00 BASE 1.43 19 3.81 52 -2.5 93 -3.6 8 0 982.2 NA 0.0000 9999 0 0 0 0
2019/06/19 14:54:00 BASE 0.07 3 3.81 52 -2.5 93 -3.5 8 0 982.1 NA 0.0000 9999 0 0 0 0
2019/06/19 14:55:00 BASE 0.00 39 3.81 52 -2.5 93 -3.5 8 0 982.1 NA 0.0000 9999 0 0 0 0
2019/06/19 14:56:00 BASE 0.00 85 3.81 52 -2.5 93 -3.4 9 0 982.0 NA 0.0000 9999 0 0 0 0
2019/06/19 14:57:00 BASE 0.00 186 3.81 52 -2.4 93 -3.4 9 0 982.0 NA 0.0000 9999 0 0 0 0
2019/06/19 14:58:00 BASE 0.00 197 3.81 52 -2.4 93 -3.4 9 0 982.0 NA 0.0000 9999 0 0 0 0
2019/06/19 14:59:00 BASE 0.00 224 3.50 51 -2.4 93 -3.4 9 0 982.0 NA 0.0000 9999 0 0 0 0
2019/06/19 15:00:00 BASE 0.00 250 3.45 51 -2.4 93 -3.4 9 0 982.0 NA 0.0000 9999 0 0 0 0
2019/06/19 15:01:00 BASE 0.00 214 3.40 50 -2.4 93 -3.4 10 0 982.0 NA 0.0000 9999 0 0 0 0
2019/06/19 15:02:00 BASE 0.37 148 2.31 78 -2.4 93 -3.4 10 0 982.1 NA 0.0000 9999 0 0 0 0
2019/06/19 15:03:00 BASE 1.52 87 2.62 72 -2.4 92 -3.4 10 0 982.0 NA 0.0000 9999 0 0 0 0
2019/06/19 15:04:00 BASE 1.69 82 2.62 72 -2.4 92 -3.4 10 0 982.0 NA 0.0000 9999 0 0 0 0
2019/06/19 15:05:00 BASE 1.03 93 2.98 92 -2.3 92 -3.4 10 0 982.0 NA 0.0000 9999 0 0 0 0
2019/06/19 15:06:00 BASE 1.64 95 2.98 92 -2.4 92 -3.5 11 0 981.9 NA 0.0000 9999 0 0 0 0
2019/06/19 15:07:00 BASE 2.11 95 2.98 92 -2.4 92 -3.5 11 0 981.8 NA 0.0000 9999 0 0 0 0
2019/06/19 15:08:00 BASE 1.25 89 2.98 92 -2.4 92 -3.6 11 0 981.8 NA 0.0000 9999 0 0 0 0
2019/06/19 15:09:00 BASE 0.40 77 2.98 92 -2.4 92 -3.5 11 0 981.8 NA 0.0000 9999 0 0 0 0
2019/06/19 15:10:00 BASE 0.88 65 2.98 92 -2.5 92 -3.5 11 0 981.8 NA 0.0000 9999 0 0 0 0
2019/06/19 15:11:00 BASE 1.62 60 2.98 92 -2.4 93 -3.5 11 0 981.8 NA 0.0000 9999 0 0 0 0
2019/06/19 15:12:00 BASE 1.55 64 2.98 92 -2.4 93 -3.4 11 0 981.8 NA 0.0000 9999 0 0 0 0
2019/06/19 15:13:00 BASE 1.23 61 2.98 92 -2.4 93 -3.4 11 0 981.8 NA 0.0000 9999 0 0 0 0
2019/06/19 15:14:00 BASE 1.50 48 2.98 92 -2.4 93 -3.4 11 0 981.8 NA 0.0000 9999 0 0 0 0
2019/06/19 15:15:00 BASE 1.95 33 2.83 89 -2.4 93 -3.4 12 0 981.8 NA 0.0000 9999 0 0 0 0
2019/06/19 15:16:00 BASE 1.64 27 2.52 42 -2.4 93 -3.4 12 0 981.7 NA 0.0000 9999 0 0 0 0
2019/06/19 15:17:00 BASE 1.17 19 2.52 42 -2.4 93 -3.4 12 0 981.7 NA 0.0000 9999 0 0 0 0
2019/06/19 15:18:00 BASE 0.50 354 2.52 42 -2.4 93 -3.4 12 0 981.6 NA 0.0000 9999 0 0 0 0
2019/06/19 15:19:00 BASE 0.00 354 2.52 42 -2.4 93 -3.4 12 0 981.6 NA 0.0000 9999 0 0 0 0
2019/06/19 15:20:00 BASE 0.00 358 2.52 42 -2.3 93 -3.3 12 0 981.6 NA 0.0000 9999 0 0 0 0
2019/06/19 15:21:00 BASE 0.00 36 2.52 42 -2.3 93 -3.3 13 0 981.6 NA 0.0000 9999 0 0 0 0
2019/06/19 15:22:00 BASE 0.09 127 2.52 42 -2.3 93 -3.3 13 0 981.6 NA 0.0000 9999 0 0 0 0
2019/06/19 15:23:00 BASE 0.47 125 2.52 42 -2.3 93 -3.3 13 0 981.6 NA 0.0000 9999 0 0 0 0
2019/06/19 15:24:00 BASE 1.20 89 2.37 31 -2.3 93 -3.3 13 0 981.6 NA 0.0000 9999 0 0 0 0
2019/06/19 15:25:00 BASE 1.38 82 1.90 91 -2.4 93 -3.4 13 0 981.6 NA 0.0000 9999 0 0 0 0
2019/06/19 15:26:00 BASE 1.33 78 2.11 68 -2.4 93 -3.4 13 0 981.6 NA 0.0000 9999 0 0 0 0
2019/06/19 15:27:00 BASE 2.13 74 3.19 71 -2.5 93 -3.4 14 0 981.5 NA 0.0000 9999 0 0 0 0
2019/06/19 15:28:00 BASE 2.91 76 3.70 89 -2.5 94 -3.4 14 0 981.5 NA 0.0000 9999 0 0 0 0
2019/06/19 15:29:00 BASE 3.00 92 3.70 89 -2.6 94 -3.4 14 0 981.5 NA 0.0000 9999 0 0 0 0
2019/06/19 15:30:00 BASE 2.57 102 3.70 89 -2.6 94 -3.4 14 0 981.4 NA 0.0000 9999 0 0 0 0
2019/06/19 15:31:00 BASE 2.00 111 3.70 89 -2.6 94 -3.4 15 0 981.4 NA 0.0000 9999 0 0 0 0
2019/06/19 15:32:00 BASE 1.49 117 3.70 89 -2.6 94 -3.4 15 0 981.3 NA 0.0000 9999 0 0 0 0
2019/06/19 15:33:00 BASE 0.65 115 3.70 89 -2.6 94 -3.4 15 0 981.2 NA 0.0000 9999 0 0 0 0
2019/06/19 15:34:00 BASE 0.04 120 3.70 89 -2.5 95 -3.3 16 0 981.2 NA 0.0000 9999 0 0 0 0
2019/06/19 15:35:00 BASE 0.00 151 3.70 89 -2.5 95 -3.2 16 0 981.2 NA 0.0000 9999 0 0 0 0
2019/06/19 15:36:00 BASE 0.00 201 3.70 89 -2.5 95 -3.2 16 0 981.2 NA 0.0000 9999 0 0 0 0
2019/06/19 15:37:00 BASE 0.00 225 3.70 89 -2.4 95 -3.1 16 0 981.2 NA 0.0000 9999 0 0 0 0
2019/06/19 15:38:00 BASE 0.00 269 3.29 83 -2.4 95 -3.1 17 0 981.2 NA 0.0000 9999 0 0 0 0
2019/06/19 15:39:00 BASE 0.39 321 2.78 107 -2.3 95 -3.0 17 0 981.1 NA 0.0000 9999 0 0 0 0
2019/06/19 15:40:00 BASE 1.15 354 2.26 104 -2.4 95 -3.0 17 0 981.0 NA 0.0000 9999 0 0 0 0
2019/06/19 15:41:00 BASE 1.86 18 2.68 44 -2.4 95 -3.1 17 0 981.0 NA 0.0000 9999 0 0 0 0
2019/06/19 15:42:00 BASE 2.51 41 3.04 55 -2.5 95 -3.2 17 0 981.0 NA 0.0000 9999 0 0 0 0
2019/06/19 15:43:00 BASE 3.11 53 3.81 61 -2.6 95 -3.3 18 0 981.0 NA 0.0000 9999 0 0 0 0
2019/06/19 15:44:00 BASE 3.43 62 3.81 61 -2.6 95 -3.3 18 0 981.0 NA 0.0000 9999 0 0 0 0
2019/06/19 15:45:00 BASE 3.14 64 3.81 61 -2.7 95 -3.3 18 0 981.0 NA 0.0000 9999 0 0 0 0
2019/06/19 15:46:00 BASE 2.77 57 3.81 61 -2.7 95 -3.3 18 0 981.0 NA 0.0000 9999 0 0 0 0
2019/06/19 15:47:00 BASE 2.65 55 3.81 61 -2.6 96 -3.3 18 0 981.0 NA 0.0000 9999 0 0 0 0
2019/06/19 15:48:00 BASE 2.50 54 3.81 61 -2.6 96 -3.2 18 0 981.0 NA 0.0000 9999 0 0 0 0
2019/06/19 15:49:00 BASE 2.48 51 3.81 61 -2.6 96 -3.1 18 0 980.9 NA 0.0000 9999 0 0 0 0
2019/06/19 15:50:00 BASE 2.81 48 3.81 61 -2.5 96 -3.1 18 0 980.9 NA 0.0000 9999 0 0 0 0
2019/06/19 15:51:00 BASE 3.33 43 3.86 41 -2.6 96 -3.1 18 0 980.9 NA 0.0000 9999 0 0 0 0
2019/06/19 15:52:00 BASE 3.68 43 3.91 44 -2.6 96 -3.1 18 0 980.9 NA 0.0000 9999 0 0 0 0
2019/06/19 15:53:00 BASE 3.66 48 3.91 44 -2.6 96 -3.1 17 0 980.8 NA 0.0000 9999 0 0 0 0
2019/06/19 15:54:00 BASE 3.29 59 3.91 44 -2.6 96 -3.1 18 0 980.8 NA 0.0000 9999 0 0 0 0
2019/06/19 15:55:00 BASE 2.86 74 3.91 44 -2.7 97 -3.1 18 0 980.8 NA 0.0000 9999 0 0 0 0
2019/06/19 15:56:00 BASE 2.30 85 3.91 44 -2.7 97 -3.1 18 0 980.8 NA 0.0000 9999 0 0 0 0
2019/06/19 15:57:00 BASE 2.11 89 3.91 44 -2.7 97 -3.1 18 0 980.8 NA 0.0000 9999 0 0 0 0
2019/06/19 15:58:00 BASE 2.31 90 3.91 44 -2.7 97 -3.2 18 0 980.8 NA 0.0000 9999 0 0 0 0
2019/06/19 15:59:00 BASE 2.36 88 3.91 44 -2.8 97 -3.2 18 0 980.7 NA 0.0000 9999 0 0 0 0
2019/06/19 16:00:00 BASE 2.22 83 3.91 44 -2.8 97 -3.2 18 0 980.7 NA 0.0000 9999 7780 0 0 0
2019/06/19 16:01:00 BASE 1.94 84 3.91 44 -2.7 97 -3.1 18 0 980.7 NA 0.0000 9999 7910 0 0 0
2019/06/19 16:02:01 BASE 1.89 92 3.81 43 -2.7 97 -3.0 18 0 980.7 NA 0.0000 9999 7970 0 0 0
2019/06/19 16:03:00 BASE 1.99 102 3.29 55 -2.6 97 -3.0 18 0 980.7 NA 0.0000 9999 8040 0 0 0
2019/06/19 16:04:00 BASE 2.05 113 3.19 78 -2.5 97 -2.9 18 0 980.6 NA 0.0000 9999 7870 0 0 0
2019/06/19 16:05:00 BASE 2.03 119 2.88 88 -2.6 97 -2.9 18 0 980.6 NA 0.0000 9999 8010 0 0 0
2019/06/19 16:06:00 BASE 1.93 120 2.88 88 -2.6 97 -3.0 18 0 980.6 NA 0.0000 9999 8460 0 0 0
2019/06/19 16:07:00 BASE 2.00 114 2.88 88 -2.7 97 -3.1 18 0 980.6 NA 0.0000 9999 8630 0 0 0
2019/06/19 16:08:00 BASE 2.30 105 2.68 99 -2.7 97 -3.1 17 0 980.6 NA 0.0000 9999 8270 0 0 0
2019/06/19 16:09:00 BASE 2.66 97 2.98 93 -2.7 97 -3.1 17 0 980.6 NA 0.0000 9999 8300 0 0 0
2019/06/19 16:10:00 BASE 2.95 94 3.19 98 -2.6 97 -3.0 17 0 980.5 NA 0.0000 9999 8170 0 0 0
2019/06/19 16:11:00 BASE 3.20 99 3.50 112 -2.6 97 -3.0 17 0 980.4 NA 0.0000 9999 8300 0 0 0
2019/06/19 16:12:00 BASE 3.47 106 3.86 110 -2.5 97 -2.9 16 0 980.4 NA 0.0000 9999 8270 0 0 0
2019/06/19 16:13:00 BASE 3.54 111 3.86 110 -2.5 97 -3.0 16 0 980.4 NA 0.0000 9999 8530 0 0 0
2019/06/19 16:14:01 BASE 3.55 111 3.86 111 -2.5 96 -3.0 16 0 980.3 NA 0.0000 9999 8430 0 0 0
2019/06/19 16:15:00 BASE 4.03 114 4.89 125 -2.5 96 -3.1 15 0 980.3 NA 0.0000 9999 8500 0 0 0
2019/06/19 16:16:00 BASE 4.68 122 5.45 127 -2.6 96 -3.2 15 0 980.3 NA 0.0000 9999 8630 0 0 0
2019/06/19 16:17:00 BASE 5.01 127 5.50 130 -2.6 95 -3.3 15 0 980.2 NA 0.0000 9999 8460 0 0 0
2019/06/19 16:18:00 BASE 5.25 129 5.71 130 -2.7 95 -3.3 15 0 980.2 NA 0.0000 9999 8270 0 0 0
2019/06/19 16:19:00 BASE 5.45 128 6.12 127 -2.7 95 -3.4 15 0 980.1 NA 0.0000 9999 8500 0 0 0
2019/06/19 16:20:00 BASE 5.70 124 6.17 125 -2.7 95 -3.4 15 0 980.1 NA 0.0000 9999 8370 0 0 0
2019/06/19 16:21:01 BASE 5.86 121 6.38 121 -2.7 95 -3.4 15 0 980.1 NA 0.0000 9999 7970 0 0 0
2019/06/19 16:22:00 BASE 5.77 123 6.38 120 -2.7 95 -3.4 15 0 980.1 NA 0.0000 9999 8100 0 0 0
2019/06/19 16:23:00 BASE 6.34 119 7.87 111 -2.7 95 -3.4 16 0 980.1 NA 0.0000 9999 8270 0 0 0
2019/06/19 16:24:00 BASE 7.33 110 8.03 104 -2.7 95 -3.5 16 0 980.1 NA 0.0000 9999 8530 0 0 0
2019/06/19 16:25:01 BASE 7.73 107 8.03 104 -2.7 94 -3.5 16 0 980.0 NA 0.0000 9999 8370 0 0 0
2019/06/19 16:26:00 BASE 7.31 109 8.03 104 -2.8 94 -3.6 17 0 980.0 NA 0.0000 9999 8690 0 0 0
2019/06/19 16:27:00 BASE 6.85 114 8.03 104 -2.9 94 -3.7 17 0 979.9 NA 0.0000 9999 8400 0 0 0
2019/06/19 16:28:00 BASE 6.96 119 8.03 104 -2.8 94 -3.7 18 0 979.9 NA 0.0000 9999 8300 0 0 0
2019/06/19 16:29:00 BASE 6.38 123 8.03 104 -2.8 94 -3.7 18 0 979.9 NA 0.0000 9999 8400 0 0 0
2019/06/19 16:30:00 BASE 5.31 123 8.03 104 -2.8 93 -3.7 19 0 979.9 NA 0.0000 9999 8270 0 0 0
2019/06/19 16:31:00 BASE 4.68 121 8.03 104 -2.7 93 -3.7 19 0 979.8 NA 0.0000 9999 8300 0 0 0
2019/06/19 16:32:00 BASE 4.22 119 8.03 104 -2.7 92 -3.8 19 0 979.8 NA 0.0000 9999 8270 0 0 0
2019/06/19 16:33:00 BASE 3.93 120 8.03 104 -2.7 92 -3.8 19 0 979.8 NA 0.0000 9999 8240 0 0 0
2019/06/19 16:34:00 BASE 4.28 122 7.92 105 -2.7 91 -3.9 18 0 979.8 NA 0.0000 9999 8200 0 0 0
2019/06/19 16:35:00 BASE 4.55 122 7.56 111 -2.7 90 -4.0 18 0 979.8 NA 0.0000 9999 8200 0 0 0
2019/06/19 16:36:00 BASE 4.72 123 7.51 124 -2.7 90 -4.1 17 0 979.8 NA 0.0000 9999 8240 0 0 0
2019/06/19 16:37:00 BASE 5.44 123 7.51 124 -2.7 89 -4.2 17 0 979.8 NA 0.0000 9999 21920 0 0 0
2019/06/19 16:38:00 BASE 5.77 124 6.84 130 -2.7 89 -4.3 16 0 979.8 NA 0.0000 9999 8370 0 0 0
2019/06/19 16:39:00 BASE 6.21 126 7.92 129 -2.7 88 -4.3 16 0 979.8 NA 0.0000 9999 8660 0 0 0
2019/06/19 16:40:00 BASE 6.29 125 7.92 129 -2.7 88 -4.4 16 0 979.7 NA 0.0000 9999 8040 0 0 0
2019/06/19 16:41:00 BASE 5.55 125 7.92 129 -2.6 88 -4.4 15 0 979.7 NA 0.0000 9999 7840 0 0 0
2019/06/19 16:42:00 BASE 5.75 126 7.92 129 -2.6 87 -4.5 15 0 979.6 NA 0.0000 9999 7780 0 0 0
2019/06/19 16:43:00 BASE 6.29 123 7.92 129 -2.6 86 -4.5 14 0 979.5 NA 0.0000 9999 8170 0 0 0
2019/06/19 16:44:00 BASE 6.08 109 7.92 129 -2.5 86 -4.6 13 0 979.5 NA 0.0000 9999 7970 0 0 0
2019/06/19 16:45:00 BASE 5.90 103 7.92 129 -2.5 85 -4.7 13 0 979.5 NA 0.0000 9999 8660 0 0 0
2019/06/19 16:46:00 BASE 6.13 103 7.92 129 -2.5 84 -4.8 12 0 979.5 NA 0.0000 9999 8370 0 0 0
2019/06/19 16:47:00 BASE 6.72 97 7.92 129 -2.5 83 -5.0 12 0 979.5 NA 0.0000 9999 8530 0 0 0
2019/06/19 16:48:00 BASE 6.77 102 7.92 129 -2.6 82 -5.2 12 0 979.5 NA 0.0000 9999 6370 0 0 0
2019/06/19 16:49:00 BASE 6.79 107 8.49 100 -2.5 82 -5.3 11 0 979.5 NA 0.0000 9999 8170 0 0 0
2019/06/19 16:50:00 BASE 7.82 100 9.67 91 -2.5 81 -5.3 11 0 979.6 NA 0.0000 9999 8040 0 0 0
2019/06/19 16:51:00 BASE 8.39 88 10.91 94 -2.5 80 -5.4 10 0 979.5 NA 0.0000 9999 7870 0 0 0
2019/06/19 16:52:00 BASE 7.50 65 10.91 94 -2.5 80 -5.4 10 0 979.4 NA 0.0000 9999 7320 0 0 0
2019/06/19 16:53:00 BASE 7.52 59 10.91 94 -2.4 80 -5.4 10 0 979.5 NA 0.0000 9999 6590 0 0 0
2019/06/19 16:54:00 BASE 9.78 69 13.53 77 -2.4 80 -5.4 10 0 979.4 NA 0.0000 9999 6890 0 0 0
2019/06/19 16:55:00 BASE 12.82 73 16.72 71 -2.4 80 -5.4 9 0 979.4 NA 0.0000 9999 6690 0 0 0
2019/06/19 16:56:00 BASE 14.73 73 16.72 71 -2.3 80 -5.3 9 0 979.4 NA 0.0000 9999 6890 0 0 0
2019/06/19 16:57:00 BASE 14.04 72 16.72 71 -2.3 80 -5.2 9 0 979.4 NA 0.0000 9999 6960 0 0 0
2019/06/19 16:58:00 BASE 13.93 71 16.72 71 -2.2 81 -5.1 8 0 979.3 NA 0.0000 9999 7050 0 0 0
2019/06/19 16:59:00 BASE 14.49 73 16.72 71 -2.2 81 -5.0 8 0 979.3 NA 0.0000 9999 7150 0 0 0
2019/06/19 17:00:01 BASE 13.56 74 16.72 71 -2.1 81 -4.8 8 0 979.3 NA 0.0000 9999 6960 0 0 0
2019/06/19 17:01:00 BASE 12.59 79 16.72 71 -2.0 82 -4.7 8 0 979.3 NA 0.0000 9999 6630 0 0 0
2019/06/19 17:02:00 BASE 13.05 83 16.72 71 -1.9 81 -4.7 7 0 979.3 NA 0.0000 9999 6730 0 0 0
2019/06/19 17:03:00 BASE 13.45 83 16.72 71 -1.9 81 -4.8 7 0 979.2 NA 0.0000 9999 6760 0 0 0
2019/06/19 17:04:00 BASE 13.04 81 16.72 71 -1.9 80 -4.9 7 0 979.3 NA 0.0000 9999 6590 0 0 0
2019/06/19 17:05:00 BASE 12.77 81 16.41 70 -1.9 79 -5.1 7 0 979.2 NA 0.0000 9999 6920 0 0 0
2019/06/19 17:06:00 BASE 12.18 80 16.41 70 -2.0 78 -5.3 7 0 979.2 NA 0.0000 9999 6460 0 0 0
2019/06/19 17:07:00 BASE 13.19 80 16.41 70 -2.0 78 -5.4 7 0 979.1 NA 0.0000 9999 6330 0 0 0
2019/06/19 17:08:00 BASE 14.58 80 15.95 76 -2.0 77 -5.5 6 0 979.2 NA 0.0000 9999 6460 0 0 0
2019/06/19 17:09:00 BASE 14.22 77 15.95 76 -2.0 77 -5.6 6 0 979.2 NA 0.0000 9999 6560 0 0 0
2019/06/19 17:10:00 BASE 14.03 78 15.95 76 -2.0 76 -5.7 6 0 979.2 NA 0.0000 9999 7640 0 0 0
2019/06/19 17:11:00 BASE 15.19 79 18.42 76 -2.0 76 -5.7 6 0 979.2 NA 0.0000 9999 8170 0 0 0
2019/06/19 17:12:00 BASE 16.91 77 19.50 85 -2.0 75 -5.8 6 0 979.1 NA 0.0000 9999 6560 0 0 0
2019/06/19 17:13:00 BASE 17.27 77 19.50 85 -2.0 75 -5.9 6 0 979.2 NA 0.0000 9999 6370 0 0 0
2019/06/19 17:14:00 BASE 16.23 79 19.50 85 -2.1 75 -6.0 6 0 979.1 NA 0.0000 9999 6400 0 0 0
2019/06/19 17:15:00 BASE 15.79 80 19.50 85 -2.1 75 -6.0 6 0 979.2 NA 0.0000 9999 6500 0 0 0
2019/06/19 17:16:00 BASE 15.62 80 19.50 85 -2.1 75 -6.0 6 0 979.1 NA 0.0000 9999 6430 0 0 0
2019/06/19 17:17:00 BASE 14.74 80 19.50 85 -2.2 75 -6.1 6 0 979.2 NA 0.0000 9999 6330 0 0 0
2019/06/19 17:18:00 BASE 14.11 79 19.50 85 -2.2 75 -6.1 6 0 979.2 NA 0.0000 9999 6300 0 0 0
2019/06/19 17:19:00 BASE 13.75 75 19.50 85 -2.2 75 -6.0 6 0 979.2 NA 0.0000 9999 6370 0 0 0
2019/06/19 17:20:00 BASE 14.19 72 19.50 85 -2.1 75 -6.0 6 0 979.2 NA 0.0000 9999 6690 0 0 0
2019/06/19 17:21:00 BASE 15.40 71 19.50 85 -2.1 74 -6.0 6 0 979.2 NA 0.0000 9999 7190 0 0 0
2019/06/19 17:22:00 BASE 16.00 76 19.03 74 -2.0 74 -6.1 6 0 979.2 NA 0.0000 9999 7550 0 0 0
2019/06/19 17:23:00 BASE 16.41 79 18.98 68 -2.1 74 -6.2 5 0 979.1 NA 0.0000 9999 6660 0 0 0
2019/06/19 17:24:00 BASE 16.55 79 18.98 68 -2.2 74 -6.2 5 0 979.1 NA 0.0000 9999 6820 0 0 0
2019/06/19 17:25:00 BASE 15.62 78 18.98 68 -2.3 74 -6.3 5 0 979.1 NA 0.0000 9999 5540 0 0 0
2019/06/19 17:26:00 BASE 15.61 77 20.32 76 -2.4 75 -6.2 5 0 979.0 NA 0.0000 9999 5610 0 0 0
2019/06/19 17:27:00 BASE 15.74 80 20.32 76 -2.5 76 -6.2 5 0 979.1 NA 0.0000 9999 7420 0 0 0
2019/06/19 17:28:00 BASE 13.97 83 20.32 76 -2.5 76 -6.1 5 0 979.1 NA 0.0000 9999 5940 0 0 0
2019/06/19 17:29:00 BASE 13.70 82 20.32 76 -2.4 76 -6.0 5 0 979.0 NA 0.0000 9999 7220 0 0 0
2019/06/19 17:30:00 BASE 14.31 81 20.32 76 -2.4 76 -6.0 5 0 979.0 NA 0.0000 9999 7840 0 0 0
2019/06/19 17:31:00 BASE 14.64 85 20.32 76 -2.3 76 -6.0 5 0 979.0 NA 0.0000 9999 5810 0 0 0
2019/06/19 17:32:00 BASE 15.32 86 20.32 76 -2.3 76 -6.0 5 0 978.9 NA 0.0000 9999 7380 0 0 0
2019/06/19 17:33:00 BASE 15.19 89 20.32 76 -2.3 76 -6.0 5 0 979.0 NA 0.0000 9999 6890 0 0 0
2019/06/19 17:34:00 BASE 15.32 92 20.32 76 -2.3 76 -6.0 5 0 978.9 NA 0.0000 9999 6920 0 0 0
2019/06/19 17:35:00 BASE 16.64 89 20.32 76 -2.3 76 -6.0 5 0 978.9 NA 0.0000 9999 7120 0 0 0
2019/06/19 17:36:00 BASE 17.32 85 19.50 84 -2.4 76 -6.1 5 0 978.8 NA 0.0000 9999 8070 0 0 0
2019/06/19 17:37:00 BASE 16.46 84 19.50 84 -2.4 76 -6.1 5 0 978.6 NA 0.0000 9999 8010 0 0 0
2019/06/19 17:38:00 BASE 16.11 83 19.50 84 -2.4 76 -6.1 5 0 978.6 NA 0.0000 9999 7840 0 0 0
2019/06/19 17:39:00 BASE 16.20 84 19.50 84 -2.4 76 -6.1 4 0 978.7 NA 0.0000 9999 7870 0 0 0
2019/06/19 17:40:00 BASE 16.62 86 19.50 84 -2.4 76 -6.1 4 0 978.6 NA 0.0000 9999 4330 0 0 0
2019/06/19 17:41:00 BASE 16.68 89 19.50 84 -2.4 76 -6.1 4 0 978.6 NA 0.0000 9999 4200 0 0 0
2019/06/19 17:42:00 BASE 15.47 93 19.50 84 -2.4 75 -6.1 4 0 978.6 NA 0.0000 9999 7610 0 0 0
2019/06/19 17:43:00 BASE 14.46 95 19.50 84 -2.4 75 -6.1 4 0 978.6 NA 0.0000 9999 7120 0 0 0
2019/06/19 17:44:00 BASE 14.57 96 19.50 84 -2.4 75 -6.2 4 0 978.6 NA 0.0000 9999 6370 0 0 0
2019/06/19 17:45:00 BASE 15.80 100 19.14 76 -2.5 76 -6.2 4 0 978.7 NA 0.0000 9999 5910 0 0 0
2019/06/19 17:46:00 BASE 14.95 108 18.57 85 -2.5 76 -6.1 4 0 978.6 NA 0.0000 9999 5610 0 0 0
2019/06/19 17:47:00 BASE 14.65 105 18.67 86 -2.5 77 -6.1 4 0 978.6 NA 0.0000 9999 5510 0 0 0
2019/06/19 17:48:00 BASE 16.45 93 18.67 86 -2.5 77 -6.1 4 0 978.6 NA 0.0000 9999 5180 0 0 0
2019/06/19 17:49:00 BASE 16.59 89 18.67 86 -2.5 77 -6.0 4 0 978.5 NA 0.0000 9999 6270 0 0 0
2019/06/19 17:50:00 BASE 15.83 91 18.67 86 -2.6 77 -6.0 3 0 978.5 NA 0.0000 9999 6630 0 0 0
2019/06/19 17:51:00 BASE 15.53 90 19.55 74 -2.6 77 -6.0 3 0 978.3 NA 0.0000 9999 6560 0 0 0
2019/06/19 17:52:00 BASE 15.59 86 19.55 74 -2.6 77 -6.0 3 0 978.4 NA 0.0000 9999 6370 0 0 0
2019/06/19 17:53:00 BASE 15.44 88 19.55 74 -2.6 78 -6.0 3 0 978.4 NA 0.0000 9999 6560 0 0 0
2019/06/19 17:54:00 BASE 15.64 92 19.55 74 -2.6 78 -5.9 3 0 978.5 NA 0.0000 9999 6040 0 0 0
2019/06/19 17:55:00 BASE 15.57 100 19.55 74 -2.6 78 -5.9 3 0 978.6 NA 0.0000 9999 5740 0 0 0
2019/06/19 17:56:00 BASE 14.98 108 19.55 74 -2.6 78 -5.9 3 0 978.6 NA 0.0000 9999 5870 0 0 0
2019/06/19 17:57:00 BASE 13.86 112 19.55 74 -2.6 78 -5.8 3 0 978.6 NA 0.0000 9999 6000 0 0 0
2019/06/19 17:58:00 BASE 12.93 113 19.55 74 -2.6 78 -5.8 3 0 978.6 NA 0.0000 9999 5870 0 0 0
2019/06/19 17:59:00 BASE 12.34 108 19.55 74 -2.5 79 -5.7 3 0 978.6 NA 0.0000 9999 5940 0 0 0
2019/06/19 18:00:01 BASE 11.97 98 19.55 74 -2.5 79 -5.7 2 0 978.5 NA 0.0000 9999 6070 0 0 0
2019/06/19 18:01:00 BASE 13.99 85 18.42 88 -2.5 79 -5.7 2 0 978.5 NA 0.0000 9999 7810 0 0 0
2019/06/19 18:02:00 BASE 13.72 84 18.42 88 -2.4 78 -5.7 2 0 978.5 NA 0.0000 9999 7480 0 0 0
2019/06/19 18:03:00 BASE 12.09 84 17.90 73 -2.4 78 -5.6 2 0 978.4 NA 0.0000 9999 7810 0 0 0
2019/06/19 18:04:00 BASE 14.09 77 17.90 73 -2.3 78 -5.7 2 0 978.4 NA 0.0000 9999 7640 0 0 0
2019/06/19 18:05:00 BASE 15.85 84 19.03 79 -2.3 78 -5.7 2 0 978.6 NA 0.0000 9999 6170 7810 0 0
2019/06/19 18:06:00 BASE 15.43 91 19.03 79 -2.4 77 -5.8 2 0 978.5 NA 0.0000 9999 6560 0 0 0
2019/06/19 18:07:00 BASE 14.70 94 19.03 79 -2.4 77 -5.8 2 0 978.6 NA 0.0000 9999 5940 8100 0 0
2019/06/19 18:08:00 BASE 14.26 95 19.03 79 -2.5 77 -5.9 2 0 978.5 NA 0.0000 9999 6040 7510 0 0
2019/06/19 18:09:00 BASE 15.13 91 19.03 79 -2.5 78 -5.9 2 0 978.6 NA 0.0000 9999 6070 7510 0 0
2019/06/19 18:10:01 BASE 14.49 95 19.03 79 -2.6 78 -5.9 2 0 978.5 NA 0.0000 9999 6040 0 0 0
2019/06/19 18:11:00 BASE 12.57 92 19.03 79 -2.5 78 -5.8 2 0 978.3 NA 0.0000 9999 8140 0 0 0
2019/06/19 18:12:00 BASE 13.31 78 19.03 79 -2.4 78 -5.7 2 0 978.2 NA 0.0000 9999 7550 0 0 0
2019/06/19 18:13:00 BASE 13.03 78 19.03 79 -2.3 78 -5.7 2 0 978.2 NA 0.0000 9999 7450 0 0 0
2019/06/19 18:14:00 BASE 13.06 82 19.03 79 -2.2 77 -5.7 2 0 978.2 NA 0.0000 9999 7550 0 0 0
2019/06/19 18:15:00 BASE 14.39 87 18.52 86 -2.1 76 -5.7 2 0 978.3 NA 0.0000 9999 7150 0 0 0
2019/06/19 18:16:00 BASE 15.89 88 19.81 81 -2.0 75 -5.8 2 0 978.2 NA 0.0000 9999 7190 0 0 0
2019/06/19 18:17:00 BASE 16.73 84 19.81 81 -2.1 74 -6.0 1 0 978.1 NA 0.0000 9999 7190 0 0 0
2019/06/19 18:18:00 BASE 14.03 86 19.81 81 -2.1 74 -6.1 1 0 978.1 NA 0.0000 9999 6820 0 0 0
2019/06/19 18:19:00 BASE 10.01 85 19.81 81 -2.1 74 -6.2 1 0 978.0 NA 0.0000 9999 6790 0 0 0
2019/06/19 18:20:00 BASE 13.15 74 20.63 67 -2.2 74 -6.2 1 0 977.9 NA 0.0000 9999 6890 0 0 0
2019/06/19 18:21:00 BASE 18.91 71 22.17 77 -2.2 74 -6.2 1 0 977.9 NA 0.0000 SQ 9000 6990 0 0 0
2019/06/19 18:22:00 BASE 19.48 78 22.17 77 -2.2 74 -6.2 1 0 977.9 NA 0.0000 SQ 9999 6630 0 0 0
2019/06/19 18:23:00 BASE 16.81 83 22.17 77 -2.2 74 -6.2 1 0 978.0 NA 0.0000 9999 6430 0 0 0
2019/06/19 18:24:00 BASE 14.50 86 22.17 77 -2.2 74 -6.1 1 0 977.9 NA 0.0000 9999 6590 0 0 0
2019/06/19 18:25:00 BASE 14.31 87 22.17 77 -2.2 75 -6.1 1 0 978.0 NA 0.0000 9999 5970 0 0 0
2019/06/19 18:26:00 BASE 14.44 88 22.17 77 -2.3 75 -6.1 1 0 978.0 NA 0.0000 9999 5910 0 0 0
2019/06/19 18:27:00 BASE 15.34 81 22.17 77 -2.2 76 -6.0 1 0 977.9 NA 0.0000 9999 5870 0 0 0
2019/06/19 18:28:00 BASE 15.83 72 22.17 77 -2.2 76 -5.9 1 0 977.8 NA 0.0000 9999 5480 0 0 0
2019/06/19 18:29:00 BASE 15.11 64 22.17 77 -2.1 76 -5.8 1 0 977.7 NA 0.0000 9999 6460 0 0 0
2019/06/19 18:30:00 BASE 15.26 59 22.17 77 -2.0 75 -5.8 1 0 977.7 NA 0.0000 9999 7020 0 0 0
2019/06/19 18:31:00 BASE 15.21 58 21.76 75 -1.9 75 -5.8 1 0 977.7 NA 0.0000 9999 6370 0 0 0
2019/06/19 18:32:00 BASE 14.79 60 17.95 59 -1.9 75 -5.8 1 0 977.8 NA 0.0000 9999 6140 0 0 0
2019/06/19 18:33:00 BASE 15.19 64 17.95 59 -1.8 74 -5.8 1 0 977.7 NA 0.0000 9999 6230 0 0 0
2019/06/19 18:34:00 BASE 16.15 67 18.83 67 -1.9 74 -5.9 1 0 977.7 NA 0.0000 9999 6560 0 0 0
2019/06/19 18:35:00 BASE 16.02 67 18.98 64 -1.9 74 -5.9 1 0 977.7 NA 0.0000 9999 6400 0 0 0
2019/06/19 18:36:00 BASE 16.01 66 19.14 64 -1.9 74 -5.9 1 0 977.7 NA 0.0000 9999 5870 0 0 0
2019/06/19 18:37:00 BASE 16.14 61 19.14 64 -2.0 74 -5.9 1 0 977.6 NA 0.0000 9999 5410 0 0 0
2019/06/19 18:38:00 BASE 15.35 55 19.14 64 -2.0 75 -5.9 1 0 977.6 NA 0.0000 9999 5580 0 0 0
2019/06/19 18:39:00 BASE 15.15 55 19.14 64 -2.0 75 -5.9 1 0 977.6 NA 0.0000 9999 6430 0 0 0
2019/06/19 18:40:00 BASE 13.12 57 19.14 64 -1.9 75 -5.8 1 0 977.7 NA 0.0000 9999 6370 0 0 0
2019/06/19 18:41:00 BASE 12.67 58 19.14 64 -1.9 75 -5.8 1 0 977.6 NA 0.0000 9999 5940 0 0 0
2019/06/19 18:42:00 BASE 15.48 58 20.32 49 -1.8 75 -5.7 1 0 977.5 NA 0.0000 9999 5970 0 0 0
2019/06/19 18:43:00 BASE 17.65 61 20.83 59 -1.8 74 -5.7 1 0 977.5 NA 0.0000 9999 5640 0 0 0
2019/06/19 18:44:00 BASE 17.71 64 20.83 59 -1.8 74 -5.8 1 0 977.5 NA 0.0000 9999 5810 0 0 0
2019/06/19 18:45:00 BASE 17.54 63 20.83 59 -1.9 74 -5.9 1 0 977.5 NA 0.0000 9999 5740 0 0 0
2019/06/19 18:46:00 BASE 17.67 63 20.83 68 -1.9 74 -5.9 0 0 977.5 NA 0.0000 9999 5410 0 0 0
2019/06/19 18:47:00 BASE 17.61 65 22.53 63 -1.9 74 -5.9 0 0 977.4 NA 0.0000 9999 6890 0 0 0
2019/06/19 18:48:00 BASE 19.39 64 22.53 63 -1.9 74 -6.0 0 0 977.3 NA 0.0000 9999 6370 0 0 0
2019/06/19 18:49:00 BASE 20.82 61 22.53 63 -1.9 74 -6.0 0 0 977.3 NA 0.0000 9000 6270 0 0 0
2019/06/19 18:50:00 BASE 19.02 60 22.53 63 -1.8 73 -6.0 0 0 977.4 NA 0.0000 9999 5450 0 0 0
2019/06/19 18:51:00 BASE 16.98 63 22.53 63 -1.8 73 -5.9 0 0 977.4 NA 0.0000 9999 5320 0 0 0
2019/06/19 18:52:00 BASE 14.41 61 22.53 63 -1.7 73 -5.9 0 0 977.4 NA 0.0000 9999 5180 0 0 0
2019/06/19 18:53:00 BASE 13.22 57 22.53 63 -1.5 72 -6.0 0 0 977.4 NA 0.0000 9999 5120 0 0 0
2019/06/19 18:54:00 BASE 13.39 55 22.53 63 -1.4 71 -6.0 0 0 977.4 NA 0.0000 9999 5180 0 0 0
2019/06/19 18:55:00 BASE 13.15 57 22.53 63 -1.3 70 -6.1 0 0 977.4 NA 0.0000 9999 5610 0 0 0
2019/06/19 18:56:00 BASE 15.80 66 22.53 63 -1.3 70 -6.2 0 0 977.2 NA 0.0000 9999 5910 0 0 0
2019/06/19 18:57:00 BASE 16.93 72 22.48 63 -1.2 69 -6.2 0 0 977.4 NA 0.0000 9999 5480 0 0 0
2019/06/19 18:58:00 BASE 16.14 66 22.48 63 -1.2 69 -6.2 0 0 977.2 NA 0.0000 9999 5580 0 0 0
2019/06/19 18:59:00 BASE 18.99 61 23.87 65 -1.2 68 -6.3 0 0 977.2 NA 0.0000 9999 5580 0 0 0
2019/06/19 19:00:00 BASE 21.48 63 23.87 65 -1.3 68 -6.4 0 0 977.3 NA 0.0000 9000 5640 0 0 0
2019/06/19 19:01:00 BASE 20.29 64 23.87 65 -1.4 68 -6.5 0 0 977.3 NA 0.0000 9999 5610 0 0 0
2019/06/19 19:02:00 BASE 18.46 64 23.87 65 -1.5 68 -6.6 0 0 977.3 NA 0.0000 9999 5480 0 0 0
2019/06/19 19:03:00 BASE 18.28 63 23.87 65 -1.6 70 -6.5 0 0 977.3 NA 0.0000 9999 5380 0 0 0
2019/06/19 19:04:00 BASE 18.08 60 23.87 65 -1.7 71 -6.3 0 0 977.2 NA 0.0000 9999 5280 0 0 0
2019/06/19 19:05:00 BASE 19.13 62 24.13 67 -1.7 71 -6.2 0 0 977.2 NA 0.0000 9999 5120 0 0 0
2019/06/19 19:06:00 BASE 19.16 65 24.13 67 -1.7 72 -6.1 0 0 977.3 NA 0.0000 9999 5350 0 0 0
2019/06/19 19:07:00 BASE 17.25 63 24.13 67 -1.6 72 -6.0 0 0 977.3 NA 0.0000 9999 5180 0 0 0
2019/06/19 19:08:00 BASE 17.60 61 24.13 67 -1.7 72 -6.0 0 0 977.3 NA 0.0000 9999 4890 0 0 0
2019/06/19 19:09:00 BASE 17.58 60 24.13 67 -1.7 73 -6.0 0 0 977.3 NA 0.0000 9999 4660 0 0 0
2019/06/19 19:10:00 BASE 18.51 59 24.13 67 -1.8 73 -6.0 0 0 977.2 NA 0.0000 9999 4760 0 0 0
2019/06/19 19:11:00 BASE 20.05 62 24.13 67 -1.8 73 -5.9 0 0 977.3 NA 0.0000 9999 4720 0 0 0
2019/06/19 19:12:00 BASE 20.54 66 24.13 67 -1.9 74 -5.9 0 0 977.3 NA 0.0000 9999 4590 0 0 0
2019/06/19 19:13:00 BASE 19.19 66 24.13 67 -1.9 74 -5.9 0 0 977.3 NA 0.0000 9999 4460 0 0 0
2019/06/19 19:14:00 BASE 18.28 64 24.13 67 -1.9 74 -5.9 0 0 977.3 NA 0.0000 9999 4200 0 0 0
2019/06/19 19:15:00 BASE 20.07 66 22.38 66 -1.9 74 -5.9 0 0 977.3 NA 0.0000 9999 4170 0 0 0
2019/06/19 19:16:00 BASE 21.69 68 24.08 68 -1.9 74 -5.9 0 0 977.2 NA 0.0000 9000 4170 0 0 0
2019/06/19 19:17:00 BASE 22.30 66 24.18 62 -2.0 74 -6.0 0 0 977.2 NA 0.0000 8000 4230 0 0 0
2019/06/19 19:18:00 BASE 21.65 59 24.18 62 -2.0 74 -6.0 0 0 977.1 NA 0.0000 7000 4330 0 0 0
2019/06/19 19:19:00 BASE 18.39 57 24.18 62 -2.0 74 -6.0 0 0 977.2 NA 0.0000 9999 4230 0 0 0
2019/06/19 19:20:00 BASE 15.56 62 24.18 62 -1.9 74 -5.9 0 0 977.2 NA 0.0000 9999 4040 0 0 0
2019/06/19 19:21:00 BASE 12.16 62 24.18 62 -1.8 74 -5.7 0 0 977.3 NA 0.0000 9999 4040 0 0 0
2019/06/19 19:22:00 BASE 11.67 66 24.18 62 -1.6 74 -5.6 0 0 977.3 NA 0.0000 9999 4000 0 0 0
2019/06/19 19:23:00 BASE 14.32 67 24.18 62 -1.4 73 -5.6 0 0 977.2 NA 0.0000 9999 4070 0 0 0
2019/06/19 19:24:00 BASE 14.86 58 24.18 62 -1.3 72 -5.6 0 0 977.2 NA 0.0000 9999 4200 0 0 0
2019/06/19 19:25:00 BASE 15.89 58 24.18 62 -1.2 71 -5.7 0 0 977.2 NA 0.0000 9999 4270 0 0 0
2019/06/19 19:26:00 BASE 16.09 61 24.18 62 -1.2 70 -5.9 0 0 977.3 NA 0.0000 9999 4270 0 0 0
2019/06/19 19:27:00 BASE 15.06 57 21.81 60 -1.3 70 -6.1 0 0 977.3 NA 0.0000 9999 4360 0 0 0
2019/06/19 19:28:00 BASE 13.98 47 21.09 57 -1.3 70 -6.1 0 0 977.4 NA 0.0000 9999 4360 0 0 0
2019/06/19 19:29:00 BASE 11.14 23 21.09 57 -1.4 70 -6.1 0 0 977.6 NA 0.0000 9999 4530 0 0 0
2019/06/19 19:30:00 BASE 7.47 17 17.75 60 -1.4 71 -6.1 0 0 977.6 NA 0.0000 9999 4270 0 0 0
2019/06/19 19:31:00 BASE 8.58 13 17.75 60 -1.4 71 -6.0 0 0 977.4 NA 0.0000 9999 4130 0 0 0
2019/06/19 19:32:00 BASE 8.94 356 17.75 60 -1.5 72 -5.8 0 0 977.5 NA 0.0000 9999 3740 0 0 0
2019/06/19 19:33:00 BASE 5.91 356 17.75 60 -1.5 73 -5.7 0 0 977.6 NA 0.0000 9999 3710 0 0 0
2019/06/19 19:34:00 BASE 5.63 28 17.75 60 -1.5 74 -5.5 0 0 977.6 NA 0.0000 9999 3740 0 0 0
2019/06/19 19:35:00 BASE 7.87 61 17.75 60 -1.5 75 -5.4 0 0 977.6 NA 0.0000 9999 3940 0 0 0
2019/06/19 19:36:00 BASE 13.48 66 21.20 63 -1.5 75 -5.4 0 0 977.5 NA 0.0000 9999 3900 0 0 0
2019/06/19 19:37:00 BASE 17.34 68 21.20 63 -1.5 74 -5.5 0 0 977.4 NA 0.0000 SQ 9999 3940 0 0 0
2019/06/19 19:38:00 BASE 18.93 71 22.28 76 -1.6 73 -5.7 0 0 977.4 NA 0.0000 SQ 9999 3870 0 0 0
2019/06/19 19:39:00 BASE 20.46 71 22.28 76 -1.7 72 -6.0 0 0 977.3 NA 0.0000 UP 9999 0 0 0 1280
2019/06/19 19:40:00 BASE 17.57 67 22.28 76 -1.9 72 -6.3 0 0 977.3 NA 0.0000 UP 9999 0 0 0 3280
2019/06/19 19:41:00 BASE 14.53 63 22.28 76 -2.0 72 -6.4 0 0 977.3 NA 0.0000 UP 9999 2990 0 0 0
2019/06/19 19:42:00 BASE 12.96 56 22.28 76 -2.0 72 -6.4 0 0 977.3 NA 0.0000 UP 9999 0 0 0 3080
2019/06/19 19:43:00 BASE 10.40 30 22.28 76 -1.9 73 -6.2 0 0 977.3 NA 0.0000 UP 9999 1610 0 0 0
2019/06/19 19:44:00 BASE 8.98 357 22.28 76 -1.8 73 -6.0 0 0 977.3 NA 0.0000 UP 9999 0 0 0 3150
2019/06/19 19:45:00 BASE 7.73 360 22.28 76 -1.7 74 -5.7 0 0 977.6 NA 0.0000 UP 9999 0 0 0 3080
2019/06/19 19:46:00 BASE 8.16 28 22.28 76 -1.6 74 -5.5 0 0 977.5 NA 0.0000 UP 9999 0 0 0 3050
2019/06/19 19:47:01 BASE 10.42 41 22.28 76 -1.6 75 -5.5 0 0 977.5 NA 0.0000 UP 9999 0 0 0 3120
2019/06/19 19:48:00 BASE 11.24 45 21.97 69 -1.7 75 -5.5 0 0 977.4 NA 0.0000 UP 9000 0 0 0 3150
2019/06/19 19:49:00 BASE 14.11 55 19.81 64 -1.8 76 -5.5 0 0 977.4 NA 0.0000 UP 6000 0 0 0 2790
2019/06/19 19:50:00 BASE 18.94 62 23.51 61 -1.9 77 -5.4 0 0 977.3 NA 0.0000 UP 4600 0 0 0 2590
2019/06/19 19:51:00 BASE 21.11 62 23.51 61 -2.1 78 -5.5 0 0 977.2 NA 0.0000 -SN SQ 4000 0 0 0 2560
2019/06/19 19:52:00 BASE 20.03 69 23.51 61 -2.3 78 -5.5 0 0 977.2 NA 0.0000 -SN 3900 0 0 0 2360
2019/06/19 19:53:00 BASE 19.42 77 23.51 61 -2.4 79 -5.5 0 0 977.3 NA 0.0000 -SN 3700 0 0 0 2200
2019/06/19 19:54:00 BASE 20.09 81 24.80 82 -2.5 80 -5.5 0 0 977.4 NA 0.0000 -SN 4200 0 0 0 2170
2019/06/19 19:55:00 BASE 20.73 81 25.36 66 -2.6 80 -5.6 0 0 977.4 NA 0.0000 -SN 4900 0 0 0 2100
2019/06/19 19:56:00 BASE 20.33 75 25.36 66 -2.7 81 -5.5 0 0 977.2 NA 0.0000 -SN 5000 360 0 0 0
2019/06/19 19:57:00 BASE 20.59 74 25.62 74 -2.7 81 -5.5 0 0 977.2 NA 0.0000 -SN 4800 0 0 0 2430
2019/06/19 19:58:00 BASE 23.03 73 28.60 78 -2.8 82 -5.4 0 0 977.2 NA 0.0000 -SN 4500 0 0 0 2720
2019/06/19 19:59:00 BASE 22.46 69 28.60 78 -2.8 83 -5.4 0 0 977.2 NA 0.0000 -SN 4400 0 0 0 2820
2019/06/19 20:00:00 BASE 19.49 72 28.60 78 -2.9 83 -5.3 0 0 977.2 NA 0.0000 -SN 5000 0 0 0 2820
2019/06/19 20:01:00 BASE 19.49 75 28.60 78 -2.9 84 -5.2 0 0 977.2 NA 0.0000 -SN 6000 0 0 0 3020
2019/06/19 20:02:00 BASE 20.65 74 28.60 78 -2.9 84 -5.2 0 0 977.1 NA 0.0000 -SN 8000 0 0 0 3020
2019/06/19 20:03:00 BASE 20.94 74 28.60 78 -2.9 85 -5.1 0 0 977.1 NA 0.0000 -SN 8000 0 0 0 3120
2019/06/19 20:04:00 BASE 20.99 74 28.60 78 -2.8 85 -5.0 0 0 977.1 NA 0.0000 -SN BR 7000 0 0 0 3150
2019/06/19 20:05:00 BASE 21.33 73 28.60 78 -2.8 85 -4.9 0 0 977.1 NA 0.0000 -SN BR 6000 0 0 0 3020
2019/06/19 20:06:00 BASE 20.76 74 28.60 78 -2.8 86 -4.9 0 0 977.1 NA 0.0000 -SN BR 5000 0 0 0 3020
2019/06/19 20:07:00 BASE 19.50 75 28.60 78 -2.8 86 -4.9 0 0 977.1 NA 0.0000 -SN BR 6000 0 0 0 2920
2019/06/19 20:08:00 BASE 19.51 76 24.44 75 -2.8 86 -4.8 0 0 977.1 NA 0.0000 -SN BR 3000 0 0 0 2760
2019/06/19 20:09:00 BASE 18.65 78 24.44 75 -2.9 86 -4.8 0 0 977.1 NA 0.0000 -SN BR 2300 0 0 0 3120
2019/06/19 20:10:00 BASE 18.26 77 24.44 75 -2.9 87 -4.9 0 0 977.0 NA 0.0000 -SN BR 2500 0 0 0 3250
2019/06/19 20:11:00 BASE 19.50 77 24.44 75 -3.0 87 -4.9 0 0 977.0 NA 0.0000 -SN BR 1900 0 0 0 2990
2019/06/19 20:12:00 BASE 19.96 80 23.51 76 -3.0 87 -4.9 0 0 977.0 NA 0.0000 -SN BR 2000 0 0 0 2920
2019/06/19 20:13:00 BASE 19.57 78 23.51 76 -3.1 87 -5.0 0 0 977.0 NA 0.0000 -SN BR 1900 0 0 0 2620
2019/06/19 20:14:00 BASE 20.17 74 23.15 76 -3.2 87 -5.0 0 0 977.0 NA 0.0000 -SN BR 2400 0 0 0 2660
2019/06/19 20:15:00 BASE 20.27 74 23.15 76 -3.2 87 -5.0 0 0 977.0 NA 0.0000 -SN BR 2700 0 0 0 2620
2019/06/19 20:16:00 BASE 17.89 77 23.15 76 -3.2 88 -5.0 0 0 977.0 NA 0.0000 -SN BR 2300 0 0 0 2490
2019/06/19 20:17:00 BASE 16.71 82 23.15 76 -3.2 88 -5.0 0 0 977.0 NA 0.0000 -SN BR 3900 0 0 0 2490
2019/06/19 20:18:00 BASE 16.91 84 23.15 76 -3.2 88 -4.9 0 0 977.0 NA 0.0000 -SN BR 4800 0 0 0 2590
2019/06/19 20:19:00 BASE 16.27 83 23.15 76 -3.2 88 -4.9 0 0 977.0 NA 0.0000 -SN BR 5000 0 0 0 3250
2019/06/19 20:20:00 BASE 15.66 83 23.15 76 -3.2 88 -4.8 0 0 977.0 NA 0.0000 -SN BR 4900 0 0 0 3410
2019/06/19 20:21:00 BASE 16.34 83 23.15 76 -3.2 89 -4.8 0 0 977.0 NA 0.0000 -SN BR 4400 0 0 0 3150
2019/06/19 20:22:00 BASE 15.44 85 23.15 76 -3.2 89 -4.8 0 0 977.0 NA 0.0000 -SN BR 4000 0 0 0 3180
2019/06/19 20:23:00 BASE 16.43 85 23.15 76 -3.2 89 -4.8 0 0 977.0 NA 0.0000 -SN BR 4200 0 0 0 3350
2019/06/19 20:24:00 BASE 18.55 83 22.12 81 -3.2 89 -4.8 0 0 977.0 NA 0.0000 -SN BR 4300 0 0 0 3050
2019/06/19 20:25:00 BASE 17.32 86 22.12 81 -3.2 89 -4.8 0 0 977.0 NA 0.0000 -SN BR 4800 0 0 0 3480
2019/06/19 20:26:00 BASE 15.54 90 22.12 81 -3.2 89 -4.8 0 0 977.0 NA 0.0000 -SN BR 6000 0 0 0 2950
2019/06/19 20:27:00 BASE 15.24 93 22.12 81 -3.2 89 -4.8 0 0 977.0 NA 0.0000 -SN BR 8000 0 0 0 2720
2019/06/19 20:28:00 BASE 15.15 96 22.12 81 -3.2 89 -4.8 0 0 977.1 NA 0.0000 -SN BR 9999 0 0 0 2990
2019/06/19 20:29:00 BASE 16.24 95 22.12 81 -3.2 89 -4.8 0 0 976.9 NA 0.0000 -SN BR 9999 790 0 0 0
2019/06/19 20:30:00 BASE 17.98 90 22.12 81 -3.3 89 -4.8 0 0 976.8 NA 0.0000 -SN BR 9999 0 0 0 3220
2019/06/19 20:31:00 BASE 17.19 90 22.12 81 -3.3 89 -4.8 0 0 976.9 NA 0.0000 -SN BR 9999 790 0 0 0
2019/06/19 20:32:00 BASE 14.62 99 22.12 81 -3.3 89 -4.9 0 0 976.8 NA 0.0000 -SN BR 9999 980 0 0 0
2019/06/19 20:33:00 BASE 15.43 98 21.92 79 -3.3 88 -4.9 0 0 976.8 NA 0.0000 -SN BR 9999 1640 0 0 0
2019/06/19 20:34:00 BASE 17.58 92 21.92 79 -3.3 88 -5.0 0 0 976.7 NA 0.0000 -SN 9999 1050 0 0 0
2019/06/19 20:35:00 BASE 15.92 99 21.92 79 -3.3 88 -5.0 0 0 976.7 NA 0.0000 -SN 9999 1540 0 0 0
2019/06/19 20:36:00 BASE 14.89 105 21.92 79 -3.3 88 -5.0 0 0 976.6 NA 0.0000 -SN 9999 1350 0 0 0
2019/06/19 20:37:00 BASE 14.79 105 21.92 79 -3.3 88 -5.0 0 0 976.7 NA 0.0000 -SN 9999 3050 0 0 0
2019/06/19 20:38:00 BASE 14.43 107 21.92 79 -3.3 88 -5.0 0 0 976.7 NA 0.0000 -SN 9999 1380 0 0 0
2019/06/19 20:39:00 BASE 15.75 102 21.92 79 -3.2 88 -4.9 0 0 976.6 NA 0.0000 -SN 9999 2100 0 0 0
2019/06/19 20:40:00 BASE 17.25 93 21.25 96 -3.2 89 -4.8 0 0 976.6 NA 0.0000 -SN 9999 1670 0 0 0
2019/06/19 20:41:00 BASE 18.92 86 25.72 80 -3.1 89 -4.7 0 0 976.4 NA 0.0000 -SN 9999 1800 0 0 0
2019/06/19 20:42:00 BASE 21.66 81 25.72 80 -3.0 89 -4.6 0 0 976.2 NA 0.0000 -SN 9999 2200 0 0 0
2019/06/19 20:43:00 BASE 21.28 81 25.72 80 -2.9 89 -4.5 0 0 976.1 NA 0.0000 -SN 9999 1770 0 0 0
2019/06/19 20:44:00 BASE 20.75 78 25.72 80 -2.9 89 -4.5 0 0 976.0 NA 0.0000 -SN 9999 0 0 0 5050
2019/06/19 20:45:00 BASE 21.19 79 25.72 80 -2.9 89 -4.4 0 0 976.2 NA 0.0000 -SN 9999 0 0 0 4100
2019/06/19 20:46:00 BASE 21.00 79 26.65 74 -2.8 89 -4.4 0 0 976.0 NA 0.0000 -SN 9999 0 0 0 3870
2019/06/19 20:47:00 BASE 21.78 74 26.65 74 -2.8 89 -4.4 0 0 976.0 NA 0.0000 -SN 9999 0 0 0 3870
2019/06/19 20:48:00 BASE 22.48 73 26.65 74 -2.8 88 -4.4 0 0 976.0 NA 0.0000 -SN 9999 3380 0 0 0
2019/06/19 20:49:00 BASE 23.40 73 26.65 74 -2.7 88 -4.4 0 0 975.9 NA 0.0000 -SN 9999 6100 0 0 0
2019/06/19 20:50:00 BASE 24.26 75 26.65 74 -2.7 88 -4.5 0 0 975.9 NA 0.0000 -SN 9999 6760 0 0 0
2019/06/19 20:51:00 BASE 23.37 79 26.65 74 -2.8 88 -4.5 0 0 975.9 NA 0.0000 -SN 9999 5540 0 0 0
2019/06/19 20:52:00 BASE 22.34 79 27.42 81 -2.8 87 -4.6 0 0 975.8 NA 0.0000 -SN 9999 5280 0 0 0
2019/06/19 20:53:00 BASE 23.91 76 27.42 81 -2.8 87 -4.7 0 0 975.8 NA 0.0000 -SN 9999 6820 0 0 0
2019/06/19 20:54:00 BASE 24.88 74 27.42 81 -2.9 87 -4.7 0 0 975.8 NA 0.0000 -SN 9999 7280 0 0 0
2019/06/19 20:55:00 BASE 24.71 74 27.68 76 -2.9 87 -4.7 0 0 975.8 NA 0.0000 -SN 9999 7610 0 0 0
2019/06/19 20:56:00 BASE 24.59 76 27.68 76 -2.8 87 -4.7 0 0 975.7 NA 0.0000 -SN 9999 7420 0 0 0
2019/06/19 20:57:00 BASE 24.27 75 27.83 74 -2.8 87 -4.7 0 0 975.7 NA 0.0000 -SN 9999 7550 0 0 0
2019/06/19 20:58:00 BASE 24.36 75 27.83 76 -2.8 87 -4.7 0 0 975.7 NA 0.0000 -SN 9999 7220 0 0 0
2019/06/19 20:59:00 BASE 26.05 75 29.17 69 -2.8 87 -4.7 0 0 975.8 NA 0.0000 -SN 9999 8240 0 0 0
2019/06/19 21:00:00 BASE 27.33 75 29.73 72 -2.9 87 -4.7 0 0 975.7 NA 0.0000 -SN 9999 7910 0 0 0
2019/06/19 21:01:00 BASE 26.31 75 29.73 72 -2.9 87 -4.8 0 0 975.8 NA 0.0000 -SN 9000 7910 0 0 0
2019/06/19 21:02:00 BASE 26.16 72 29.73 72 -3.0 87 -4.8 0 0 975.7 NA 0.0000 -SN 9999 7780 0 0 0
2019/06/19 21:03:00 BASE 26.79 72 33.34 75 -3.0 87 -4.8 0 0 975.8 NA 0.0000 -SN 9999 6040 0 0 0
2019/06/19 21:04:00 BASE 27.46 74 33.34 75 -3.1 87 -4.9 0 0 975.7 NA 0.0000 -SN 9999 6330 0 0 0
2019/06/19 21:05:00 BASE 27.10 74 33.34 75 -3.1 87 -5.0 0 0 975.8 NA 0.0000 -SN 9999 5480 0 0 0
2019/06/19 21:06:00 BASE 25.36 73 33.34 75 -3.1 87 -5.0 0 0 975.7 NA 0.0000 -SN 9000 6890 0 0 0
2019/06/19 21:07:00 BASE 24.59 72 33.34 75 -3.1 87 -5.0 0 0 975.8 NA 0.0000 -SN 9999 5090 0 0 0
2019/06/19 21:08:00 BASE 25.66 71 33.34 75 -3.1 87 -5.0 0 0 975.8 NA 0.0000 -SN 9999 6560 0 0 0
2019/06/19 21:09:00 BASE 26.28 73 33.34 75 -3.1 87 -5.0 0 0 975.8 NA 0.0000 -SN BR 9000 4360 0 0 0
2019/06/19 21:10:00 BASE 25.08 76 33.34 75 -3.1 87 -5.1 0 0 975.8 NA 0.0000 -SN BR 8000 6170 0 0 0
2019/06/19 21:11:00 BASE 24.59 76 33.34 75 -3.1 87 -5.0 0 0 975.7 NA 0.0000 -SN BR 9000 6200 0 0 0
2019/06/19 21:12:00 BASE 24.56 75 33.34 75 -3.1 87 -5.0 0 0 975.7 NA 0.0000 -SN BR 9000 6070 0 0 0
2019/06/19 21:13:00 BASE 24.62 74 30.87 70 -3.1 86 -5.0 0 0 975.8 NA 0.0000 -SN BR 8000 5910 0 0 0
2019/06/19 21:14:00 BASE 23.65 73 28.60 77 -3.0 86 -5.0 0 0 975.8 NA 0.0000 -SN BR 8000 5810 0 0 0
2019/06/19 21:15:00 BASE 20.80 72 28.60 77 -3.0 86 -4.9 0 0 975.8 NA 0.0000 -SN BR 8000 5710 0 0 0
2019/06/19 21:16:00 BASE 21.37 68 28.60 77 -2.9 86 -4.9 0 0 975.7 NA 0.0000 -SN BR 9999 5710 0 0 0
2019/06/19 21:17:00 BASE 22.89 67 28.60 77 -2.9 86 -4.9 0 0 975.7 NA 0.0000 -SN BR 9999 5540 0 0 0
2019/06/19 21:18:00 BASE 23.26 68 28.35 73 -2.8 86 -4.8 0 0 975.8 NA 0.0000 BR 9999 4860 0 0 0
2019/06/19 21:19:00 BASE 24.14 69 27.99 68 -2.7 86 -4.8 0 0 975.8 NA 0.0000 BR 9999 4070 0 0 0
2019/06/19 21:20:00 BASE 23.91 66 27.99 68 -2.6 85 -4.8 0 0 975.8 NA 0.0000 9999 3970 0 0 0
2019/06/19 21:21:00 BASE 23.71 65 27.99 68 -2.6 85 -4.8 0 0 975.8 NA 0.0000 9999 3740 0 0 0
2019/06/19 21:22:00 BASE 23.14 67 27.52 76 -2.6 85 -4.8 0 0 975.9 NA 0.0000 9999 3510 0 0 0
2019/06/19 21:23:00 BASE 22.63 71 26.44 72 -2.6 84 -4.9 0 0 975.9 NA 0.0000 9999 3180 0 0 0
2019/06/19 21:24:00 BASE 24.51 74 29.58 70 -2.7 84 -5.0 0 0 975.9 NA 0.0000 9999 2990 0 0 0
2019/06/19 21:25:00 BASE 24.97 75 29.58 70 -2.7 84 -5.1 0 0 975.9 NA 0.0000 -SN 9999 2890 0 0 0
2019/06/19 21:26:00 BASE 23.12 75 29.58 70 -2.7 84 -5.1 0 0 975.9 NA 0.0000 -SN 9999 2660 0 0 0
2019/06/19 21:27:00 BASE 23.95 75 29.58 70 -2.7 83 -5.1 0 0 975.9 NA 0.0000 -SN 9999 6170 0 0 0
2019/06/19 21:28:00 BASE 24.28 73 29.58 70 -2.7 83 -5.2 0 0 975.9 NA 0.0000 -SN 9999 6370 0 0 0
2019/06/19 21:29:00 BASE 24.87 71 29.58 70 -2.7 83 -5.3 0 0 975.8 NA 0.0000 -SN 9999 6370 0 0 0
2019/06/19 21:30:00 BASE 25.44 69 29.58 70 -2.8 82 -5.4 0 0 975.8 NA 0.0000 -SN 9999 6230 0 0 0
2019/06/19 21:31:00 BASE 23.48 71 29.58 70 -2.8 82 -5.4 0 0 975.9 NA 0.0000 -SN 9000 6330 0 0 0
2019/06/19 21:32:00 BASE 22.80 73 29.58 70 -2.9 82 -5.5 0 0 975.8 NA 0.0000 -SN 9000 6170 0 0 0
2019/06/19 21:33:00 BASE 23.55 72 29.58 70 -2.9 82 -5.5 0 0 975.8 NA 0.0000 -SN 9999 6200 0 0 0
2019/06/19 21:34:00 BASE 24.77 72 29.53 75 -2.8 82 -5.4 0 0 975.7 NA 0.0000 -SN 9000 6000 0 0 0
2019/06/19 21:35:00 BASE 24.21 73 29.53 75 -2.7 82 -5.3 0 0 975.8 NA 0.0000 -SN 8000 5740 0 0 0
2019/06/19 21:36:00 BASE 22.74 75 29.53 75 -2.6 82 -5.2 0 0 975.7 NA 0.0000 -SN 9999 4430 0 0 0
2019/06/19 21:37:00 BASE 23.71 76 29.37 68 -2.5 81 -5.2 0 0 975.8 NA 0.0000 -SN 9999 4000 0 0 0
2019/06/19 21:38:00 BASE 22.76 76 29.37 68 -2.5 81 -5.3 0 0 975.8 NA 0.0000 -SN 9999 6760 0 0 0
2019/06/19 21:39:00 BASE 21.91 73 28.91 74 -2.4 80 -5.4 0 0 975.7 NA 0.0000 -SN 9999 6500 0 0 0
2019/06/19 21:40:00 BASE 23.54 76 28.91 74 -2.5 80 -5.5 0 0 975.7 NA 0.0000 9999 6560 0 0 0
2019/06/19 21:41:00 BASE 23.60 80 28.91 74 -2.5 79 -5.7 0 0 975.8 NA 0.0000 9999 6890 0 0 0
2019/06/19 21:42:00 BASE 21.74 81 28.04 68 -2.6 79 -5.8 0 0 975.8 NA 0.0000 9999 7020 0 0 0
2019/06/19 21:43:00 BASE 21.26 82 27.78 81 -2.6 79 -5.8 0 0 975.8 NA 0.0000 9999 7280 0 0 0
2019/06/19 21:44:00 BASE 22.77 80 27.78 81 -2.7 78 -5.9 0 0 975.8 NA 0.0000 9999 7910 0 0 0
2019/06/19 21:45:00 BASE 21.80 79 27.78 81 -2.7 78 -6.0 0 0 975.8 NA 0.0000 9999 8070 0 0 0
2019/06/19 21:46:00 BASE 20.56 81 27.78 81 -2.8 79 -6.0 0 0 975.8 NA 0.0000 9999 8270 0 0 0
2019/06/19 21:47:01 BASE 20.65 79 26.80 91 -2.8 79 -6.0 0 0 975.8 NA 0.0000 9999 7550 0 0 0
2019/06/19 21:48:00 BASE 21.24 79 26.80 91 -2.9 79 -6.1 0 0 975.8 NA 0.0000 9999 8830 0 0 0
2019/06/19 21:49:00 BASE 22.24 79 26.80 91 -2.9 79 -6.1 0 0 975.7 NA 0.0000 9999 7970 0 0 0
2019/06/19 21:50:00 BASE 21.93 78 26.80 91 -2.9 79 -6.0 0 0 975.8 NA 0.0000 9999 8200 0 0 0
2019/06/19 21:51:00 BASE 21.13 79 26.80 91 -2.8 79 -6.0 0 0 975.7 NA 0.0000 9999 7580 0 0 0
2019/06/19 21:52:00 BASE 21.22 79 26.80 91 -2.8 79 -6.0 0 0 975.7 NA 0.0000 9999 7380 0 0 0
2019/06/19 21:53:00 BASE 21.91 78 25.21 83 -2.8 78 -6.0 0 0 975.8 NA 0.0000 9999 7350 0 0 0
2019/06/19 21:54:00 BASE 22.50 79 25.21 83 -2.8 78 -6.1 0 0 975.8 NA 0.0000 9999 7480 0 0 0
2019/06/19 21:55:00 BASE 21.74 80 25.21 83 -2.8 78 -6.1 0 0 975.7 NA 0.0000 9999 7380 0 0 0
2019/06/19 21:56:00 BASE 21.09 80 25.21 83 -2.9 78 -6.2 0 0 975.8 NA 0.0000 9999 7480 0 0 0
2019/06/19 21:57:00 BASE 20.51 89 25.21 83 -2.9 78 -6.2 0 0 976.0 NA 0.0000 9999 7420 0 0 0
2019/06/19 21:58:00 BASE 19.63 100 24.59 89 -2.9 78 -6.2 0 0 976.2 NA 0.0000 9999 7480 0 0 0
2019/06/19 21:59:00 BASE 18.87 109 24.59 89 -3.0 79 -6.2 0 0 976.2 NA 0.0000 9999 7250 0 0 0
2019/06/19 22:00:00 BASE 19.10 112 24.59 89 -3.0 79 -6.1 0 0 976.4 NA 0.0000 9999 7320 0 0 0
2019/06/19 22:01:00 BASE 17.85 114 24.59 89 -3.0 79 -6.1 0 0 976.3 NA 0.0000 9999 5940 0 0 0
2019/06/19 22:02:00 BASE 13.83 117 24.59 89 -3.0 79 -6.1 0 0 976.1 NA 0.0000 9999 6860 0 0 0
2019/06/19 22:03:00 BASE 12.46 104 24.59 89 -3.0 79 -6.1 0 0 976.1 NA 0.0000 9999 6760 0 0 0
2019/06/19 22:04:00 BASE 14.99 87 23.25 92 -2.9 79 -6.0 0 0 975.9 NA 0.0000 9999 6820 0 0 0
2019/06/19 22:05:00 BASE 18.09 83 23.25 92 -2.9 79 -6.0 0 0 976.0 NA 0.0000 9999 6500 0 0 0
2019/06/19 22:06:00 BASE 17.95 88 23.25 92 -2.9 79 -6.0 0 0 976.1 NA 0.0000 9999 6400 0 0 0
2019/06/19 22:07:00 BASE 15.56 90 22.74 83 -2.9 79 -6.0 0 0 976.0 NA 0.0000 9999 6270 0 0 0
2019/06/19 22:10:48 BASE M M M M -2.9 79 -6.0 0 0 M NA 0.0000 M 5450 0 0 0
2019/06/19 22:11:04 BASE M M M M -2.8 79 -6.0 0 0 M NA 0.0000 9999 5150 0 0 0
2019/06/19 22:12:04 BASE 8.87 103 M M -2.7 78 -6.1 0 0 975.9 NA 0.0000 9999 4920 0 0 0
2019/06/19 22:13:01 BASE 10.30 92 M M -2.6 77 -6.1 0 0 975.9 NA 0.0000 9999 4590 0 0 0
2019/06/19 22:14:03 BASE 14.96 81 M M -2.5 76 -6.2 0 0 975.9 NA 0.0000 9999 4360 0 0 0
2019/06/19 22:15:04 BASE 14.42 81 M M -2.5 76 -6.2 0 0 975.8 NA 0.0000 9999 4100 0 0 0
2019/06/19 22:16:04 BASE 15.08 76 M M -2.4 75 -6.2 0 0 975.8 NA 0.0000 9999 3840 0 0 0
2019/06/19 22:18:26 BASE M M M M -2.2 75 -6.0 M M M NA 0.0000 M M M M M
2019/06/19 22:19:01 BASE M M M M -2.2 75 -6.0 0 0 M NA 0.0000 6000 4170 0 0 0
2019/06/19 22:20:01 BASE 25.02 83 M M -2.2 75 -6.0 0 0 975.9 NA 0.0000 6000 4330 0 0 0
2019/06/19 22:21:00 BASE 25.19 84 28.81 78 -2.2 75 -6.0 0 0 975.9 NA 0.0000 UP 6000 3970 0 0 0
2019/06/19 22:22:00 BASE 23.75 82 28.81 78 -2.2 75 -6.0 0 0 975.8 NA 0.0000 UP 8000 3480 0 0 0
2019/06/19 22:23:00 BASE 22.94 77 28.81 78 -3.2 76 -6.9 0 0 975.8 NA 0.0000 UP 8000 2330 0 0 0
2019/06/19 22:24:00 BASE 23.14 79 28.81 78 -3.2 76 -6.9 0 0 975.9 NA 0.0000 UP 8000 5150 0 0 0
2019/06/19 22:25:00 BASE 24.72 83 29.58 83 -3.2 77 -6.8 0 0 975.8 NA 0.0000 UP 7000 5320 0 0 0
2019/06/19 22:26:00 BASE 23.89 82 29.58 83 -3.3 77 -6.7 0 0 975.8 NA 0.0000 UP 5000 6230 0 0 0
2019/06/19 22:27:00 BASE 22.45 83 29.58 83 -3.3 77 -6.8 0 0 975.8 NA 0.0000 UP 9000 6430 0 0 0
2019/06/19 22:28:00 BASE 22.77 85 29.58 83 -3.4 77 -6.8 0 0 975.8 NA 0.0000 UP 9000 6400 0 0 0
2019/06/19 22:29:00 BASE 21.12 87 29.58 83 -3.4 77 -6.8 0 0 975.9 NA 0.0000 UP 8000 6460 0 0 0
2019/06/19 22:30:00 BASE 17.83 93 29.58 83 -3.4 78 -6.8 0 0 976.1 NA 0.0000 UP 9999 6400 0 0 0
2019/06/19 22:31:00 BASE 16.41 95 29.58 83 -3.4 78 -6.7 0 0 976.0 NA 0.0000 UP 9999 6690 0 0 0
2019/06/19 22:32:00 BASE 17.38 93 29.58 83 -3.4 78 -6.6 0 0 976.1 NA 0.0000 UP 9999 6760 0 0 0
2019/06/19 22:33:00 BASE 17.61 94 29.58 83 -3.4 79 -6.6 0 0 976.0 NA 0.0000 UP 9999 7050 0 0 0
2019/06/19 22:34:00 BASE 19.42 87 29.58 83 -3.3 79 -6.5 0 0 975.9 NA 0.0000 UP 9999 7120 0 0 0
2019/06/19 22:35:01 BASE 21.84 81 27.83 80 -3.3 79 -6.4 0 0 975.9 NA 0.0000 HZ 9999 6920 0 0 0
2019/06/19 22:36:01 BASE 24.23 78 31.18 79 -3.3 79 -6.4 0 0 975.9 NA 0.0000 HZ 7000 7090 0 0 0
2019/06/19 22:37:01 BASE 25.18 79 31.18 79 -3.3 79 -6.4 0 0 976.0 NA 0.0000 -SN 8000 7250 0 0 0
2019/06/19 22:38:01 BASE 23.48 85 31.18 79 -3.4 79 -6.5 0 0 976.1 NA 0.0000 HZ 7000 7320 0 0 0
2019/06/19 22:39:00 BASE 22.82 95 31.18 79 -3.4 79 -6.6 0 0 976.4 NA 0.0000 -SN 7000 7020 0 0 0
2019/06/19 22:40:00 BASE 21.53 104 31.18 79 -3.5 79 -6.6 0 0 976.4 NA 0.0000 -SN 6000 7780 0 0 0
2019/06/19 22:41:00 BASE 18.89 102 31.18 79 -3.6 80 -6.6 0 0 976.2 NA 0.0000 -SN 8000 7910 0 0 0
2019/06/19 22:42:00 BASE 17.38 97 31.18 79 -3.7 80 -6.6 0 0 976.2 NA 0.0000 -SN 9999 6920 0 0 0
2019/06/19 22:43:00 BASE 17.18 104 31.18 79 -3.6 81 -6.4 0 0 976.3 NA 0.0000 -SN 9999 7940 0 0 0
2019/06/19 22:44:00 BASE 17.41 120 31.18 79 -3.5 81 -6.3 0 0 976.3 NA 0.0000 -SN 9999 7350 0 0 0
2019/06/19 22:45:00 BASE 17.16 130 31.18 79 -3.4 81 -6.2 0 0 976.2 NA 0.0000 -SN 9999 7450 0 0 0
2019/06/19 22:46:00 BASE 15.16 127 30.30 86 -3.3 81 -6.1 0 0 976.1 NA 0.0000 -SN 9999 8460 0 0 0
2019/06/19 22:47:00 BASE 13.93 109 28.19 88 -3.2 80 -6.1 0 0 976.0 NA 0.0000 -SN 9999 8270 0 0 0
2019/06/19 22:48:00 BASE 16.97 95 28.19 88 -3.2 80 -6.2 0 0 976.0 NA 0.0000 -SN 9999 8070 0 0 0
2019/06/19 22:49:00 BASE 20.41 87 25.31 85 -3.2 80 -6.2 0 0 975.9 NA 0.0000 9999 8070 0 0 0
2019/06/19 22:50:00 BASE 22.25 82 25.93 79 -3.2 80 -6.2 0 0 975.9 NA 0.0000 9999 8140 0 0 0
2019/06/19 22:51:00 BASE 23.92 79 28.14 70 -3.2 79 -6.3 0 0 975.8 NA 0.0000 8000 8270 0 0 0
2019/06/19 22:52:00 BASE 24.27 77 28.14 70 -3.2 79 -6.4 0 0 975.9 NA 0.0000 6000 7050 0 0 0
2019/06/19 22:53:00 BASE 24.06 79 28.14 70 -3.2 79 -6.4 0 0 976.1 NA 0.0000 HZ 6000 8400 0 0 0
2019/06/19 22:54:00 BASE 23.47 85 28.81 85 -3.3 79 -6.4 0 0 976.3 NA 0.0000 HZ 6000 8330 0 0 0
2019/06/19 22:55:00 BASE 22.32 92 28.81 85 -3.3 79 -6.5 0 0 976.5 NA 0.0000 HZ 6000 8530 0 0 0
2019/06/19 22:56:00 BASE 20.15 99 28.81 85 -3.5 79 -6.6 0 0 976.2 NA 0.0000 -SN 5000 8760 0 0 0
2019/06/19 22:57:00 BASE 20.67 101 28.81 85 -3.6 79 -6.6 0 0 976.3 NA 0.0000 -SN 5000 8920 0 0 0
2019/06/19 22:58:00 BASE 23.15 95 28.81 85 -3.7 80 -6.7 0 0 976.2 NA 0.0000 -SN 6000 9190 0 0 0
2019/06/19 22:59:00 BASE 23.84 89 29.27 88 -3.8 80 -6.7 0 0 975.9 NA 0.0000 -SN 7000 9350 0 0 0
2019/06/19 23:00:00 BASE 23.98 90 29.27 88 -3.9 81 -6.7 0 0 975.9 NA 0.0000 -SN 6000 9550 0 0 0
2019/06/19 23:01:00 BASE 24.15 87 29.94 82 -3.9 82 -6.6 0 0 975.7 NA 0.0000 -SN 4800 9940 0 0 0
2019/06/19 23:02:00 BASE 24.31 82 29.94 82 -3.9 82 -6.5 0 0 975.8 NA 0.0000 -SN 5000 10140 0 0 0
2019/06/19 23:03:00 BASE 22.80 88 29.94 82 -3.9 83 -6.4 0 0 975.9 NA 0.0000 -SN 5000 10200 0 0 0
2019/06/19 23:04:00 BASE 20.77 93 29.94 82 -3.8 83 -6.3 0 0 976.0 NA 0.0000 -SN 6000 10470 0 0 0
2019/06/19 23:05:00 BASE 19.93 95 29.94 82 -3.8 83 -6.2 0 0 976.2 NA 0.0000 -SN 8000 8330 0 0 0
2019/06/19 23:06:00 BASE 19.57 102 29.94 82 -3.7 83 -6.2 0 0 976.2 NA 0.0000 -SN 8000 10760 0 0 0
2019/06/19 23:07:00 BASE 18.56 104 29.94 82 -3.7 83 -6.2 0 0 976.1 NA 0.0000 -SN 8000 10760 0 0 0
2019/06/19 23:08:00 BASE 21.68 92 29.94 82 -3.7 83 -6.2 0 0 975.8 NA 0.0000 -SN 8000 10760 0 0 0
2019/06/19 23:09:00 BASE 25.60 82 29.94 82 -3.7 83 -6.2 0 0 975.7 NA 0.0000 -SN 6000 10790 0 0 0
2019/06/19 23:10:00 BASE 24.63 82 29.94 82 -3.7 83 -6.2 0 0 975.8 NA 0.0000 -SN 5000 11190 0 0 0
2019/06/19 23:11:00 BASE 24.02 88 29.43 77 -3.7 83 -6.2 0 0 976.1 NA 0.0000 -SN 6000 10270 0 0 0
2019/06/19 23:12:00 BASE 25.26 87 29.63 90 -3.7 83 -6.2 0 0 975.7 NA 0.0000 -SN 5000 10960 0 0 0
2019/06/19 23:13:01 BASE 26.31 80 29.63 90 -3.7 83 -6.2 0 0 975.6 NA 0.0000 -SN 6000 10040 0 0 0
2019/06/19 23:14:00 BASE 25.03 77 29.63 90 -3.7 83 -6.2 0 0 975.7 NA 0.0000 -SN 7000 10110 0 0 0
2019/06/19 23:15:00 BASE 22.92 82 29.63 90 -3.7 83 -6.2 0 0 975.7 NA 0.0000 -SN 6000 10170 0 0 0
2019/06/19 23:16:00 BASE 23.92 85 29.63 90 -3.7 83 -6.2 0 0 975.7 NA 0.0000 -SN 5000 10240 0 0 0
2019/06/19 23:17:00 BASE 23.77 85 29.63 90 -3.7 83 -6.2 0 0 975.7 NA 0.0000 -SN 7000 10340 0 0 0
2019/06/19 23:18:00 BASE 22.81 85 29.63 90 -3.7 83 -6.2 0 0 975.7 NA 0.0000 -SN 9000 10340 0 0 0
2019/06/19 23:19:00 BASE 24.03 84 29.63 90 -3.7 83 -6.2 0 0 975.7 NA 0.0000 -SN 7000 10300 0 0 0
2019/06/19 23:20:00 BASE 22.89 82 29.63 90 -3.7 83 -6.2 0 0 975.6 NA 0.0000 -SN 6000 10170 0 0 0
2019/06/19 23:21:00 BASE 21.44 79 29.63 90 -3.6 82 -6.2 0 0 975.6 NA 0.0000 -SN 6000 10240 0 0 0
2019/06/19 23:22:00 BASE 22.12 79 29.37 76 -3.6 82 -6.2 0 0 975.6 NA 0.0000 -SN 5000 10270 0 0 0
2019/06/19 23:23:00 BASE 22.20 79 28.71 75 -3.6 82 -6.3 0 0 975.5 NA 0.0000 -SN 6000 10270 0 0 0
2019/06/19 23:24:00 BASE 23.04 77 29.27 81 -3.6 82 -6.2 0 0 975.5 NA 0.0000 -SN 8000 10270 0 0 0
2019/06/19 23:25:00 BASE 23.87 77 29.27 81 -3.5 82 -6.2 0 0 975.6 NA 0.0000 -SN 8000 10240 0 0 0
2019/06/19 23:26:00 BASE 23.26 79 29.27 81 -3.5 81 -6.2 0 0 975.5 NA 0.0000 -SN 8000 10240 0 0 0
2019/06/19 23:27:00 BASE 24.67 80 29.27 81 -3.4 80 -6.3 0 0 975.5 NA 0.0000 -SN 7000 10240 0 0 0
2019/06/19 23:28:00 BASE 25.35 79 29.27 81 -3.4 80 -6.4 0 0 975.4 NA 0.0000 -SN 7000 10270 0 0 0
2019/06/19 23:29:00 BASE 22.58 79 29.27 81 -3.5 79 -6.6 0 0 975.5 NA 0.0000 HZ 8000 10300 0 0 0
2019/06/19 23:30:00 BASE 21.33 79 29.27 81 -3.5 79 -6.6 0 0 975.4 NA 0.0000 HZ 9999 10300 0 0 0
2019/06/19 23:31:00 BASE 24.60 76 29.63 77 -3.4 79 -6.6 0 0 975.4 NA 0.0000 HZ 9999 6820 0 0 0
2019/06/19 23:32:00 BASE 25.36 75 29.63 77 -3.4 78 -6.6 0 0 975.5 NA 0.0000 HZ 9999 10240 0 0 0
2019/06/19 23:33:00 BASE 25.61 78 32.10 73 -3.3 78 -6.6 0 0 975.5 NA 0.0000 -SN 8000 10530 0 0 0
2019/06/19 23:34:00 BASE 27.42 75 32.10 73 -3.3 77 -6.7 0 0 975.4 NA 0.0000 -SN 5000 10600 0 0 0
2019/06/19 23:35:00 BASE 25.83 70 32.10 73 -3.3 77 -6.9 0 0 975.4 NA 0.0000 -SN 4700 7280 0 0 0
2019/06/19 23:36:00 BASE 23.82 74 32.15 80 -3.4 76 -7.0 0 0 975.4 NA 0.0000 -SN 6000 10700 0 0 0
2019/06/19 23:37:00 BASE 25.76 77 34.00 67 -3.4 76 -7.0 0 0 975.4 NA 0.0000 -SN 6000 6960 0 0 0
2019/06/19 23:38:00 BASE 28.12 76 34.00 67 -3.4 76 -7.1 0 0 975.4 NA 0.0000 -SN 4900 6630 0 0 0
2019/06/19 23:39:00 BASE 27.69 76 34.00 67 -3.5 76 -7.1 0 0 975.3 NA 0.0000 -SN 4500 10200 0 0 0
2019/06/19 23:40:00 BASE 29.76 77 37.04 82 -3.5 76 -7.1 0 0 975.4 NA 0.0000 -SN 3400 7090 0 0 0
2019/06/19 23:41:00 BASE 29.69 78 37.04 82 -3.6 77 -7.1 0 0 975.4 NA 0.0000 -SN 3300 7190 0 0 0
2019/06/19 23:42:00 BASE 27.15 77 37.04 82 -3.7 77 -7.1 0 0 975.3 NA 0.0000 -SN 6000 7050 0 0 0
2019/06/19 23:43:00 BASE 26.24 80 37.04 82 -3.7 78 -7.1 0 0 975.4 NA 0.0000 -SN 6000 7120 0 0 0
2019/06/19 23:44:00 BASE 26.35 82 37.04 82 -3.7 78 -7.0 0 0 975.4 NA 0.0000 -SN 7000 7580 0 0 0
2019/06/19 23:45:00 BASE 26.29 83 37.04 82 -3.7 79 -6.9 0 0 975.3 NA 0.0000 -SN 7000 7550 0 0 0
2019/06/19 23:46:00 BASE 24.50 80 37.04 82 -3.7 79 -6.9 0 0 975.3 NA 0.0000 -SN 7000 7190 0 0 0
2019/06/19 23:47:00 BASE 23.79 79 37.04 82 -3.7 79 -6.8 0 0 975.3 NA 0.0000 -SN 9000 7480 0 0 0
2019/06/19 23:48:00 BASE 24.90 80 37.04 82 -3.7 79 -6.8 0 0 975.2 NA 0.0000 -SN 9000 8100 0 0 0
2019/06/19 23:49:00 BASE 27.30 78 37.04 82 -3.6 79 -6.8 0 0 975.2 NA 0.0000 -SN 7000 7580 0 0 0
2019/06/19 23:50:00 BASE 27.58 77 32.31 77 -3.6 79 -6.7 0 0 975.2 NA 0.0000 -SN 6000 7810 0 0 0
2019/06/19 23:51:00 BASE 25.93 78 31.12 78 -3.6 79 -6.7 0 0 975.2 NA 0.0000 -SN 7000 7280 0 0 0
2019/06/19 23:52:00 BASE 27.20 79 31.54 81 -3.6 79 -6.7 0 0 975.2 NA 0.0000 -SN 6000 8270 0 0 0
2019/06/19 23:53:00 BASE 28.28 79 34.57 76 -3.6 79 -6.7 0 0 975.2 NA 0.0000 -SN 4900 8200 0 0 0
2019/06/19 23:54:00 BASE 28.35 76 34.57 76 -3.6 80 -6.6 0 0 975.2 NA 0.0000 -SN 5000 8300 0 0 0
2019/06/19 23:55:00 BASE 27.34 75 34.57 76 -3.7 80 -6.6 0 0 975.2 NA 0.0000 -SN 6000 8920 0 0 0
2019/06/19 23:56:00 BASE 26.46 78 34.57 76 -3.7 81 -6.5 0 0 975.1 NA 0.0000 -SN 6000 8300 0 0 0
2019/06/19 23:57:00 BASE 27.73 81 34.57 76 -3.7 81 -6.5 0 0 975.2 NA 0.0000 -SN 5000 7350 0 0 0
2019/06/19 23:58:00 BASE 28.36 84 34.57 76 -3.8 81 -6.5 0 0 975.3 NA 0.0000 -SN 5000 8070 0 0 0
2019/06/19 23:59:00 BASE 28.90 83 34.57 76 -3.8 82 -6.4 0 0 975.3 NA 0.0000 -SN 5000 8040 0 0 0